[[{"header":{"parameterUnit":"m.s-1","parameterCategory":1,"la1":30.6,"la2":29.2853,"lo1":-89.7004,"lo2":-87.6739,"dy":0.0162,"dx":0.0183,"nx":112,"ny":82,"refTime":"2024-06-13T06:00:00:Z","depth":0,"parameterNumber":2,"parameterNumberName":"U-component_of_WINDS"},"data":[0.0,0.0,0.0,0.0,0.0,0.0,0.0,0.0,0.0,0.0,0.0,0.0,0.0,0.0,0.0,0.0,0.0,0.0,0.0,0.0,0.0,0.0,0.0,0.0,0.0,0.0,0.0,0.0,0.0,0.0,0.0,0.0,0.0,0.0,0.0,0.0,0.0,0.0,0.0,0.0,0.0,0.0,0.0,0.0,0.0,0.0,0.0,0.0,0.0,0.0,0.0,0.0,0.0,0.0,0.0,0.0,0.0,0.0,0.0,0.0,0.0,0.0,0.0,0.0,0.0,0.0,0.0,0.0,0.0,0.0,0.0,0.0,0.0,0.0,0.0,0.0,0.0,0.0,0.0,0.0,0.0,0.0,0.0,0.0,0.0,0.0,0.0,0.0,0.0,0.0,0.0,-2.3643,-2.6328,-2.7818,-2.7721,-2.6406,-2.4367,-2.1487,0.0,0.0,0.0,0.0,0.0,0.0,0.0,0.0,0.0,0.0,0.0,0.0,0.0,0.0,0.0,0.0,0.0,0.0,0.0,0.0,0.0,0.0,0.0,0.0,0.0,0.0,0.0,0.0,0.0,0.0,0.0,0.0,0.0,0.0,0.0,0.0,0.0,0.0,0.0,0.0,0.0,0.0,0.0,0.0,0.0,0.0,0.0,0.0,0.0,0.0,0.0,0.0,0.0,0.0,0.0,0.0,0.0,0.0,0.0,0.0,0.0,0.0,0.0,0.0,0.0,0.0,0.0,0.0,0.0,0.0,0.0,0.0,0.0,0.0,0.0,0.0,0.0,0.0,0.0,0.0,0.0,0.0,0.0,0.0,0.0,0.0,0.0,0.0,0.0,0.0,0.0,0.0,0.0,0.0,0.0,0.0,0.0,0.0,0.0,0.0,0.0,0.0,0.0,0.0,-2.0335,-2.5667,-2.7676,-2.8369,-2.7753,-2.6406,-2.4367,-2.1487,0.0,0.0,0.0,0.0,0.0,0.0,0.0,0.0,0.0,0.0,0.0,0.0,0.0,0.0,0.0,0.0,0.0,0.0,0.0,0.0,0.0,0.0,0.0,0.0,0.0,0.0,0.0,0.0,0.0,0.0,0.0,0.0,0.0,0.0,0.0,0.0,0.0,0.0,0.0,0.0,0.0,0.0,0.0,0.0,0.0,0.0,0.0,0.0,0.0,0.0,0.0,0.0,0.0,0.0,0.0,0.0,0.0,0.0,0.0,0.0,0.0,0.0,0.0,0.0,0.0,0.0,0.0,0.0,0.0,0.0,0.0,0.0,0.0,0.0,0.0,0.0,0.0,0.0,0.0,0.0,0.0,0.0,0.0,0.0,0.0,0.0,0.0,0.0,0.0,0.0,0.0,0.0,0.0,0.0,0.0,0.0,0.0,0.0,0.0,0.0,0.0,0.0,0.0,-2.0332,-2.3025,-2.6847,-2.8551,-2.894,-2.7818,-2.6406,-2.4367,-2.1487,-1.8945,0.0,0.0,0.0,0.0,0.0,0.0,0.0,0.0,0.0,0.0,0.0,0.0,0.0,0.0,0.0,0.0,0.0,0.0,0.0,0.0,0.0,0.0,0.0,0.0,0.0,0.0,0.0,0.0,0.0,0.0,0.0,0.0,0.0,0.0,0.0,0.0,0.0,0.0,0.0,0.0,0.0,0.0,0.0,0.0,0.0,0.0,0.0,0.0,0.0,0.0,0.0,0.0,0.0,0.0,0.0,0.0,0.0,0.0,0.0,0.0,0.0,0.0,0.0,0.0,0.0,0.0,0.0,0.0,0.0,0.0,0.0,0.0,0.0,0.0,0.0,0.0,0.0,0.0,0.0,0.0,0.0,0.0,0.0,0.0,0.0,0.0,0.0,0.0,0.0,0.0,0.0,0.0,0.0,0.0,0.0,0.0,0.0,0.0,0.0,0.0,0.0,0.0,-2.3576,-2.5519,-2.7494,-2.9038,-2.9297,-2.7818,-2.6264,-2.4173,-2.1455,-1.8329,0.0,0.0,0.0,0.0,0.0,0.0,0.0,0.0,0.0,0.0,0.0,0.0,0.0,0.0,0.0,0.0,0.0,0.0,0.0,0.0,0.0,0.0,0.0,0.0,0.0,0.0,0.0,0.0,0.0,0.0,0.0,0.0,0.0,0.0,0.0,0.0,0.0,0.0,0.0,0.0,0.0,0.0,0.0,0.0,0.0,0.0,0.0,0.0,0.0,0.0,0.0,0.0,0.0,0.0,0.0,0.0,0.0,0.0,0.0,0.0,0.0,0.0,0.0,0.0,0.0,0.0,0.0,0.0,0.0,0.0,0.0,0.0,0.0,0.0,0.0,0.0,0.0,0.0,0.0,0.0,0.0,0.0,0.0,0.0,0.0,0.0,0.0,0.0,0.0,0.0,0.0,0.0,0.0,0.0,0.0,0.0,0.0,0.0,0.0,0.0,0.0,0.0,-2.3414,-2.6082,-2.7539,-2.9038,-2.9297,-2.7818,-2.5778,-2.364,-2.1423,-1.7365,0.0,0.0,0.0,0.0,0.0,0.0,0.0,0.0,0.0,0.0,0.0,0.0,0.0,0.0,0.0,0.0,0.0,0.0,0.0,0.0,0.0,0.0,0.0,0.0,0.0,0.0,0.0,0.0,0.0,0.0,0.0,0.0,0.0,0.0,0.0,0.0,0.0,0.0,0.0,0.0,0.0,0.0,0.0,0.0,0.0,0.0,0.0,0.0,0.0,0.0,0.0,0.0,0.0,0.0,0.0,0.0,0.0,0.0,0.0,0.0,0.0,0.0,0.0,0.0,0.0,0.0,0.0,0.0,0.0,0.0,0.0,0.0,0.0,0.0,0.0,0.0,0.0,0.0,0.0,0.0,0.0,0.0,0.0,0.0,0.0,0.0,0.0,0.0,0.0,0.0,0.0,0.0,0.0,0.0,0.0,0.0,0.0,0.0,0.0,0.0,0.0,0.0,-2.3337,-2.5616,0.0,-2.8595,-2.8811,-2.7786,-2.5713,-2.3576,-2.1423,0.0,0.0,0.0,0.0,0.0,0.0,0.0,0.0,0.0,0.0,0.0,0.0,0.0,0.0,0.0,0.0,0.0,0.0,0.0,0.0,0.0,0.0,0.0,0.0,0.0,0.0,0.0,0.0,0.0,0.0,0.0,0.0,0.0,0.0,0.0,0.0,0.0,0.0,0.0,0.0,0.0,0.0,0.0,0.0,0.0,0.0,0.0,0.0,0.0,0.0,0.0,0.0,0.0,0.0,0.0,0.0,0.0,0.0,0.0,0.0,0.0,0.0,0.0,0.0,0.0,0.0,0.0,0.0,0.0,0.0,0.0,0.0,0.0,0.0,0.0,0.0,0.0,0.0,0.0,0.0,0.0,0.0,0.0,0.0,0.0,0.0,0.0,0.0,0.0,0.0,0.0,0.0,0.0,0.0,0.0,0.0,0.0,0.0,0.0,0.0,0.0,0.0,-2.1053,-2.3467,-2.5584,0.0,-2.8369,-2.8498,-2.7753,-2.5519,-2.3252,-2.1131,0.0,0.0,0.0,0.0,0.0,0.0,0.0,0.0,0.0,0.0,0.0,0.0,0.0,0.0,0.0,0.0,0.0,0.0,0.0,0.0,0.0,0.0,0.0,0.0,0.0,0.0,0.0,0.0,0.0,0.0,0.0,0.0,0.0,0.0,0.0,0.0,0.0,0.0,0.0,0.0,0.0,0.0,0.0,0.0,0.0,0.0,0.0,0.0,0.0,0.0,0.0,0.0,0.0,0.0,0.0,0.0,0.0,0.0,0.0,0.0,0.0,0.0,0.0,0.0,0.0,0.0,0.0,0.0,0.0,0.0,0.0,0.0,0.0,0.0,0.0,0.0,0.0,0.0,0.0,0.0,0.0,0.0,0.0,0.0,0.0,0.0,0.0,0.0,0.0,0.0,0.0,0.0,0.0,0.0,0.0,0.0,0.0,0.0,0.0,0.0,0.0,0.0,-2.0855,-2.3817,-2.6147,-2.7559,-2.8336,-2.8498,-2.7753,-2.5116,-2.2588,0.0,0.0,0.0,0.0,0.0,0.0,0.0,0.0,0.0,0.0,0.0,0.0,0.0,0.0,0.0,0.0,0.0,0.0,0.0,0.0,0.0,0.0,0.0,0.0,0.0,0.0,0.0,0.0,0.0,0.0,0.0,0.0,0.0,0.0,0.0,0.0,0.0,0.0,0.0,0.0,0.0,0.0,0.0,0.0,0.0,0.0,0.0,0.0,0.0,0.0,0.0,0.0,0.0,0.0,0.0,0.0,0.0,0.0,0.0,0.0,0.0,0.0,0.0,0.0,0.0,0.0,0.0,0.0,0.0,0.0,0.0,0.0,0.0,0.0,0.0,0.0,0.0,0.0,0.0,0.0,0.0,0.0,0.0,0.0,0.0,0.0,0.0,0.0,0.0,0.0,0.0,0.0,0.0,0.0,0.0,0.0,0.0,0.0,0.0,0.0,0.0,0.0,0.0,-2.1231,-2.3991,-2.6147,-2.7559,-2.7883,-2.7948,-2.7721,-2.5116,-2.2783,-2.1099,0.0,0.0,0.0,0.0,0.0,0.0,0.0,0.0,0.0,0.0,0.0,0.0,0.0,0.0,0.0,0.0,0.0,0.0,0.0,0.0,0.0,0.0,0.0,0.0,0.0,0.0,0.0,0.0,0.0,0.0,0.0,0.0,0.0,0.0,0.0,0.0,0.0,0.0,0.0,0.0,0.0,0.0,0.0,0.0,0.0,0.0,0.0,0.0,0.0,0.0,0.0,0.0,0.0,0.0,0.0,0.0,0.0,0.0,0.0,0.0,0.0,0.0,0.0,0.0,0.0,0.0,0.0,0.0,0.0,0.0,0.0,0.0,0.0,0.0,0.0,0.0,0.0,0.0,0.0,0.0,0.0,0.0,0.0,0.0,0.0,0.0,0.0,0.0,0.0,0.0,0.0,0.0,0.0,0.0,0.0,0.0,0.0,0.0,0.0,0.0,0.0,0.0,-2.16,-2.4398,-2.6587,-2.798,-2.7883,-2.7721,-2.7721,-2.5116,-2.288,-2.139,0.0,0.0,0.0,0.0,0.0,0.0,0.0,0.0,0.0,0.0,0.0,0.0,0.0,0.0,0.0,0.0,0.0,0.0,0.0,0.0,0.0,0.0,0.0,0.0,0.0,0.0,0.0,0.0,0.0,0.0,0.0,0.0,0.0,0.0,0.0,0.0,0.0,0.0,0.0,0.0,0.0,0.0,0.0,0.0,0.0,0.0,0.0,0.0,0.0,0.0,0.0,0.0,0.0,0.0,0.0,0.0,0.0,0.0,0.0,0.0,0.0,0.0,0.0,0.0,0.0,0.0,0.0,0.0,0.0,0.0,0.0,0.0,0.0,0.0,0.0,0.0,0.0,0.0,0.0,0.0,0.0,0.0,0.0,0.0,0.0,0.0,0.0,0.0,0.0,0.0,0.0,0.0,0.0,0.0,0.0,0.0,0.0,0.0,0.0,0.0,0.0,0.0,-2.2054,-2.4987,-2.7235,-2.8649,-2.8207,-2.7786,-2.7721,-2.5246,-2.3042,-2.1487,0.0,0.0,0.0,0.0,0.0,0.0,0.0,0.0,0.0,0.0,0.0,0.0,0.0,0.0,0.0,0.0,0.0,0.0,0.0,0.0,0.0,0.0,0.0,0.0,0.0,0.0,0.0,0.0,0.0,0.0,0.0,0.0,0.0,0.0,0.0,0.0,0.0,0.0,0.0,0.0,0.0,0.0,0.0,0.0,0.0,0.0,0.0,0.0,0.0,0.0,0.0,0.0,0.0,0.0,0.0,0.0,0.0,0.0,0.0,0.0,-2.1092,0.0,0.0,0.0,0.0,0.0,0.0,0.0,0.0,0.0,0.0,0.0,0.0,0.0,0.0,0.0,0.0,0.0,0.0,0.0,0.0,0.0,0.0,0.0,0.0,0.0,0.0,0.0,0.0,0.0,0.0,0.0,0.0,0.0,0.0,0.0,0.0,0.0,0.0,0.0,0.0,0.0,-2.2883,-2.5352,-2.7235,-2.8649,-2.866,-2.8336,-2.7753,-2.6134,-2.4288,-2.228,-1.9333,0.0,0.0,0.0,0.0,0.0,0.0,0.0,0.0,0.0,0.0,0.0,0.0,0.0,0.0,0.0,0.0,0.0,0.0,0.0,0.0,0.0,0.0,0.0,0.0,0.0,0.0,0.0,0.0,0.0,0.0,0.0,0.0,0.0,0.0,0.0,0.0,0.0,0.0,0.0,0.0,0.0,0.0,0.0,0.0,0.0,0.0,0.0,0.0,0.0,0.0,0.0,0.0,0.0,0.0,0.0,0.0,0.0,0.0,0.0,0.0,-2.3294,0.0,0.0,0.0,0.0,0.0,0.0,0.0,0.0,0.0,0.0,0.0,0.0,0.0,0.0,0.0,0.0,0.0,0.0,0.0,0.0,0.0,0.0,0.0,0.0,0.0,0.0,0.0,0.0,0.0,0.0,0.0,0.0,0.0,0.0,0.0,0.0,0.0,0.0,0.0,0.0,-2.3616,-2.5899,-2.7721,-2.9167,-2.9005,-2.8498,-2.7753,-2.6406,-2.4839,-2.3042,-2.0579,0.0,0.0,0.0,0.0,0.0,0.0,0.0,0.0,0.0,0.0,0.0,0.0,0.0,0.0,0.0,0.0,0.0,0.0,0.0,0.0,0.0,0.0,0.0,0.0,0.0,0.0,0.0,0.0,0.0,0.0,0.0,0.0,0.0,0.0,0.0,0.0,0.0,0.0,0.0,0.0,0.0,0.0,0.0,0.0,0.0,0.0,0.0,0.0,0.0,0.0,0.0,0.0,0.0,-3.2101,-3.2896,-3.3825,-3.3962,-3.4327,-3.4663,-3.0779,-2.8372,-2.7049,-2.5465,0.0,0.0,0.0,0.0,0.0,0.0,0.0,0.0,0.0,0.0,0.0,0.0,0.0,0.0,0.0,0.0,0.0,0.0,0.0,0.0,0.0,0.0,0.0,0.0,-2.6911,-2.6378,0.0,0.0,0.0,0.0,0.0,0.0,0.0,0.0,0.0,0.0,0.0,0.0,-2.4371,-2.6555,-2.8401,-2.9751,-2.9362,-2.8628,-2.7786,-2.6633,-2.5324,-2.3755,-2.1762,-2.0046,0.0,0.0,0.0,0.0,0.0,0.0,0.0,0.0,0.0,0.0,0.0,0.0,0.0,0.0,0.0,0.0,0.0,0.0,0.0,0.0,0.0,0.0,0.0,0.0,0.0,0.0,0.0,0.0,0.0,0.0,0.0,0.0,-2.0883,-2.1776,0.0,0.0,0.0,0.0,0.0,0.0,0.0,0.0,0.0,0.0,0.0,0.0,0.0,-3.2158,-3.2897,-3.5736,-3.6569,-3.5469,-3.8205,-3.8939,-3.787,-3.8491,-3.8491,-3.7974,-3.7353,0.0,-3.1792,-3.0314,0.0,0.0,0.0,0.0,0.0,0.0,0.0,0.0,0.0,0.0,0.0,0.0,0.0,0.0,0.0,0.0,0.0,0.0,0.0,0.0,0.0,0.0,-2.8495,-2.7973,-2.9137,-3.0054,0.0,-2.5262,-2.1999,-2.0931,-1.9342,0.0,0.0,0.0,0.0,0.0,0.0,0.0,-2.5163,-2.7332,-2.8973,-2.9815,-2.9815,-2.92,-2.7818,-2.7527,-2.6555,-2.45,-2.296,-2.1762,-2.0905,-1.828,0.0,0.0,0.0,0.0,0.0,0.0,0.0,0.0,0.0,0.0,0.0,0.0,0.0,0.0,0.0,0.0,0.0,0.0,0.0,0.0,0.0,0.0,0.0,0.0,0.0,0.0,0.0,0.0,0.0,-2.1432,-2.3945,-2.4251,-2.5053,-2.5088,0.0,0.0,0.0,0.0,0.0,0.0,0.0,0.0,0.0,-3.4857,-3.6011,-3.696,-3.7782,-3.8699,-3.9066,-3.8825,-3.9767,-4.0112,-3.9894,-4.0239,-4.0204,-3.9928,-4.0342,-3.9273,-3.7028,-3.4185,-3.1454,-2.8902,0.0,0.0,0.0,0.0,-2.6894,-2.6776,-2.8333,-2.84,0.0,-2.7182,0.0,0.0,0.0,0.0,0.0,0.0,0.0,0.0,0.0,0.0,-3.1086,-3.1207,-3.2068,-3.2715,-3.2104,-2.9791,-2.7229,0.0,-2.4243,-2.3047,-2.0654,0.0,0.0,0.0,0.0,-2.4455,-2.6024,-2.7721,-2.907,-2.9815,-2.988,-2.9297,-2.7818,-2.7721,-2.6782,-2.463,-2.3917,-2.309,-2.1956,-2.0232,-1.8719,0.0,0.0,0.0,0.0,0.0,0.0,0.0,0.0,0.0,0.0,0.0,0.0,0.0,0.0,0.0,0.0,0.0,0.0,0.0,0.0,0.0,0.0,0.0,0.0,0.0,0.0,0.0,0.0,-2.4149,-2.6771,-2.6908,-2.8476,-2.8954,0.0,0.0,0.0,0.0,0.0,0.0,-3.4048,-3.5419,-3.7109,-3.933,-4.0122,-4.1006,-4.2043,-4.1664,-4.1871,-4.263,-4.2043,-4.194,-4.2354,-4.2147,-4.1861,-4.1516,-4.1861,-4.1512,-4.0521,-3.7591,-3.5006,-3.2793,-3.1899,-3.0973,-3.0228,-3.0954,-3.0886,-3.0668,-3.253,-3.2645,-3.1935,-3.121,-3.0601,-2.9736,-2.7672,0.0,0.0,0.0,0.0,-2.9108,-3.0987,-3.2192,-3.3025,-3.3705,-3.4312,-3.4653,-3.4194,-3.3397,-3.1901,0.0,-2.8425,-2.7332,-2.4084,0.0,0.0,0.0,0.0,-2.5942,-2.6834,-2.8174,-2.9297,-2.9815,-2.988,-2.9297,-2.7818,-2.7721,-2.6879,-2.4903,-2.4436,-2.3787,-2.2701,-2.1698,-2.0494,-1.9085,0.0,0.0,0.0,0.0,0.0,0.0,0.0,0.0,0.0,0.0,0.0,0.0,0.0,0.0,0.0,0.0,0.0,0.0,0.0,0.0,0.0,0.0,0.0,0.0,0.0,0.0,0.0,0.0,0.0,-3.0173,-3.2288,0.0,0.0,0.0,0.0,-3.3411,-3.5029,-3.662,-3.8116,-3.8975,-4.0181,-4.1767,-4.262,-4.3699,-4.5156,-4.5906,-4.6631,-4.7355,-4.732,-4.6975,-4.6286,-4.55,-4.4423,-4.3034,-4.2344,-4.1561,-4.0871,-4.0521,-3.8926,-3.6548,-3.5812,-3.4558,-3.3288,-3.3998,-3.4235,-3.4336,-3.5126,-3.4945,-3.4539,-3.5949,-3.4945,-3.2916,-3.1393,-2.9991,0.0,0.0,-3.0446,-3.1224,-3.2022,-3.3309,-3.4447,-3.4589,-3.5222,-3.581,-3.6015,-3.5377,-3.4163,0.0,-3.0157,-2.8749,-2.8728,0.0,-2.6007,-2.6099,-2.6921,-2.7579,-2.7656,-2.894,-2.9848,-2.988,-2.988,-2.9297,-2.7818,-2.7721,-2.7086,-2.5629,-2.4306,-2.3496,-2.3431,-2.2037,-2.0797,-1.9767,-1.7686,0.0,0.0,0.0,0.0,0.0,0.0,0.0,0.0,0.0,0.0,0.0,0.0,0.0,0.0,0.0,0.0,0.0,0.0,0.0,0.0,0.0,0.0,0.0,0.0,0.0,0.0,0.0,0.0,-3.4637,-3.6405,0.0,-3.6191,-3.6741,-3.7313,-3.7575,-3.9055,-4.0629,-4.2157,-4.295,-4.4078,-4.563,-4.5941,-4.6355,-4.6879,-4.6672,-4.6734,-4.701,-4.6466,-4.6086,-4.5811,-4.5535,-4.5087,-4.4596,-4.432,-4.3717,-4.2918,-4.2387,-4.0793,-3.8608,-3.8241,-3.741,-3.6469,-3.6707,-3.674,-3.6738,-3.7009,-3.6907,-3.6705,-3.6795,-3.6254,-3.5385,-3.437,-3.437,-3.4675,-3.4472,-3.4945,-3.5588,-3.5825,-3.6299,-3.6592,-3.622,-3.631,-3.6445,-3.6242,-3.5976,-3.5535,-3.489,-3.329,-3.1842,-3.098,-3.0478,-2.9633,-2.8059,-2.8708,-2.9151,-2.8487,-2.9297,-2.988,-2.988,-2.988,-2.9297,-2.7818,-2.7721,-2.6911,-2.5001,-2.4436,-2.3755,-2.2848,-2.2165,-2.139,-2.0463,-1.8743,-1.686,0.0,0.0,0.0,0.0,0.0,0.0,0.0,0.0,0.0,0.0,0.0,0.0,0.0,0.0,0.0,0.0,0.0,0.0,0.0,0.0,0.0,0.0,0.0,0.0,0.0,0.0,-3.6444,-3.7843,-3.9603,-4.0405,-3.9743,-4.0569,-4.1419,-4.2009,-4.2975,-4.4113,-4.5389,-4.5906,-4.6535,-4.7293,-4.7327,-4.7327,-4.7327,-4.6837,-4.6734,-4.6975,-4.6431,-4.6155,-4.6155,-4.5914,-4.5776,-4.5776,-4.5447,-4.4844,-4.407,-4.3511,-4.2218,-4.0597,-3.9939,-3.9364,-3.8826,-3.8802,-3.873,-3.8633,-3.8633,-3.8633,-3.8531,-3.7777,-3.754,-3.7405,-3.6637,-3.711,-3.7821,-3.7313,-3.7516,-3.7922,-3.7922,-3.7922,-3.7777,-3.7352,-3.7262,-3.7229,-3.6997,-3.6732,-3.6603,-3.6676,-3.5394,-3.4031,-3.311,-3.2892,-3.2238,-3.0552,-3.0836,-3.0868,-2.9825,-3.0141,-3.0293,-2.9935,-2.988,-2.9297,-2.7818,-2.7721,-2.6911,-2.5001,-2.4436,-2.3755,-2.2815,-2.2115,-2.1452,-2.0811,-1.9233,-1.7464,-1.5531,0.0,0.0,0.0,0.0,0.0,0.0,0.0,0.0,0.0,0.0,0.0,0.0,0.0,0.0,0.0,0.0,0.0,0.0,0.0,0.0,0.0,0.0,0.0,-3.3713,-3.6466,-3.8768,-3.9673,-4.1857,-4.3,-4.2275,-4.3552,-4.5036,-4.6527,-4.6631,-4.6941,-4.7638,-4.7672,-4.7362,-4.67,-4.67,-4.6734,-4.6734,-4.6734,-4.7079,-4.7775,-4.7769,-4.7741,-4.7769,-4.6983,-4.6672,-4.6638,-4.5711,-4.4902,-4.4181,-4.3928,-4.3397,-4.2578,-4.095,-4.0322,-4.0322,-4.0163,-4.0113,-4.0113,-4.0113,-4.0113,-3.9977,-3.9276,-3.9039,-3.8903,-3.8193,-3.799,-3.799,-3.799,-3.799,-3.799,-3.799,-3.799,-3.798,-3.7997,-3.8044,-3.8091,-3.8322,-3.7842,-3.735,-3.7503,-3.6284,-3.5249,-3.5249,-3.435,-3.3666,-3.3611,-3.3326,0.0,-3.167,-3.1495,-3.1079,-3.0021,-2.9913,-2.9297,-2.785,-2.7721,-2.7106,-2.5662,-2.4274,-2.3496,-2.3463,-2.1955,-2.1022,-2.0826,-1.9122,-1.7577,-1.6256,0.0,0.0,0.0,0.0,0.0,0.0,0.0,0.0,0.0,0.0,0.0,0.0,0.0,0.0,0.0,0.0,0.0,0.0,0.0,0.0,0.0,0.0,-3.6797,-3.6843,-3.9452,-4.1929,-4.3494,-4.4714,-4.5627,-4.6086,-4.6527,-4.6941,-4.7389,-4.6906,-4.6941,-4.7638,-4.7672,-4.7844,-4.8155,-4.8769,-4.9079,-4.9079,-4.9079,-4.9183,-4.9355,-4.8803,-4.8775,-4.9355,-4.8449,-4.8358,-4.8804,-4.7992,-4.7271,-4.6481,-4.5402,-4.4482,-4.3546,-4.1886,-4.118,-4.1036,-4.0467,-4.0188,-4.0113,-4.0113,-4.0113,-4.0079,-3.9876,-3.9808,-3.9774,-3.9571,-3.9503,-3.9503,-3.9503,-3.9503,-3.9503,-3.9503,-3.9503,-3.9368,-3.8851,-3.8715,-3.8594,-3.8216,-3.7933,-3.79,-3.8105,-3.7394,-3.659,-3.609,-3.5527,-3.4941,-3.416,-3.3707,0.0,-3.201,-3.1411,-3.0943,-3.0668,-3.0204,-2.9524,-2.8563,-2.8012,-2.6879,-2.4936,-2.3982,-2.3269,-2.2701,-2.2147,-2.1688,-2.1381,-1.9819,-1.8561,0.0,0.0,0.0,0.0,0.0,0.0,0.0,0.0,0.0,0.0,0.0,0.0,0.0,0.0,0.0,0.0,0.0,0.0,0.0,0.0,0.0,0.0,-3.8536,-4.0552,-4.1197,-4.2592,-4.408,-4.5493,-4.6344,-4.7127,-4.8002,-4.7851,-4.7948,-4.8631,-4.7948,-4.7872,-4.8631,-4.8665,-4.8734,-4.881,-4.9223,-4.9355,-4.9045,-4.9045,-4.9045,-4.9045,-4.8534,-4.8741,-4.9465,-4.8931,-4.9108,-4.9796,-4.9291,-4.8615,-4.7803,-4.6912,-4.5836,0.0,0.0,0.0,0.0,0.0,-4.0163,-4.0113,-4.0113,-4.0113,-4.0113,-4.0113,-4.0113,-4.0113,-4.0113,-4.0113,-4.0113,-4.0113,-4.0113,-4.0113,-4.0113,-4.0113,-4.0011,-3.9571,-3.9469,-3.9359,-3.904,-3.8724,-3.8567,-3.8779,-3.8185,0.0,-3.6831,-3.6333,-3.5761,-3.4991,-3.4678,-3.407,-3.2821,-3.2294,-3.1867,-3.1413,-3.0733,-3.0042,-2.9329,-2.8563,0.0,0.0,0.0,-2.3829,-2.2642,-2.2507,0.0,0.0,0.0,0.0,0.0,0.0,0.0,0.0,-1.81,-1.8161,0.0,0.0,0.0,0.0,0.0,0.0,0.0,0.0,0.0,0.0,0.0,0.0,0.0,0.0,0.0,0.0,-4.2219,-4.4181,-4.5664,-4.5552,-4.5637,-4.6433,-4.7174,-4.7951,-4.8644,-4.8242,-4.8528,-4.9907,-4.9258,-4.912,-4.9838,0.0,0.0,0.0,0.0,-4.8574,-4.792,-4.792,-4.792,-4.792,-4.7817,-4.8196,-4.8885,-4.8816,-4.9166,-4.9923,-4.9737,-4.9242,-4.845,-4.826,-4.7194,-4.5523,-4.3537,-4.227,-4.1418,-4.0637,-4.0316,-4.0214,-4.0214,0.0,0.0,-4.0113,-4.0113,-4.0113,-4.0113,-4.0113,-4.0113,-4.0113,-4.0113,-4.0113,-4.0113,-4.0113,-4.0113,-4.0113,-4.0113,-4.0138,-4.0238,-3.9753,-3.936,-3.9505,-3.8856,-3.8105,-3.7558,-3.6857,-3.6238,-3.5822,-3.5722,-3.524,-3.3848,-3.3566,-3.3186,-3.2214,0.0,0.0,-3.0075,-2.9329,-2.8304,-2.6911,-2.6096,-2.4912,-2.3238,-2.3196,-2.2979,-2.2466,-2.249,-2.249,-2.2409,-2.2563,-2.2624,-2.2594,-2.0641,-2.0381,0.0,0.0,0.0,0.0,0.0,0.0,0.0,0.0,0.0,0.0,0.0,0.0,0.0,0.0,0.0,-4.1568,-4.3885,-4.5739,-4.6622,-4.7189,-4.7559,-4.7719,-4.8209,-4.8793,-4.9433,-4.9545,-4.97,-4.9976,-4.9171,-4.8764,-4.9016,-4.8931,-4.8776,-4.8638,-4.9222,-4.9404,-4.9149,-4.9149,-4.9149,-4.9115,0.0,0.0,-4.932,-4.8739,-4.8817,-4.935,-4.959,-4.9462,-4.9018,-4.8792,-4.7626,-4.5834,-4.398,-4.278,-4.2102,-4.1941,-4.1474,-4.1001,-4.1001,-4.0595,-4.0113,-4.0113,-4.0113,-4.0113,-4.0113,-4.0113,0.0,-4.0113,-4.0113,-4.0113,-4.0113,-4.0113,-4.0113,-4.0113,-4.0113,-4.0113,-4.0138,-4.0036,-3.9985,-4.0109,-3.9496,-3.8856,-3.8336,-3.7625,-3.6715,-3.5508,-3.5316,-3.4995,-3.4129,-3.3543,-3.3129,-3.2927,-3.2222,-3.1487,-3.0775,-3.0085,-2.907,-2.7591,-2.6667,-2.5758,-2.4888,-2.5044,-2.4603,-2.3371,-2.3721,-2.364,-2.3117,-2.4194,-2.4697,-2.4666,-2.3209,-2.2675,0.0,0.0,0.0,0.0,0.0,0.0,0.0,0.0,0.0,0.0,0.0,-3.622,0.0,0.0,-4.2956,-4.479,-4.6099,-4.7145,-4.792,-4.8388,-4.8519,-4.8146,-4.8626,-4.912,-4.9436,-4.9311,-4.933,-4.9708,-4.8963,-4.8723,-4.9211,-4.913,-4.91,-4.9309,-4.9566,-4.9708,-4.9742,-4.9742,-4.9742,-4.9742,-4.9242,-4.9247,-4.959,-4.9154,-4.9099,-4.935,-4.953,-4.9441,-4.9131,-4.8596,-4.7817,-4.6821,-4.5185,-4.3876,-4.2828,-4.2422,-4.2049,-4.1745,-4.1745,-4.1271,-4.0629,-4.0629,-4.0417,-4.0113,-4.0113,-4.0113,-4.0113,-4.0113,-4.0113,-4.0113,-4.0113,-4.0113,-4.0113,-4.0113,-4.0113,-4.0113,-4.0113,-4.0113,-4.0138,-4.0188,-3.9883,-3.946,-3.894,-3.8506,-3.7577,-3.5545,-3.5177,-3.4906,-3.4201,-3.3809,-3.3533,-3.3408,-3.2715,-3.1959,-3.111,-2.9871,-2.8812,-2.8104,-2.7375,-2.6747,-2.6172,-2.6283,-2.5926,-2.504,-2.5244,-2.5179,-2.4789,-2.5518,-2.5826,-2.5773,-2.5487,-2.5179,0.0,0.0,0.0,0.0,0.0,0.0,0.0,0.0,-3.4775,-3.6321,-3.857,-4.0832,-4.2625,-4.4215,-4.5805,-4.7631,-4.8007,-4.8342,-4.8917,-4.9077,-4.8965,-4.8324,-4.8859,-4.9229,-4.9199,-4.8899,-4.8915,-4.9466,-4.9061,-4.9086,-4.9615,-4.9804,-4.9971,-5.0071,-4.9948,-4.9948,-5.0071,-4.9934,-4.983,-4.983,-4.9679,-4.9619,-4.959,-4.953,-4.9471,-4.9441,-4.9411,-4.935,-4.9226,-4.8436,-4.8037,-4.7831,-4.6583,-4.5196,-4.3747,-4.3031,-4.2625,-4.2523,-4.2523,-4.2016,-4.1407,-4.1271,-4.0798,-4.0282,-4.0146,-4.0113,-4.0113,-4.0113,-4.0113,-4.0113,-4.0113,-4.0113,-4.0113,-4.0113,-4.0113,-4.0113,-4.0113,-4.0113,-4.0113,-4.0113,-4.0113,-3.991,-3.9309,-3.918,-3.8317,-3.5901,-3.5349,-3.4976,-3.425,-3.4101,-3.3949,-3.372,-3.3157,-3.2385,-3.1286,-2.9679,-2.8678,-2.855,-2.8137,-2.7668,-2.7166,-2.7101,-2.6873,-2.6402,-2.6526,-2.6565,-2.6511,-2.6688,-2.6749,-2.6726,-2.7334,-2.7242,-2.9287,-2.9516,-3.066,-3.3421,-3.3241,-3.3931,0.0,0.0,-4.0245,-4.2942,-4.4276,-4.5026,-4.5263,-4.6549,-4.7601,-4.7838,-4.8477,-4.8917,-4.8984,-4.8984,-4.9015,-4.8914,-4.9226,-4.9381,-4.9229,-4.9432,-4.9551,-4.95,-5.0017,-5.012,-4.9535,-5.0646,-5.0992,-5.0376,-5.0434,-5.0434,-5.0376,-4.963,-4.929,-4.929,-4.926,-4.926,-4.926,-4.9411,-4.9381,-4.9229,-4.9107,-4.9199,-4.9441,-4.904,-4.8568,-4.8078,-4.7763,-4.6752,-4.5365,-4.4587,-4.3876,-4.3274,-4.3274,-4.2794,-4.2049,-4.1407,-4.1136,-4.0933,-4.0316,-4.0113,-4.0113,-4.0113,-4.0113,-4.0113,-4.0113,-4.0113,-4.0113,-4.0113,-4.0113,-4.0113,-4.0113,-4.0113,-4.0113,-4.0113,-4.0113,-3.9927,-3.9301,-3.911,-3.8415,-3.6625,-3.5965,-3.535,-3.4538,-3.405,-3.372,-3.3694,-3.363,-3.2927,-3.1318,-3.0401,-2.9666,-2.9065,-2.8732,-2.8302,-2.7632,-2.7426,-2.7064,-2.6433,-2.6965,-2.7272,-2.7272,-2.7888,-2.8165,-2.8165,-2.8258,-2.7919,-3.4344,-3.4751,0.0,0.0,-3.874,-3.9881,-4.3074,-4.3519,-4.3665,-4.5054,-4.6235,-4.6959,-4.6959,-4.7868,-4.8545,0.0,-4.8815,-4.9018,-4.9018,-4.9018,-4.9018,-4.9018,-4.9107,-4.9202,-4.9077,-4.9199,-4.926,-4.9199,-4.9912,-5.0215,-5.0001,-5.0832,-5.1274,-5.1157,-5.1157,-5.1157,-5.1157,-5.0816,-5.0441,-5.0032,-4.994,-4.9641,-4.9199,-4.9199,-4.9138,-4.9077,-4.9015,-4.908,-4.9199,-4.908,-4.8846,-4.8568,-4.8071,-4.7259,-4.6244,-4.55,-4.4756,-4.4079,-4.4079,-4.3606,-4.2828,-4.2083,-4.1542,-4.1068,-4.0316,-4.0113,-4.0113,-4.0113,-4.0113,-4.0113,-4.0113,-4.0113,-4.0113,-4.0113,-4.0113,-4.0113,-4.0113,-4.0113,-4.0113,-4.0113,-4.0113,-3.9901,-3.9295,-3.9142,-3.8602,-3.7129,-3.6197,-3.5464,-3.4977,-3.4079,-3.3414,-3.3256,-3.2688,-3.2086,-3.1394,-3.0836,-3.0221,-2.9563,-2.9493,-2.9155,-2.8303,-2.821,-2.7968,-2.758,-2.7827,-2.798,-2.798,-2.8258,-2.8596,-2.8972,-2.8972,-2.9058,-3.768,0.0,0.0,-4.094,-4.2717,-4.4386,-4.5401,-4.597,-4.6419,-4.6925,-4.7525,-4.8,-4.8173,-4.8477,-4.8781,-4.8984,-4.9018,-4.9018,-4.9018,-4.9018,-4.9018,-4.9018,-4.9018,-4.9018,-4.9018,-4.9015,-4.9015,-4.8984,-4.9927,-5.0464,-5.0323,-5.1282,-5.1822,-5.1875,-5.1811,-5.1843,-5.1938,-5.1734,-5.139,-5.0847,-5.0754,-5.0283,-4.9505,-4.9209,-4.9015,-4.9018,-4.9018,-4.9018,-4.9018,-4.9018,-4.9018,-4.8951,-4.8409,-4.7767,-4.7022,-4.6278,-4.5399,-4.4615,-4.4615,-4.4215,-4.3606,-4.2861,-4.2117,-4.1373,-4.0629,-4.0282,-4.0113,-4.0113,-4.0113,-4.0113,-4.0113,-4.0113,-4.0113,-4.0113,-4.0113,-4.0113,-4.0113,-3.9952,-3.985,-3.985,-3.9722,-3.9454,-3.9028,-3.8947,-3.8614,-3.7626,-3.6551,-3.5643,-3.515,-3.3985,-3.3096,-3.2939,-3.2172,-3.1609,-3.1424,-3.1119,-3.0664,-3.0012,-3.0092,-2.9804,-2.8955,-2.89,-2.8735,-2.8411,-2.8596,-2.8688,-2.8688,-2.8873,-2.9187,-2.9679,-2.9679,-2.9925,0.0,0.0,-4.1079,-4.2191,-4.393,-4.5839,-4.7745,-4.837,-4.8764,-4.9677,-4.8929,-4.8252,-4.888,-4.8409,-4.8142,-4.8883,-4.9018,-4.9018,-4.9018,-4.9018,-4.9018,-4.9018,-4.9018,-4.9018,0.0,-4.9107,-4.9138,-4.9018,-5.0529,-5.107,-5.0166,-5.2232,-5.3078,-5.23,-5.2464,-5.2595,-5.2595,-5.1847,-5.1505,-5.1471,-5.1471,-5.1065,-5.0351,-4.9539,-4.9107,-4.9018,-4.9018,-4.9018,-4.9018,-4.9018,-4.9018,-4.9018,-4.8984,-4.8511,-4.78,-4.7022,-4.5838,-4.4615,-4.4615,-4.4581,-4.4418,-4.3639,-4.2861,-4.2117,-4.1407,-4.0663,-4.0113,-4.0113,-4.0113,-4.0113,-4.0113,-4.0113,-4.0113,-4.0113,-4.0113,-4.0113,-4.0113,-3.9644,-3.9249,-3.9249,-3.8723,-3.8334,-3.8334,-3.8334,-3.8306,-3.8274,-3.7185,-3.5978,-3.4856,-3.3639,-3.2912,-3.2912,-3.2578,-3.2105,-3.1455,-3.1393,-3.1116,-3.0443,-3.0381,-3.0104,-2.9396,-2.9396,-2.9089,-2.8411,-2.9058,-2.9371,-2.9371,-3.0017,-3.0356,-3.0356,-3.0356,-3.0386,0.0,0.0,-4.488,-4.6291,-4.7654,-4.8902,-4.9581,-4.9736,-4.9538,-4.8895,-4.8186,-4.7603,-4.7335,-4.7478,-4.7689,-4.7962,-4.8553,-4.9018,-4.9018,-4.9424,-4.956,-4.9052,-4.9424,0.0,0.0,0.0,0.0,-4.8984,-4.9994,-5.0638,-5.0811,-5.2536,-5.3382,-5.3112,-5.3145,-5.3178,-5.3178,-5.2974,-5.2568,-5.2025,-5.1551,-5.0907,-5.0195,-4.9924,-4.952,-4.9018,-4.9018,-4.9018,-4.9018,-4.9018,-4.9018,-4.9018,-4.9018,-4.8545,-4.7804,-4.7056,-4.6177,-4.5263,-4.4784,-4.4615,-4.4479,-4.3673,-4.3234,-4.2794,-4.1576,-4.1035,-4.073,-4.0248,-4.0113,-4.0113,-4.0113,-4.0113,-4.0113,-4.0113,-4.0113,-3.9978,-3.9592,-3.9322,-3.9082,-3.8701,-3.8418,-3.8165,-3.7767,-3.7709,-3.7562,-3.7178,-3.6699,-3.5783,-3.4063,-3.3466,-3.3045,-3.264,-3.2468,-3.229,-3.2074,-3.2044,-3.1767,-3.112,-3.1059,-3.0751,-3.0079,-3.0048,-2.9956,-2.974,-2.9956,-3.0048,-3.0048,-3.0294,-3.0632,-3.1059,-3.1059,-3.1305,-4.3651,-4.585,-4.7563,-4.8978,-5.0068,-5.0813,-5.0738,-5.055,-4.9915,-4.8518,-4.7429,-4.6612,-4.6343,-4.5856,-4.5991,-4.7553,-4.7825,-4.8233,-4.9528,-4.9715,-4.9627,-4.9424,-4.9796,-4.9898,0.0,0.0,0.0,-4.8951,-5.0168,-5.098,-5.1217,-5.2672,-5.3518,-5.3518,-5.3518,-5.3518,-5.3518,-5.3518,-5.3247,-5.2739,-5.1961,-5.1352,-5.0845,-5.0338,-4.983,-4.939,-4.912,-4.9018,-4.9018,-4.9018,-4.9018,-4.9018,-4.9018,-4.8714,-4.8173,-4.7158,-4.6481,-4.594,-4.4953,-4.4615,-4.4513,-4.4012,-4.3639,-4.3206,-4.2286,-4.1644,-4.1102,-4.0629,-4.0316,-4.0113,-4.0113,-4.0113,-4.0113,-4.0113,-4.0113,-3.9978,-3.9618,-3.9348,-3.9028,-3.8418,-3.8108,-3.7796,-3.7178,-3.7058,-3.6968,-3.6538,-3.6473,-3.5876,-3.4349,-3.3706,-3.3244,-3.2782,-3.2536,-3.2382,-3.2382,-3.2382,-3.2198,-3.1767,-3.1736,-3.1459,-3.0782,-3.0782,-3.0632,-3.0386,-3.0658,-3.0782,-3.0782,-3.0997,-3.1336,-3.1736,-3.1736,-3.1982,-4.6009,-4.7699,-4.9147,-5.0259,-5.1068,-5.1549,-5.1243,-5.0676,-4.9877,-4.8614,-4.6641,-4.5293,0.0,0.0,-4.3272,-4.749,-4.6839,-4.7024,-5.0484,-4.9862,-4.9357,0.0,0.0,0.0,0.0,0.0,0.0,-4.912,0.0,-5.1928,-5.1286,-5.2706,-5.3518,-5.3518,-5.3518,-5.3518,-5.3518,-5.3518,-5.3518,-5.3484,-5.2739,-5.2334,-5.2266,-5.0811,-5.0135,-5.0067,-4.9323,-4.9018,-4.9018,-4.9018,-4.9018,-4.9018,-4.9018,-4.9018,-4.8849,-4.7394,-4.6819,-4.6583,-4.5156,-4.4649,-4.4615,-4.4615,-4.4079,-4.3443,-4.3409,-4.2422,-4.1305,-4.1271,-4.073,-4.018,-4.018,-4.0146,-4.0113,-4.0113,-4.0113,-4.0113,-4.0062,-3.9592,-3.8974,-3.8362,-3.7767,-3.7178,-3.66,-3.6507,-3.6507,-3.6507,-3.6507,-3.6261,-3.5614,-3.4321,-3.349,-3.3429,-3.2813,-3.2444,-3.2382,-3.2382,-3.2382,-3.2382,-3.2382,-3.2105,-3.1486,-3.1455,-3.1151,-3.0509,-3.112,-3.1455,-3.1455,-3.2074,-3.2382,-3.2382,-3.2382,-3.2382,-4.8117,-4.9907,-5.1386,-5.2244,-5.2186,-5.1792,-5.1294,-4.96,-4.7712,-4.6384,-4.4454,-4.2676,0.0,0.0,0.0,-4.4652,-4.6248,0.0,-5.0048,-5.05,0.0,-5.0913,0.0,-5.1522,-5.098,-5.1251,0.0,0.0,-5.0642,-5.1048,-5.1961,-5.2976,-5.3518,-5.3518,-5.3518,-5.3518,-5.3518,-5.3518,-5.3518,-5.3518,-5.3281,-5.2875,-5.2266,-5.1352,-5.0608,-5.0067,-4.9323,-4.9018,-4.9018,-4.9018,-4.9018,-4.9018,-4.9018,-4.9018,-4.8883,-4.797,-4.7259,-4.665,-4.5737,-4.506,-4.4615,-4.4615,-4.4479,-4.4181,-4.3606,-4.3139,-4.2699,-4.2185,-4.1474,-4.0933,-4.0933,-4.0493,-4.0113,-4.0113,-4.0113,-3.9952,-3.954,-3.8974,-3.8334,-3.7738,-3.7148,-3.6693,-3.6507,-3.6507,-3.6507,-3.6507,-3.6507,-3.6261,-3.5614,-3.5213,-3.4568,-3.3521,-3.3244,-3.2936,-3.2444,-3.2382,-3.2382,-3.2382,-3.2382,-3.2321,-3.2136,-3.2136,-3.2044,-3.189,-3.2044,-3.2136,-3.2136,-3.2321,-3.2382,-3.2382,-3.2382,-3.2382,-5.0031,-5.1536,-5.2637,-5.3115,-5.2601,-5.1621,-5.0253,-4.8504,-4.6432,-4.394,-4.2122,0.0,0.0,0.0,0.0,0.0,0.0,0.0,-5.0506,-5.0832,-5.098,0.0,-5.2063,0.0,-5.1725,-5.2063,-5.2266,0.0,-5.1826,-5.1792,-5.2266,-5.3078,-5.3518,-5.3518,-5.3518,-5.3518,-5.3518,-5.3518,-5.3518,-5.3518,-5.3518,-5.3281,-5.2807,-5.2029,-5.1285,-5.0541,0.0,-4.9289,-4.9018,-4.9018,-4.9018,-4.9018,-4.9018,-4.9018,-4.8917,-4.8142,-4.7665,-4.7124,-4.6075,-4.5432,-4.5026,-4.4716,-4.4615,-4.4513,-4.4045,-4.3673,-4.3308,-4.2895,-4.2252,-4.161,-4.1271,-4.0899,-4.0442,-3.984,-3.9722,-3.9566,-3.8947,-3.853,-3.8108,-3.7535,-3.6906,-3.6507,-3.6507,-3.6507,-3.6507,-3.6507,-3.6507,-3.6353,-3.5984,-3.5676,-3.5213,-3.4414,-3.4044,-3.3583,-3.2906,-3.2844,-3.2721,-3.2413,-3.2382,-3.2382,-3.2382,-3.2382,-3.2382,-3.2382,-3.2382,-3.2382,-3.2382,-3.2382,-3.2382,-3.2382,-3.2382,-3.2382,-5.172,-5.2674,-5.3203,-5.3203,-5.2417,-5.1096,-4.882,-4.7129,-4.5022,-4.1399,0.0,-3.8614,-3.7814,-3.7255,-3.8465,-4.3221,0.0,-4.5529,-5.1184,-5.0955,-5.0811,-5.2266,-5.2469,-5.2469,-5.2469,-5.2469,-5.2739,-5.345,-5.3518,-5.3213,-5.2503,-5.3112,-5.3518,-5.3518,-5.3518,-5.3518,-5.3518,-5.3518,-5.3518,-5.3518,-5.3518,-5.3518,-5.3484,-5.2672,-5.1961,-5.1319,-5.0473,0.0,-4.9154,-4.9052,-4.9018,-4.9018,-4.9018,-4.9018,-4.8917,-4.8277,-4.7973,-4.7703,-4.6312,-4.5771,-4.5568,-4.4852,-4.4615,-4.4615,-4.4615,-4.4113,-4.3572,-4.3572,-4.3031,-4.2286,-4.1677,-4.1287,-4.08,-3.9621,-3.9202,-3.8947,-3.839,-3.8222,-3.7994,-3.7417,-3.6877,-3.6507,-3.6507,-3.6507,-3.6507,-3.6507,-3.6507,-3.6507,-3.6507,-3.5984,-3.5614,-3.5521,-3.4998,-3.4351,-3.3614,-3.3552,-3.3244,-3.2567,-3.2536,-3.2475,-3.2382,-3.2382,-3.2382,-3.2382,-3.2382,-3.2382,-3.2382,-3.2382,-3.2382,-3.2382,-3.2382,-3.2382,-5.2564,-5.3093,-5.3203,-5.3203,-5.161,-4.9721,-4.8563,-4.4545,0.0,0.0,0.0,-3.5254,-3.4416,-3.615,0.0,-4.1308,0.0,0.0,0.0,0.0,-5.1589,0.0,0.0,0.0,0.0,0.0,0.0,0.0,0.0,-5.345,-5.3315,-5.3416,-5.3518,-5.3518,-5.3518,-5.3518,-5.3518,-5.3518,-5.3518,-5.3518,-5.3518,-5.3518,-5.3484,-5.2672,-5.2232,-5.2029,-5.0676,0.0,-4.9864,-4.9255,-4.9018,-4.9018,-4.9018,-4.9018,-4.8984,-4.8849,-4.8443,-4.78,-4.6921,-4.621,-4.5568,-4.4852,-4.4615,-4.4615,-4.4615,-4.4513,-4.4384,-4.4384,-4.3809,-4.32,-4.3037,-4.1735,-4.0413,-4.0171,-3.9265,-3.8418,-3.8306,-3.7911,-3.7387,-3.6785,-3.6569,-3.6507,-3.6507,-3.6507,-3.6507,-3.6507,-3.6507,-3.6507,-3.6507,-3.6384,-3.6107,-3.5583,-3.5398,-3.5059,-3.4382,-3.432,-3.4012,-3.3275,-3.3244,-3.2967,-3.2413,-3.2382,-3.2382,-3.2382,-3.2382,-3.2382,-3.2382,-3.2382,-3.2382,-3.2382,-3.2382,-3.2382,-5.2894,-5.3203,-5.3093,-5.2674,-5.1059,-4.8893,-4.6361,0.0,0.0,0.0,0.0,-3.2653,-3.2248,0.0,0.0,0.0,0.0,0.0,0.0,0.0,0.0,0.0,0.0,0.0,0.0,0.0,0.0,0.0,0.0,-5.3518,-5.3518,-5.3518,-5.3518,-5.3518,-5.3518,-5.3518,-5.3518,-5.3518,-5.3518,-5.3518,-5.3518,-5.3518,-5.3484,-5.3112,-5.2706,-5.2232,-5.115,0.0,-5.0033,-4.9289,-4.9018,-4.9018,-4.9018,-4.9018,-4.9018,-4.9018,-4.8781,-4.8376,-4.7631,-4.6887,-4.6143,-4.5399,-4.4891,-4.4615,-4.4615,-4.4615,-4.4615,-4.4615,-4.4316,-4.3944,-4.3538,-4.2644,-4.1577,-4.017,-3.8566,-3.7356,-3.7356,-3.7148,-3.6846,-3.6538,-3.6507,-3.6507,-3.6507,-3.6507,-3.6507,-3.6507,-3.6507,-3.6507,-3.6507,-3.6507,-3.6384,-3.6045,-3.6014,-3.5737,-3.509,-3.5028,-3.472,-3.4014,-3.3952,-3.3858,-3.3519,-3.3488,-3.3488,-3.3488,-3.3488,-3.3488,-3.3488,-3.3488,-3.3275,-3.2936,-3.3306,-3.3275,-5.2674,-5.3057,-5.3004,-5.2197,-5.0472,-4.8012,-4.4359,-4.0354,0.0,0.0,-3.1365,-3.0591,-3.0848,0.0,0.0,0.0,0.0,0.0,0.0,0.0,0.0,0.0,0.0,0.0,0.0,0.0,0.0,0.0,0.0,0.0,-5.3518,-5.3518,-5.3518,-5.3518,-5.3518,-5.3518,-5.3518,-5.3518,-5.3518,-5.3518,-5.3518,-5.3518,-5.3518,-5.3518,-5.3179,-5.2503,-5.1623,0.0,0.0,-4.9357,-4.9018,-4.9018,-4.9018,-4.9018,-4.9018,-4.9018,-4.9018,-4.8883,-4.8173,-4.753,-4.6857,-4.5828,-4.5081,-4.4587,-4.4412,-4.4384,-4.4355,-4.4179,-4.415,-4.4016,-4.3384,-4.3003,-4.2161,-3.978,-3.7931,-3.6692,-3.6692,-3.6599,-3.6507,-3.6507,-3.6507,-3.6507,-3.6507,-3.6507,-3.6507,-3.6507,-3.6507,-3.6507,-3.6507,-3.6507,-3.6507,-3.6507,-3.6507,-3.6292,-3.5737,-3.5707,-3.5429,-3.4751,-3.472,-3.4659,-3.4505,-3.4505,-3.4505,-3.4505,-3.4505,-3.4505,-3.4505,-3.4505,-3.4197,-3.3644,-3.4227,-3.4197,-5.1683,-5.2637,-5.3004,-5.2197,-4.9627,-4.6636,-4.4085,0.0,0.0,-3.2652,-3.0493,-2.916,-3.032,-3.1498,0.0,0.0,0.0,0.0,0.0,0.0,0.0,0.0,0.0,0.0,0.0,0.0,0.0,0.0,0.0,0.0,-5.3518,-5.3518,-5.3518,-5.3518,-5.3518,-5.3518,-5.3518,-5.3518,-5.3518,-5.3518,-5.3518,-5.3518,-5.3518,-5.3518,-5.345,-5.3315,-5.186,0.0,0.0,-4.9593,-4.9018,-4.9018,-4.9018,-4.9018,-4.9018,-4.9018,-4.9018,-4.8883,-4.8173,-4.7838,-4.7443,-4.5457,-4.47,-4.4468,-4.3794,-4.3617,-4.3466,-4.2862,-4.2707,-4.2676,-4.2579,-4.1658,-4.0388,-3.8928,-3.7989,-3.74,-3.74,-3.6938,-3.6507,-3.6507,-3.6507,-3.6507,-3.6507,-3.6507,-3.6507,-3.6507,-3.6507,-3.6507,-3.6507,-3.6507,-3.6507,-3.6507,-3.6507,-3.6476,-3.6415,-3.6415,-3.6107,-3.546,-3.5429,-3.5152,-3.4536,-3.4505,-3.4505,-3.4505,-3.4505,-3.4505,-3.4505,-3.4505,-3.4474,-3.4412,-3.4474,-3.4474,-5.0582,-5.1867,-5.227,-5.1463,-4.9148,-4.614,-4.2785,0.0,-3.3231,-3.1906,-2.9836,-2.8738,-3.0232,-3.0861,-3.2083,0.0,-3.5126,-3.666,0.0,0.0,0.0,0.0,0.0,0.0,0.0,0.0,0.0,0.0,0.0,0.0,-5.3518,-5.3518,-5.3518,-5.3518,-5.3518,-5.3518,-5.3518,-5.3518,-5.3518,-5.3518,-5.3518,-5.3518,-5.3518,-5.3518,-5.3518,-5.3416,-5.1894,0.0,0.0,-4.9627,-4.9018,-4.9018,-4.9018,-4.9018,-4.9018,-4.9018,-4.9018,-4.8951,-4.868,-4.8274,-4.7673,-4.6387,-4.5635,-4.499,-4.3391,-4.2892,-4.2831,-4.2583,-4.252,-4.252,-4.252,-4.1501,-4.0355,-3.9846,-3.8896,-3.7984,-3.7584,-3.7277,-3.6969,-3.6569,-3.6507,-3.6507,-3.6507,-3.6507,-3.6507,-3.6507,-3.6507,-3.6507,-3.6507,-3.6507,-3.6507,-3.6507,-3.6507,-3.6507,-3.6507,-3.6507,-3.6384,-3.6107,-3.6076,-3.5984,-3.5707,-3.5706,-3.5706,-3.5706,-3.5706,-3.5706,-3.5706,-3.5706,-3.5521,-3.5121,-3.5521,-3.543,-4.8874,-5.0472,-5.1096,-5.0288,-4.8175,-4.5279,0.0,0.0,-3.2811,-3.1706,-2.9678,-2.8628,-3.0366,-3.0573,-3.1139,-3.3156,-3.3189,-3.4438,-3.8734,0.0,0.0,0.0,0.0,0.0,0.0,0.0,0.0,0.0,0.0,0.0,-5.3518,-5.3518,-5.3518,-5.3518,-5.3518,-5.3518,-5.3518,-5.3518,-5.3518,-5.3518,-5.3518,-5.3518,-5.3518,-5.3518,-5.3518,-5.3416,-5.1894,0.0,0.0,-4.9627,-4.9018,-4.9018,-4.9018,-4.9018,-4.9018,-4.9018,-4.8861,-4.8671,-4.8671,-4.8178,-4.7423,-4.65,-4.5706,-4.4762,-4.2816,-4.2366,-4.2426,-4.2013,-4.1885,-4.1885,-4.1885,-4.1211,-4.0473,-4.0473,-3.9643,-3.8692,-3.82,-3.7769,-3.7369,-3.6876,-3.663,-3.6507,-3.6507,-3.6507,-3.6507,-3.6507,-3.6507,-3.6507,-3.6507,-3.6507,-3.6507,-3.6507,-3.6507,-3.6507,-3.6507,-3.6507,-3.6507,-3.6507,-3.6507,-3.6507,-3.6507,-3.6507,-3.6507,-3.6507,-3.6507,-3.6507,-3.6507,-3.6507,-3.6261,-3.5799,-3.623,-3.6044,-4.647,-4.8343,-4.9427,-4.8526,-4.6452,-4.3778,0.0,-3.5914,-3.2324,-3.2274,-3.0038,-2.8699,-3.0737,-3.0786,-3.0893,-3.2116,-3.3546,-3.5791,-3.9555,0.0,0.0,0.0,0.0,0.0,0.0,0.0,0.0,0.0,0.0,0.0,-5.3518,-5.3518,-5.3518,-5.3518,-5.3518,-5.3518,-5.3518,-5.3518,-5.3518,-5.3518,-5.3518,-5.3518,-5.3518,-5.3518,-5.3518,0.0,0.0,0.0,0.0,-4.9627,-4.9018,-4.9018,-4.9018,-4.9018,-4.9018,-4.9018,-4.8545,-4.7901,-4.7901,-4.7406,-4.6595,-4.5193,-4.425,-4.345,-4.2054,-4.2027,-4.2237,-4.0888,-4.0539,-4.0539,-4.0539,-4.0509,-4.0474,-4.0474,-3.9985,-3.9459,-3.9459,-3.8446,-3.7492,-3.7492,-3.6938,-3.6507,-3.6507,-3.6507,-3.6507,-3.6507,-3.6507,-3.6507,-3.6507,-3.6507,-3.6507,-3.6507,-3.6507,-3.6507,-3.6507,-3.6507,-3.6507,-3.6507,-3.6507,-3.6507,-3.6507,-3.6507,-3.6507,-3.6507,-3.6507,-3.6507,-3.6507,-3.6507,-3.6507,-3.6476,-3.629,-3.6133,-4.217,-4.4035,-4.5095,-4.4254,-4.2994,-4.1245,-3.8567,-3.5415,-3.306,-3.306,-3.1056,-2.9855,-3.1598,-3.1404,-3.1749,-3.4189,-3.4945,0.0,0.0,0.0,0.0,0.0,0.0,0.0,0.0,0.0,0.0,0.0,0.0,0.0,-5.3518,-5.3518,-5.3518,-5.3518,-5.3518,-5.3518,-5.3518,-5.3518,-5.3518,-5.3518,-5.3518,-5.3518,-5.3518,-5.3518,-5.3518,0.0,0.0,0.0,0.0,-4.8858,-4.7967,-4.7505,-4.7505,-4.7505,-4.7505,-4.7505,-4.7372,-4.7137,-4.7137,-4.6999,-4.6629,-4.5713,-4.5259,-4.4705,-4.2842,-4.1721,-4.1057,-4.0612,-4.0505,-4.0505,-4.0505,-4.0505,-4.0505,-4.0505,-4.032,-4.0043,-3.9582,-3.9185,-3.86,-3.7677,-3.7338,-3.703,-3.6569,-3.6507,-3.6507,-3.6507,-3.6507,-3.6507,-3.6507,-3.6507,-3.6507,-3.6507,-3.6507,-3.6507,-3.6507,-3.6507,-3.6507,-3.6507,-3.6507,-3.6507,-3.6507,-3.6507,-3.6507,-3.6507,-3.6507,-3.6507,-3.6507,-3.6507,-3.6414,-3.6289,-3.5975,-3.5847,0.0,-4.0713,-4.1844,-4.1333,-4.0499,-3.914,-3.6739,-3.4407,-3.2652,-3.2364,-3.0922,-3.0123,-3.1411,-3.1411,-3.1901,-3.3998,-3.4607,0.0,0.0,0.0,0.0,0.0,0.0,0.0,0.0,0.0,0.0,0.0,0.0,0.0,-5.3518,-5.3518,-5.3518,-5.3518,-5.3518,-5.3518,-5.3518,-5.3518,-5.3518,-5.3518,-5.3518,-5.3518,-5.3518,-5.3518,-5.3518,0.0,0.0,0.0,0.0,-4.8531,-4.7473,-4.6828,-4.6828,-4.6828,-4.6828,-4.6828,-4.662,-4.6378,-4.6378,-4.6198,-4.5889,-4.544,-4.5091,-4.4576,-4.2768,-4.141,-4.0505,-4.0505,-4.0505,-4.0505,-4.0505,-4.0505,-4.0505,-4.0505,-4.0505,-4.0382,-3.9951,-3.9674,-3.9244,-3.8415,-3.7861,-3.7369,-3.6938,-3.6661,-3.6507,-3.6507,-3.6507,-3.6507,-3.6507,-3.6507,-3.6507,-3.6507,-3.6507,-3.6507,-3.6507,-3.6507,-3.6507,-3.6507,-3.6507,-3.6507,-3.6507,-3.6507,-3.6507,-3.6507,-3.6507,-3.6445,-3.6383,-3.632,-3.6226,-3.6006,-3.5816,-3.5655,0.0,0.0,0.0,0.0,-3.8405,-3.716,-3.4796,-3.2847,0.0,-3.0606,-2.9846,-2.9627,-3.0594,-3.1056,-3.1596,-3.253,0.0,0.0,0.0,0.0,0.0,0.0,0.0,0.0,0.0,0.0,0.0,0.0,0.0,0.0,-5.3518,-5.3518,-5.3518,-5.3518,-5.3518,-5.3518,-5.3518,-5.3518,-5.3518,-5.3518,-5.3518,-5.3518,-5.3518,-5.3518,-5.3518,0.0,0.0,0.0,0.0,-4.8431,-4.7339,-4.6655,-4.6655,-4.6655,-4.6655,-4.6655,-4.6234,-4.5624,-4.5624,-4.5179,-4.461,-4.461,-4.4148,-4.3377,-4.2109,-4.1217,-4.0566,-4.0505,-4.0505,-4.0505,-4.0505,-4.0505,-4.0505,-4.0505,-4.0505,-4.0505,-4.0505,-4.0013,-3.9551,-3.949,-3.8508,-3.7615,-3.7584,-3.6999,-3.6569,-3.6569,-3.6507,-3.6507,-3.6507,-3.6507,-3.6507,-3.6507,-3.6507,-3.6507,-3.6507,-3.6507,-3.6507,-3.6507,-3.6507,-3.6507,-3.6507,-3.6507,-3.6507,-3.6507,-3.6507,-3.6383,-3.6196,-3.6068,-3.591,-3.5688,-3.5688,-3.5621,-3.0589,0.0,-3.29,-3.2282,-3.2413,-3.224,0.0,-2.9994,-2.9948,-2.9976,0.0,0.0,-3.2178,-3.2318,0.0,0.0,0.0,0.0,0.0,0.0,0.0,0.0,0.0,0.0,0.0,0.0,0.0,0.0,0.0,-5.3518,-5.3518,-5.3518,-5.3518,-5.3518,-5.3518,-5.3518,-5.3518,-5.3518,-5.3518,-5.3518,-5.3518,-5.3518,-5.3518,-5.3518,-5.3518,0.0,0.0,0.0,-4.9124,-4.7688,-4.6272,-4.5104,-4.5104,-4.5104,-4.5104,-4.5104,-4.4993,-4.4874,-4.4874,-4.4761,-4.461,-4.461,-4.4148,-4.3562,-4.3254,-4.2294,-4.1247,-4.0659,-4.0505,-4.0505,-4.0505,-4.0505,-4.0505,-4.0505,-4.0505,-4.0505,-4.0505,-4.0382,-4.0105,-3.9582,-3.9244,-3.8877,-3.8354,-3.7707,-3.7246,-3.7246,-3.6815,-3.6507,-3.6507,-3.6507,-3.6507,-3.6507,-3.6507,-3.6507,-3.6507,-3.6507,-3.6507,-3.6507,-3.6507,-3.6507,-3.6507,-3.6507,-3.6507,-3.6507,-3.6507,-3.6383,-3.6196,-3.6068,-3.591,-3.5688,-3.5589,-3.5522,-2.8348,-3.008,-3.1758,-3.1326,-3.1679,-3.1735,-3.0332,0.0,0.0,0.0,0.0,0.0,0.0,0.0,0.0,0.0,0.0,0.0,0.0,0.0,0.0,0.0,0.0,0.0,0.0,0.0,0.0,0.0,0.0,-5.3518,-5.3518,-5.3518,-5.3518,-5.3518,-5.3518,-5.3518,-5.3518,-5.3518,-5.3518,-5.3518,-5.3518,-5.3518,-5.3518,-5.3518,-5.3518,0.0,0.0,0.0,-4.8907,-4.741,-4.5949,-4.461,-4.461,-4.461,-4.461,-4.461,-4.461,-4.461,-4.461,-4.461,-4.461,-4.461,-4.4363,-4.4024,-4.3685,-4.31,-4.2294,-4.1309,-4.0751,-4.0505,-4.0505,-4.0505,-4.0505,-4.0505,-4.0505,-4.0505,-4.0505,-4.0505,-4.0382,-4.0013,-3.9705,-3.9367,-3.9031,-3.8415,-3.7954,-3.7954,-3.74,-3.6969,-3.6969,-3.6692,-3.6507,-3.6507,-3.6507,-3.6507,-3.6507,-3.6507,-3.6507,-3.6507,-3.6507,-3.6507,-3.6507,-3.6507,-3.6507,-3.6507,-3.6352,-3.6226,-3.6132,-3.5878,-3.5686,-3.5589,-3.5522,-3.5519,-2.7971,-3.0427,-3.277,-3.2212,-3.2542,-3.2685,-3.151,0.0,0.0,0.0,0.0,0.0,0.0,0.0,0.0,0.0,0.0,0.0,0.0,0.0,0.0,0.0,0.0,0.0,0.0,0.0,0.0,0.0,0.0,-5.3518,-5.3518,-5.3518,-5.3518,-5.3518,-5.3518,-5.3518,-5.3518,-5.3518,-5.3518,-5.3518,-5.3518,-5.3518,-5.3518,-5.3518,-5.3518,-5.3416,0.0,0.0,-4.8907,-4.7306,-4.5841,-4.461,-4.461,-4.461,-4.461,-4.461,-4.461,-4.461,-4.461,-4.461,-4.461,-4.461,-4.461,-4.4517,-4.3932,-4.3685,-4.3377,-4.2232,-4.1309,-4.0628,-4.0536,-4.0505,-4.0505,-4.0505,-4.0505,-4.0505,-4.0505,-4.0505,-4.0505,-4.0505,-4.0043,-3.9644,-3.9644,-3.9123,-3.8662,-3.8662,-3.8077,-3.7646,-3.7646,-3.7061,-3.663,-3.663,-3.6569,-3.6507,-3.6507,-3.6507,-3.6507,-3.6507,-3.6507,-3.6507,-3.6507,-3.6507,-3.6507,-3.6507,-3.6195,-3.6037,-3.6005,-3.5683,-3.5522,-3.5519,-3.5519,-3.5519,-2.9222,-3.1276,-3.2177,-2.9164,-2.9843,-3.0915,-2.9413,0.0,0.0,0.0,0.0,0.0,0.0,0.0,0.0,0.0,0.0,0.0,0.0,0.0,0.0,0.0,0.0,0.0,0.0,0.0,0.0,0.0,0.0,-5.3518,-5.3518,-5.3518,-5.3518,-5.3518,-5.3518,-5.3518,-5.3518,-5.3518,-5.3518,-5.3518,-5.3518,-5.3518,-5.3518,-5.3518,-5.3518,-5.3382,0.0,-4.978,-4.8871,-4.6738,-4.54,-4.461,-4.461,-4.461,-4.461,-4.461,-4.461,-4.461,-4.461,-4.461,-4.461,-4.461,-4.461,-4.4579,-4.4486,-4.4055,-4.3562,-4.3347,-4.2386,-4.1309,-4.0659,-4.0505,-4.0505,-4.0505,-4.0505,-4.0505,-4.0505,-4.0505,-4.0505,-4.0505,-4.0413,-4.0351,-4.0351,-3.9767,-3.9336,-3.9336,-3.8785,-3.8354,-3.8354,-3.7769,-3.7338,-3.7338,-3.6846,-3.6507,-3.6507,-3.6507,-3.6507,-3.6507,-3.6507,-3.6507,-3.6507,-3.6507,-3.6507,-3.6507,-3.6289,-3.6132,-3.6005,-3.5782,-3.5621,-3.5519,-3.5519,-3.5519,-2.7977,-2.9782,-3.1075,-2.9848,-3.1808,-3.3731,-3.2452,0.0,0.0,0.0,0.0,0.0,0.0,0.0,0.0,0.0,0.0,0.0,0.0,0.0,0.0,0.0,0.0,0.0,0.0,0.0,0.0,0.0,0.0,0.0,-5.3518,-5.3518,-5.3518,-5.3518,-5.3518,-5.3518,-5.3518,-5.3518,-5.3518,-5.3518,-5.3518,-5.328,-5.2868,-5.3314,-5.3007,-5.2137,0.0,-4.9433,-4.8221,-4.6448,-4.529,-4.461,-4.461,-4.461,-4.461,-4.461,-4.461,-4.461,-4.461,-4.461,-4.461,-4.461,-4.461,-4.461,-4.461,-4.4394,-4.4086,-4.3716,-4.2633,-4.1524,-4.1186,-4.0782,-4.0505,-4.0505,-4.0505,-4.0505,-4.0505,-4.0505,-4.0505,-4.0505,-4.0505,-4.0505,-4.0505,-4.0228,-4.0043,-4.0043,-3.9459,-3.9062,-3.9062,-3.8477,-3.8046,-3.8046,-3.743,-3.703,-3.703,-3.6692,-3.6507,-3.6507,-3.6507,-3.6507,-3.6507,-3.6507,-3.6445,-3.6352,-3.6195,-3.6037,-3.5816,-3.5686,-3.5554,-3.5519,-3.5519,-3.5519,-2.73,-2.8789,-3.0378,-3.1427,0.0,-3.5965,-3.6061,-3.5419,0.0,0.0,0.0,0.0,0.0,0.0,0.0,0.0,0.0,0.0,0.0,0.0,0.0,0.0,0.0,0.0,0.0,0.0,0.0,0.0,0.0,0.0,-5.3518,-5.3518,-5.3518,-5.3518,-5.3518,-5.3518,-5.3518,-5.3518,-5.3518,-5.3518,-5.3314,-5.2903,-5.2307,-5.2731,-5.2175,-5.0821,-4.9919,-4.8803,-4.7441,-4.6019,-4.5104,-4.461,-4.461,-4.461,-4.461,-4.461,-4.461,-4.461,-4.461,-4.461,-4.461,-4.461,-4.461,-4.461,-4.461,-4.461,-4.4517,-4.3994,-4.3008,-4.1986,-4.1678,-4.1186,-4.0689,-4.0536,-4.0505,-4.0505,-4.0505,-4.0505,-4.0505,-4.0505,-4.0505,-4.0505,-4.0505,-4.0505,-4.0505,-4.0505,-4.0043,-3.9705,-3.9705,-3.9154,-3.8754,-3.8754,-3.8138,-3.7738,-3.7738,-3.7123,-3.6722,-3.6722,-3.6569,-3.6476,-3.6414,-3.6414,-3.6352,-3.6163,-3.6005,-3.5847,-3.5688,-3.5587,-3.5519,-3.5519,-3.5519,-3.5519,-2.9075,-2.9973,-3.0615,-3.2713,-3.3431,0.0,-3.796,-3.8139,0.0,-4.1102,0.0,0.0,0.0,0.0,0.0,0.0,0.0,0.0,0.0,0.0,0.0,0.0,0.0,0.0,0.0,0.0,0.0,0.0,0.0,0.0,-5.3518,-5.3518,-5.3518,-5.3518,-5.3518,-5.3518,-5.3518,-5.3518,-5.3518,-5.3518,-5.2764,-5.2343,-5.2272,-5.1586,-5.083,-5.0006,-4.8563,-4.7559,-4.6777,-4.5304,-4.4648,-4.461,-4.461,-4.461,-4.461,-4.461,-4.461,-4.461,-4.461,-4.461,-4.461,-4.461,-4.461,-4.461,-4.461,-4.461,-4.461,-4.4548,-4.4024,-4.3193,-4.1925,-4.1555,-4.137,-4.0659,-4.0505,-4.0505,-4.0505,-4.0505,-4.0505,-4.0505,-4.0505,-4.0505,-4.0505,-4.0505,-4.0505,-4.0505,-4.0443,-4.0413,-4.0413,-3.9828,-3.9431,-3.9431,-3.8846,-3.8446,-3.8446,-3.78,-3.743,-3.743,-3.6846,-3.6414,-3.6227,-3.6196,-3.6163,-3.6037,-3.5816,-3.572,-3.5688,-3.5587,-3.5519,-3.5519,-3.5519,-3.5519,-2.7537,-2.9025,-3.0514,-3.2273,-3.3761,0.0,0.0,-3.9851,-4.1204,-4.3301,-4.3504,0.0,0.0,0.0,0.0,0.0,0.0,0.0,0.0,0.0,0.0,0.0,0.0,0.0,0.0,0.0,0.0,0.0,0.0,0.0,-5.3518,-5.3518,-5.3518,-5.3518,-5.3518,-5.3518,-5.3518,-5.3518,-5.3246,-5.2764,-5.2449,-5.1769,-5.0838,-5.0995,-5.0153,-4.849,-4.7997,-4.7145,-4.5995,-4.5001,-4.461,-4.461,-4.461,-4.461,-4.461,-4.461,-4.461,-4.461,-4.461,-4.461,-4.461,-4.461,-4.461,-4.461,-4.461,-4.461,-4.461,-4.461,-4.4425,-4.4024,-4.3063,-4.254,-4.2048,-4.137,-4.1186,-4.1063,-4.0597,-4.0505,-4.0505,-4.0505,-4.0505,-4.0505,-4.0505,-4.0505,-4.0505,-4.0505,-4.0505,-4.0505,-4.0505,-4.0259,-4.0105,-4.0105,-3.9521,-3.897,-3.8539,-3.8262,-3.8138,-3.8138,-3.7092,-3.6445,-3.6383,-3.6289,-3.6133,-3.6005,-3.5784,-3.5655,-3.5587,-3.5522,-3.5519,-3.5519,-3.5519,-3.5519,-2.6928,-2.8721,-3.0818,0.0,0.0,0.0,-3.9478,-4.1204,-4.2929,-4.5162,-4.5263,0.0,0.0,0.0,0.0,0.0,0.0,0.0,0.0,0.0,0.0,0.0,0.0,0.0,0.0,0.0,0.0,0.0,0.0,0.0,0.0,-5.3518,-5.3518,-5.3518,-5.3518,-5.3518,-5.3518,-5.3518,-5.2838,-5.1553,-5.1553,-5.0992,-4.9908,-4.9967,-4.8985,-4.729,-4.7138,-4.6414,-4.5249,-4.4795,-4.461,-4.461,-4.461,-4.461,-4.461,-4.461,-4.461,-4.461,-4.461,-4.461,-4.461,-4.461,-4.461,-4.461,-4.461,-4.461,-4.461,-4.461,-4.461,-4.4517,-4.4055,-4.3402,-4.2756,-4.2078,-4.174,-4.1463,-4.097,-4.0659,-4.0505,-4.0505,-4.0505,-4.0505,-4.0505,-4.0505,-4.0505,-4.0505,-4.0505,-4.0505,-4.0505,-4.0505,-4.0505,-4.0505,-4.0074,-3.9613,-3.9152,-3.8939,-3.8816,-3.8816,-3.7769,-3.6999,-3.6752,-3.6318,-3.6038,-3.591,-3.575,-3.5589,-3.5519,-3.5519,-3.5519,-3.5519,-3.5519,-3.5519,-2.779,-2.9465,0.0,0.0,0.0,0.0,-4.1644,-4.232,-4.3369,-4.7158,0.0,0.0,0.0,0.0,0.0,0.0,0.0,0.0,0.0,0.0,0.0,0.0,0.0,0.0,0.0,0.0,0.0,0.0,0.0,0.0,0.0,-5.3484,-5.3484,-5.3484,-5.3484,-5.3484,-5.3484,-5.3484,-5.2295,-5.001,-4.9973,-4.9952,-4.9837,-4.8302,-4.7219,-4.6542,-4.5865,-4.5218,-4.461,-4.461,-4.461,-4.461,-4.461,-4.461,-4.461,-4.461,-4.461,-4.461,-4.461,-4.461,-4.461,-4.461,-4.461,-4.461,-4.461,-4.461,-4.461,-4.461,-4.461,-4.461,-4.461,-4.4117,-4.3439,-4.2786,-4.2109,-4.1617,-4.1586,-4.1032,-4.0505,-4.0505,-4.0505,-4.0505,-4.0505,-4.0505,-4.0505,-4.0505,-4.0505,-4.0505,-4.0505,-4.0505,-4.0505,-4.0505,-4.0505,-4.0505,-4.0505,-3.989,-3.949,-3.949,-3.8877,-3.8102,-3.7235,-3.6434,-3.591,-3.572,-3.5587,-3.5519,-3.5519,-3.5519,-3.5519,-3.5519,-3.5519,-3.5519,-2.779,0.0,0.0,0.0,0.0,0.0,0.0,-4.391,0.0,0.0,0.0,0.0,0.0,0.0,0.0,0.0,0.0,0.0,0.0,0.0,0.0,0.0,0.0,0.0,0.0,0.0,0.0,0.0,0.0,0.0,0.0,-5.2976,-5.2672,-5.2672,-5.2164,-5.1894,-5.1894,-5.1363,-5.0481,-4.9224,-4.8711,-4.8162,-4.7556,-4.7093,-4.6511,-4.5865,-4.568,-4.5218,-4.461,-4.461,-4.461,-4.461,-4.461,-4.461,-4.461,-4.461,-4.461,-4.461,-4.461,-4.461,-4.461,-4.461,-4.461,-4.461,-4.461,-4.461,-4.461,-4.461,-4.461,-4.461,-4.461,-4.4456,-4.4148,-4.3433,-4.3162,-4.2761,-4.1801,-4.1432,-4.1124,-4.0597,-4.0505,-4.0505,-4.0505,-4.0505,-4.0505,-4.0505,-4.0505,-4.0505,-4.0505,-4.0505,-4.0505,-4.0505,-4.0505,-4.0505,-4.0505,-4.032,-4.0197,-4.0197,-3.9551,-3.8875,-3.8133,-3.7787,-3.7288,-3.6639,-3.6444,-3.6069,-3.5519,-3.5519,-3.5519,-3.5519,-3.5519,-3.5519,-2.9785,0.0,0.0,0.0,0.0,0.0,0.0,0.0,0.0,0.0,0.0,0.0,0.0,0.0,0.0,0.0,0.0,0.0,0.0,0.0,0.0,0.0,0.0,0.0,0.0,0.0,0.0,0.0,0.0,0.0,0.0,-5.2131,-5.186,-5.186,-5.1159,-5.0891,-5.1185,-5.0157,-4.9267,-4.8479,-4.7754,-4.6837,-4.5803,-4.608,-4.5988,-4.5588,-4.5311,-4.4941,-4.461,-4.461,-4.461,-4.461,-4.461,-4.461,-4.461,-4.461,-4.461,-4.461,-4.461,-4.461,-4.461,-4.461,-4.461,-4.461,-4.461,-4.461,-4.461,-4.461,-4.461,-4.461,-4.461,-4.461,-4.4517,-4.4086,-4.3809,-4.3377,-4.2571,-4.1986,-4.1463,-4.1032,-4.0689,-4.0505,-4.0505,-4.0505,-4.0505,-4.0505,-4.0505,-4.0505,-4.0505,-4.0505,-4.0505,-4.0505,-4.0505,-4.0505,-4.0505,-4.0505,-4.0505,-4.0505,-4.0105,-3.9705,-3.9238,-3.8616,-3.8025,-3.7433,-3.7204,-3.6827,-3.6267,-3.5998,-3.5908,-3.5878,-3.5639,-3.5519,-3.2645,0.0,0.0,0.0,0.0,0.0,0.0,0.0,0.0,0.0,0.0,0.0,0.0,0.0,0.0,0.0,0.0,0.0,0.0,0.0,0.0,0.0,0.0,0.0,0.0,0.0,0.0,0.0,0.0,0.0,0.0,-5.115,-5.1083,-5.1083,-5.0326,-5.0226,-5.0918,-4.9444,-4.8379,-4.7696,-4.6943,-4.5922,-4.4641,-4.5218,-4.5495,-4.5464,-4.4849,-4.461,-4.461,-4.461,-4.461,-4.461,-4.461,-4.461,-4.461,-4.461,-4.461,-4.461,-4.461,-4.461,-4.461,-4.461,-4.461,-4.461,-4.461,-4.461,-4.461,-4.461,-4.461,-4.461,-4.461,-4.461,-4.461,-4.461,-4.4148,-4.3685,-4.3624,-4.2633,-4.174,-4.1617,-4.1063,-4.0566,-4.0505,-4.0505,-4.0505,-4.0505,-4.0505,-4.0505,-4.0505,-4.0505,-4.0505,-4.0505,-4.0505,-4.0505,-4.0505,-4.0505,-4.0505,-4.0505,-4.0505,-4.0436,-4.0296,-3.9134,-3.836,-3.8065,-3.7865,-3.7665,-3.7404,-3.6836,-3.6567,-3.6567,-3.5968,-3.5669,0.0,-3.4303,0.0,0.0,0.0,0.0,0.0,0.0,0.0,0.0,0.0,0.0,0.0,0.0,0.0,0.0,0.0,0.0,0.0,0.0,0.0,0.0,0.0,0.0,0.0,0.0,0.0,0.0,0.0,0.0,-5.1185,-5.0642,-5.0338,-5.0338,-4.9057,-4.8464,-4.8594,-4.7144,-4.6335,0.0,-4.5434,-4.4885,-4.461,-4.4764,-4.4825,-4.4825,-4.4671,-4.461,-4.461,-4.461,-4.461,-4.461,-4.461,-4.461,-4.461,-4.461,-4.461,-4.461,-4.461,-4.461,-4.461,-4.461,-4.461,-4.461,-4.461,-4.461,-4.461,-4.461,-4.461,-4.461,-4.461,-4.461,-4.461,-4.461,-4.4517,-4.424,-4.3716,-4.3377,-4.2884,-4.1801,-4.1463,-4.1186,-4.0597,-4.0505,-4.0505,-4.0505,-4.0505,-4.0505,-4.0505,-4.0505,-4.0505,-4.0505,-4.0505,-4.0505,-4.0505,-4.0505,-4.0505,-4.0505,-4.0401,-4.0331,-4.0296,-4.0021,-3.9451,-3.856,-3.8491,-3.8116,-3.7404,-3.7285,-3.7225,-3.7195,-3.7075,-3.7015,0.0,0.0,0.0,0.0,0.0,0.0,0.0,0.0,0.0,0.0,0.0,0.0,0.0,0.0,0.0,0.0,0.0,0.0,0.0,0.0,0.0,0.0,0.0,0.0,0.0,0.0,0.0,0.0,0.0,-5.0168,-5.0168,-4.9796,-4.956,-4.956,-4.8133,-4.7539,-4.7901,-4.6095,-4.5363,-4.5697,-4.4955,-4.461,-4.461,-4.461,-4.461,-4.461,-4.461,-4.461,-4.461,-4.461,-4.461,-4.461,-4.461,-4.461,-4.461,-4.461,-4.461,-4.461,-4.461,-4.461,-4.461,-4.461,-4.461,-4.461,-4.461,-4.461,-4.461,-4.461,-4.461,-4.461,-4.461,-4.461,-4.461,-4.461,-4.461,-4.4517,-4.4148,-4.384,-4.3408,-4.2663,-4.2048,-4.1494,-4.1093,-4.072,-4.0505,-4.0505,-4.0505,-4.0505,-4.0505,-4.0505,-4.0505,-4.0505,-4.0505,-4.0505,-4.0505,-4.0505,-4.0505,-4.0505,-4.0366,-4.0292,-4.0187,-4.0051,-3.9758,-3.9184,-3.9184,-3.8898,-3.8362,-3.8033,-3.7883,-3.7883,-3.7554,-3.7198,0.0,0.0,0.0,0.0,0.0,0.0,0.0,0.0,0.0,0.0,0.0,0.0,0.0,0.0,0.0,0.0,0.0,0.0,0.0,0.0,0.0,0.0,0.0,0.0,0.0,0.0,0.0,0.0,0.0,-4.9018,-4.9018,-4.9018,-4.8923,-4.8829,-4.7505,-4.7001,-4.7506,-4.5588,-4.488,-4.5478,-4.488,-4.461,-4.461,-4.461,-4.461,-4.461,-4.461,-4.461,-4.461,-4.461,-4.461,-4.461,-4.461,-4.461,-4.461,-4.461,-4.461,-4.461,-4.461,-4.461,-4.461,-4.461,-4.461,-4.461,-4.461,-4.461,-4.461,-4.461,-4.461,-4.461,-4.461,-4.461,-4.461,-4.461,-4.461,-4.461,-4.461,-4.4178,-4.3747,-4.3624,-4.2602,-4.174,-4.1617,-4.1093,-4.0628,-4.0505,-4.0505,-4.0505,-4.0505,-4.0505,-4.0505,-4.0505,-4.0505,-4.0505,-4.0505,-4.0505,-4.0505,-4.0505,-4.0331,-4.0156,-4.0011,-3.9768,-3.9661,-3.9661,-3.9661,-3.9553,-3.9373,-3.8698,-3.8394,-3.8365,-3.7623,-3.6969,0.0,0.0,0.0,0.0,0.0,0.0,0.0,0.0,0.0,0.0,0.0,0.0,0.0,0.0,0.0,0.0,0.0,0.0,0.0,0.0,0.0,0.0,0.0,0.0,0.0,0.0,0.0,0.0,-4.9018,-4.9018,-4.9018,-4.9018,-4.8704,-4.8064,-4.7271,-4.6518,-4.602,-4.5067,-4.4648,-4.4761,-4.4648,-4.461,-4.461,-4.461,-4.461,-4.461,-4.461,-4.461,-4.461,-4.461,-4.461,-4.461,-4.461,-4.461,-4.461,-4.461,-4.461,-4.461,-4.461,-4.461,-4.461,-4.461,-4.461,-4.461,-4.461,-4.461,-4.461,-4.461,-4.461,-4.461,-4.461,-4.461,-4.461,-4.461,-4.461,-4.461,-4.461,-4.4548,-4.4302,-4.3716,-4.2971,-4.2294,-4.1709,-4.1524,-4.1247,-4.0597,-4.0505,-4.0505,-4.0505,-4.0505,-4.0505,-4.0505,-4.0505,-4.0505,-4.0505,-4.0505,-4.0505,-4.0505,-4.0191,-4.0046,-4.0011,-3.9625,-3.9445,-3.9445,-3.9445,-3.9409,-3.9373,-3.8598,-3.8235,-3.8206,-3.7348,-3.691,0.0,0.0,0.0,0.0,0.0,0.0,0.0,0.0,0.0,0.0,0.0,0.0,0.0,0.0,0.0,0.0,0.0,0.0,0.0,0.0,0.0,0.0,0.0,0.0,0.0,0.0,0.0,0.0,-4.9018,-4.8829,-4.8418,-4.8386,-4.8032,-4.7305,-4.6553,-4.602,-4.5697,-4.4955,-4.461,-4.461,-4.461,-4.461,-4.461,-4.461,-4.461,-4.461,-4.461,-4.461,-4.461,-4.461,-4.461,-4.461,-4.461,-4.461,-4.461,-4.461,-4.461,-4.461,-4.461,-4.461,-4.461,-4.461,-4.461,-4.461,-4.461,-4.461,-4.461,-4.461,-4.461,-4.461,-4.461,-4.461,-4.461,-4.461,-4.461,-4.461,-4.461,-4.461,-4.4425,-4.3747,-4.3377,-4.294,-4.2294,-4.2171,-4.2048,-4.174,-4.1709,-4.1555,-4.1186,-4.1124,-4.097,-4.0536,-4.0505,-4.0505,-4.0505,-4.0505,-4.0505,-4.0505,-4.0296,-4.0117,-4.0011,-3.9696,-3.9517,-3.9373,-3.9373,-3.9373,-3.9373,-3.8575,-3.8202,-3.8165,-3.7309,-3.666,0.0,0.0,0.0,0.0,0.0,0.0,0.0,0.0,0.0,0.0,0.0,0.0,0.0,0.0,0.0,0.0,0.0,0.0,0.0,0.0,0.0,0.0,0.0,0.0,0.0,0.0,0.0,0.0,-4.8736,-4.8418,-4.7638,-4.7605,-4.7272,-4.6518,-4.5985,-4.5588,-4.5405,-4.4843,-4.461,-4.461,-4.461,-4.461,-4.461,-4.461,-4.461,-4.461,-4.461,-4.461,-4.461,-4.461,-4.461,-4.461,-4.461,-4.461,-4.461,-4.461,-4.461,-4.461,-4.461,-4.461,-4.461,-4.461,-4.461,-4.461,-4.461,-4.461,-4.461,-4.461,-4.461,-4.461,-4.461,-4.461,-4.461,-4.461,-4.461,-4.461,-4.461,-4.461,-4.4456,-4.3963,-4.387,-4.3655,-4.2971,-4.2848,-4.2786,-4.2633,-4.2602,-4.2417,-4.1925,-4.1863,-4.1586,-4.0843,-4.0751,-4.0689,-4.0505,-4.0505,-4.0505,-4.0505,-4.0331,-4.0187,-4.0011,-3.9768,-3.9553,-3.9373,-3.9192,-3.9119,-3.9083,-3.8248,-3.7758,-3.7529,-3.666,-3.5949,0.0,0.0,0.0,0.0,0.0,0.0,0.0,0.0,0.0,0.0,0.0,0.0,0.0,0.0,0.0,0.0,0.0,0.0,0.0,0.0,0.0,0.0,0.0,0.0,0.0,0.0,0.0,0.0,-4.7967,-4.7638,-4.6896,-4.6862,-4.6518,-4.5769,-4.5733,-4.5332,-4.4648,-4.461,-4.461,-4.461,-4.461,-4.461,-4.461,-4.461,-4.461,-4.461,-4.461,-4.461,-4.461,-4.461,-4.461,-4.461,-4.461,-4.461,-4.461,-4.461,-4.461,-4.461,-4.461,-4.461,-4.461,-4.461,-4.461,-4.461,-4.461,-4.461,-4.461,-4.461,-4.461,-4.461,-4.461,-4.461,-4.461,-4.461,-4.461,-4.461,-4.461,-4.461,-4.461,-4.4579,-4.4579,-4.4363,-4.3685,-4.3562,-4.3347,-4.2694,-4.2602,-4.2602,-4.2571,-4.2571,-4.2294,-4.1617,-4.1555,-4.1278,-4.0536,-4.0505,-4.0505,-4.0505,-4.0191,-4.0011,-4.0011,-3.9625,-3.9409,-3.9373,-3.8649,-3.8277,-3.8277,-3.7386,-3.6582,-3.5816,-3.495,-3.4522,0.0,0.0,0.0,0.0,0.0,0.0,0.0,0.0,0.0,0.0,0.0,0.0,0.0,0.0,0.0,0.0,0.0,0.0,0.0,0.0,0.0,0.0,0.0,0.0,0.0,0.0,0.0,0.0,0.0,-4.6864,-4.6127,-4.6092,-4.5769,-4.503,-4.4993,-4.4874,-4.461,-4.461,-4.461,-4.461,-4.461,-4.461,-4.461,-4.461,-4.461,-4.461,-4.461,-4.461,-4.461,-4.461,-4.461,-4.461,-4.461,-4.461,-4.461,-4.461,-4.461,-4.461,-4.461,-4.461,-4.461,-4.461,-4.461,-4.461,-4.461,-4.461,-4.461,-4.461,-4.461,-4.461,-4.461,-4.461,-4.461,-4.461,-4.461,-4.461,-4.461,-4.461,-4.461,-4.461,-4.461,-4.4548,-4.4302,-4.424,-4.4178,-4.3895,-4.3864,-4.371,-4.3316,-4.3217,-4.2824,-4.1717,-4.162,-4.1133,-4.0074,-3.9757,-3.9652,-3.9803,-3.8884,-3.8841,-3.9768,-3.9133,-3.873,-3.8612,-3.8352,-3.8202,-3.8202,-3.6805,-3.5976,-3.5655,-3.4786,-3.4397,-2.4898,0.0,0.0,0.0,0.0,0.0,0.0,0.0,0.0,0.0,0.0,0.0,0.0,0.0,0.0,0.0,0.0,0.0,0.0,0.0,0.0,0.0,0.0,0.0,0.0,0.0,0.0,0.0,0.0,0.0,-4.54,-4.5326,-4.5104,-4.461,-4.461,-4.461,-4.461,-4.461,-4.461,-4.461,-4.461,-4.461,-4.461,-4.461,-4.461,-4.461,-4.461,-4.461,-4.461,-4.461,-4.461,-4.461,-4.461,-4.461,-4.461,-4.461,-4.461,-4.461,-4.461,-4.461,-4.461,-4.461,-4.461,-4.461,-4.461,-4.461,-4.461,-4.461,-4.461,-4.461,-4.461,-4.461,-4.461,-4.461,-4.461,-4.461,-4.461,-4.461,-4.461,-4.461,-4.4419,-4.4266,-4.4266,-4.4266,-4.4189,-4.3966,-4.4266,-4.4228,-4.3358,-4.3373,-4.294,-4.1522,-4.1385,-4.0888,-3.9634,-3.9074,-3.8899,-3.9017,-3.8005,-3.7814,-3.8841,-3.8227,-3.7852,-3.7758,-3.7491,-3.7376,-3.7376,-3.6215,-3.5534,-3.5237,-3.4688,-3.4397,0.0,0.0,0.0,0.0,0.0,0.0,0.0,0.0,0.0,0.0,0.0,0.0,0.0,0.0,0.0,0.0,0.0,0.0,0.0,0.0,0.0,0.0,0.0,0.0,0.0,0.0,0.0,0.0,-4.566,-4.5363,-4.4648,-4.461,-4.461,-4.461,-4.461,-4.461,-4.461,-4.461,-4.461,-4.461,-4.461,-4.461,-4.461,-4.461,-4.461,-4.461,-4.461,-4.461,-4.461,-4.461,-4.461,-4.461,-4.461,-4.461,-4.461,-4.461,-4.4572,-4.4572,-4.461,-4.4572,-4.4572,-4.461,-4.461,-4.461,-4.4572,-4.4572,-4.461,-4.4572,-4.4572,-4.461,-4.461,-4.4572,-4.4572,-4.4572,-4.4572,-4.4534,-4.4534,-4.4534,-4.4534,-4.4572,-4.4035,-4.3576,-4.3576,-4.3576,-4.3339,-4.271,-4.3536,-4.381,-4.271,-4.2951,-4.2634,-4.1036,-4.0897,-4.0435,-3.9252,-3.8626,-3.8268,-3.8307,-3.7544,-3.7155,-3.7232,-3.6972,-3.6855,-3.6855,-3.6096,-3.5696,-3.5655,-3.5655,-3.5237,-3.4397,-3.4397,-3.4397,-2.3579,0.0,0.0,0.0,0.0,0.0,0.0,0.0,0.0,0.0,0.0,0.0,0.0,0.0,0.0,0.0,0.0,0.0,0.0,0.0,0.0,0.0,0.0,0.0,0.0,0.0,0.0,0.0,-4.488,-4.4836,-4.461,-4.461,-4.461,-4.461,-4.461,-4.461,-4.461,-4.461,-4.461,-4.461,-4.461,-4.461,-4.461,-4.461,-4.461,-4.461,-4.461,-4.461,-4.461,-4.461,-4.461,-4.461,-4.461,-4.461,-4.461,-4.461,-4.4496,-4.4381,-4.4534,-4.4496,-4.4381,-4.4534,-4.461,-4.4572,-4.4419,-4.4458,-4.4572,-4.4419,-4.4496,-4.461,-4.461,-4.4228,-4.3879,-4.3879,-4.3497,-4.315,-4.315,-4.318,-4.3369,-4.3771,-4.3339,-4.29,-4.29,-4.29,-4.279,-4.2629,-4.2589,-4.2438,-4.2152,-4.1918,-4.1459,-4.0548,-4.0463,-3.9956,-3.8736,-3.8148,-3.7933,-3.8047,-3.6674,-3.6348,-3.7569,-3.6595,-3.6056,-3.6056,-3.5816,-3.5399,-3.4744,-3.4744,-3.4647,-3.4397,-3.4397,-3.4397,-2.5778,0.0,0.0,0.0,0.0,0.0,0.0,-3.0496,0.0,0.0,0.0,0.0,0.0,0.0,0.0,0.0,0.0,0.0,0.0,0.0,0.0,0.0,0.0,0.0,0.0,-4.5132,-4.4997,-4.4216,-4.4456,-4.461,-4.461,-4.461,-4.461,-4.461,-4.461,-4.461,-4.461,-4.461,-4.461,-4.461,-4.461,-4.461,-4.461,-4.461,-4.461,-4.461,-4.461,-4.461,-4.461,-4.461,-4.461,-4.461,-4.461,-4.461,-4.4572,-4.4496,-4.4381,-4.4335,-4.4419,-4.4381,-4.4305,-4.4534,-4.461,-4.4572,-4.4343,-4.4381,-4.4458,-4.4305,-4.4419,-4.4458,-4.3927,-4.3693,-4.3536,-4.326,-4.2871,-4.2589,-4.2589,-4.2415,-4.2485,-4.3061,-4.2629,-4.2211,-4.2211,-4.2211,-4.2129,-4.1881,-4.1976,-4.1852,-4.1184,-4.1029,-4.0646,-3.9706,-3.9574,-3.9217,-3.8256,-3.7723,-3.7449,-3.7596,-3.6373,-3.5966,-3.6743,-3.5965,-3.5422,-3.5155,-3.5155,-3.4909,-3.4397,-3.4397,-3.4397,-3.4397,-3.4397,-3.4397,-2.8703,-2.8365,0.0,0.0,0.0,0.0,-3.1162,-3.0593,0.0,0.0,0.0,0.0,0.0,0.0,0.0,0.0,0.0,0.0,0.0,0.0,0.0,0.0,0.0,0.0,-4.3447,-4.4078,-4.4167,-4.3538,-4.4117,-4.4517,-4.4517,-4.4579,-4.461,-4.461,-4.461,-4.461,-4.461,-4.461,-4.461,-4.461,-4.461,-4.461,-4.461,-4.461,-4.461,-4.461,-4.4572,-4.4572,-4.461,-4.4572,-4.4572,-4.461,-4.461,-4.461,-4.4572,-4.4343,-4.4297,-4.4297,-4.4297,-4.4228,-4.4297,-4.4496,-4.4534,-4.4496,-4.4305,-4.4297,-4.4228,-4.4151,-4.4228,-4.4082,-4.279,-4.2871,-4.318,-4.2548,-4.2386,-4.2386,-4.2386,-4.1922,-4.1673,-4.2181,-4.1922,-4.1577,-4.1577,-4.1577,-4.1409,-4.0773,-4.1423,-4.1464,-4.0083,-4.0213,-3.9908,-3.8647,-3.8512,-3.833,-3.7946,-3.7403,-3.7116,-3.7116,-3.6541,-3.5992,-3.5495,-3.5365,-3.5051,-3.4502,-3.4424,-3.4397,-3.4397,-3.4397,-3.4397,-3.4397,-3.4397,-3.4397,-3.1853,-3.1867,-3.2002,-3.0649,0.0,0.0,-2.8225,-2.7987,-2.8624,0.0,0.0,0.0,0.0,0.0,0.0,0.0,0.0,0.0,0.0,0.0,0.0,0.0,0.0,0.0,-4.2019,-4.2638,-4.2968,-4.2786,-4.3439,-4.3809,-4.3809,-4.4332,-4.461,-4.461,-4.461,-4.461,-4.461,-4.461,-4.461,-4.461,-4.461,-4.461,-4.461,-4.461,-4.461,-4.4572,-4.4419,-4.4458,-4.4572,-4.4419,-4.4458,-4.461,-4.461,-4.461,-4.4572,-4.4343,-4.422,-4.4065,-4.4065,-4.3949,-4.3871,-4.4258,-4.4258,-4.4104,-4.4065,-4.4065,-4.3879,-4.315,-4.2961,-4.2731,-4.1765,-4.1462,-4.1478,-4.131,-4.117,-4.1071,-4.1071,-4.0688,-4.0386,-4.0488,-4.073,-4.0901,-4.0901,-4.0901,-4.0859,-4.0688,-4.0257,-3.9777,-3.9469,-3.8872,-3.833,-3.8083,-3.8037,-3.7992,-3.79,-3.7795,-3.7717,-3.7717,-3.7168,-3.6776,-3.6671,-3.5783,-3.5234,-3.5129,-3.4633,-3.4397,-3.4397,-3.4397,-3.4397,-3.4397,-3.4397,-3.4397,-3.4934,-3.4506,-3.4213,-3.3132,0.0,0.0,0.0,-2.8256,-2.8215,-3.0974,0.0,0.0,0.0,0.0,0.0,0.0,0.0,0.0,0.0,0.0,0.0,0.0,0.0,0.0,-4.0539,-4.0878,-4.137,-4.2048,-4.2725,-4.3094,-4.3094,-4.3747,-4.4117,-4.4117,-4.4456,-4.461,-4.461,-4.461,-4.461,-4.461,-4.461,-4.461,-4.461,-4.4496,-4.4458,-4.4419,-4.4258,-4.422,-4.4266,-4.422,-4.422,-4.4305,-4.4534,-4.4534,-4.4419,-4.4189,-4.4104,-4.3988,-4.3871,-4.3754,-4.3754,-4.4065,-4.4104,-4.3988,-4.3871,-4.3527,-4.2951,-4.2193,-4.1918,-4.1641,-4.0532,-4.046,-4.0617,-4.0531,-4.043,-4.0343,-4.0343,-4.017,-3.9908,-3.9689,-3.9821,-3.9996,-3.9996,-3.9996,-3.9996,-3.9996,-3.9601,-3.9203,-3.9007,-3.8557,-3.8175,-3.7946,-3.79,-3.79,-3.79,-3.79,-3.79,-3.79,-3.7612,-3.7325,-3.7011,-3.6462,-3.5887,-3.5312,-3.4999,-3.4685,-3.4397,-3.4397,-3.4397,-3.4397,-3.4397,-3.4397,0.0,0.0,0.0,0.0,0.0,-3.2461,0.0,0.0,0.0,-3.169,0.0,0.0,0.0,0.0,0.0,0.0,0.0,0.0,0.0,0.0,0.0,0.0,0.0,0.0,0.0,-3.8816,-3.937,-4.0878,-4.137,-4.1801,-4.2171,-4.3063,-4.3593,-4.3593,-4.4271,-4.461,-4.461,-4.461,-4.461,-4.461,-4.461,-4.461,-4.4572,-4.4419,-4.4374,-4.4266,-4.4104,-4.3988,-4.3988,-4.3949,-4.3949,-4.3988,-4.4343,-4.4412,-4.422,-4.4026,-4.3949,-4.391,-4.3714,-4.3596,-4.3675,-4.3871,-4.3949,-4.3871,-4.3518,-4.282,-4.2029,-4.1155,-4.0873,-4.0547,-3.9353,-3.9513,-3.9924,-3.9777,-3.9777,-3.9865,-3.9865,-3.9777,-3.9601,-3.9247,-3.9096,-3.9096,-3.9247,-3.9292,-3.9292,-3.9292,-3.9203,-3.9051,-3.8647,-3.8512,-3.833,-3.7946,-3.79,-3.79,-3.79,-3.79,-3.79,-3.79,-3.79,-3.7691,-3.7194,-3.7063,-3.6515,-3.5469,-3.5443,-3.5155,-3.458,-3.458,-3.4502,-3.4397,-3.4397,-3.4397,0.0,0.0,0.0,0.0,-3.6874,0.0,0.0,0.0,-3.209,-2.9907,0.0,0.0,0.0,0.0,0.0,0.0,0.0,0.0,0.0,0.0,0.0,0.0,0.0,0.0,0.0,-3.6292,-3.6753,-3.8723,-3.8385,-3.8877,-4.0628,-4.254,-4.3593,-4.3593,-4.4271,-4.461,-4.461,-4.461,-4.461,-4.461,-4.461,-4.461,-4.461,-4.4572,-4.4458,-4.4266,-4.4104,-4.3988,-4.3988,-4.3793,-4.3714,-4.3754,-4.3988,-4.4065,-4.4026,-4.3793,-4.3714,-4.3675,-4.3438,-4.3329,-4.3369,-4.3636,-4.3714,-4.3557,-4.2496,-4.2129,-4.1686,-3.9956,-3.9404,-3.921,-3.833,-3.8421,-3.8782,-3.8782,-3.9096,-3.938,-3.938,-3.9051,-3.8737,-3.8692,-3.833,-3.833,-3.9158,-3.9292,-3.9292,-3.9292,-3.8962,-3.8647,-3.8602,-3.8266,-3.7946,-3.79,-3.79,-3.79,-3.79,-3.79,-3.79,-3.79,-3.79,-3.7874,-3.7795,-3.7299,-3.6698,-3.6018,-3.6018,-3.573,-3.5208,-3.5208,-3.492,-3.4397,-3.4397,-3.4397,0.0,0.0,0.0,0.0,0.0,0.0,-3.2983,0.0,-3.1495,0.0,0.0,0.0,0.0,0.0,0.0,0.0,0.0,0.0,0.0,0.0,0.0,0.0,0.0,0.0,0.0,0.0,0.0,0.0,-3.6507,-3.7215,-3.9213,-4.0909,-4.2171,-4.2971,-4.3685,-4.4209,-4.461,-4.461,-4.461,-4.461,-4.461,-4.461,-4.4572,-4.4343,-4.422,-4.4104,-4.3723,-4.3566,-4.3566,-4.3518,-4.3478,-4.3478,-4.3527,-4.3714,-4.3793,-4.3714,-4.3675,-4.3636,-4.3369,-4.329,-4.325,-4.282,-4.2699,-4.2537,-4.1519,-4.0817,-4.0216,-3.9431,-3.8836,-3.8349,-3.7992,-3.8037,-3.8266,-3.8557,-3.8737,-3.8917,-3.8917,-3.8737,-3.8512,-3.8266,-3.8037,-3.8037,-3.8421,-3.8466,-3.8466,-3.8466,-3.833,-3.822,-3.822,-3.8037,-3.79,-3.79,-3.79,-3.79,-3.79,-3.79,-3.79,-3.79,-3.79,-3.79,-3.79,-3.7665,-3.7246,-3.6645,-3.6619,-3.6332,-3.5757,-3.5757,-3.5626,-3.5365,-3.4711,-3.4397,-4.0445,0.0,0.0,0.0,0.0,0.0,0.0,0.0,0.0,0.0,0.0,0.0,0.0,0.0,0.0,0.0,0.0,0.0,0.0,0.0,0.0,0.0,0.0,0.0,0.0,0.0,0.0,0.0,0.0,-3.5214,-3.78,-3.9398,-4.0782,-4.1986,-4.3033,-4.384,-4.4332,-4.4517,-4.461,-4.461,-4.461,-4.461,-4.4572,-4.4258,-4.4065,-4.3988,-4.3596,-4.3369,-4.329,-4.329,-4.329,-4.329,-4.329,-4.3438,-4.3596,-4.3596,-4.3438,-4.321,-4.301,-4.278,-4.2426,-4.1811,-4.1603,-4.1436,-4.0518,-3.9738,-3.9166,-3.8926,-3.8395,-3.79,-3.79,-3.79,-3.7992,-3.833,-3.8421,-3.8421,-3.8421,-3.8421,-3.8285,-3.7992,-3.79,-3.79,-3.79,-3.79,-3.79,-3.79,-3.79,-3.79,-3.79,-3.79,-3.79,-3.79,-3.79,-3.79,-3.79,-3.79,-3.79,-3.79,-3.79,-3.79,-3.79,-3.79,-3.7691,-3.7246,-3.7246,-3.6959,-3.6358,-3.6358,-3.6253,-3.6096,-3.526,-3.4789,0.0,0.0,0.0,-3.6754,0.0,0.0,0.0,0.0,-3.578,0.0,0.0,0.0,0.0,0.0,0.0,0.0,0.0,0.0,0.0,0.0,0.0,0.0,0.0,0.0,0.0,0.0,0.0,0.0,0.0,0.0,-3.6353,-3.8446,-3.9828,-4.0536,-4.254,-4.3624,-4.3624,-4.4302,-4.461,-4.461,-4.461,-4.461,-4.4572,-4.4412,-4.4151,-4.3988,-4.3754,-4.3557,-4.329,-4.329,-4.329,-4.329,-4.329,-4.329,-4.329,-4.329,-4.278,-4.2017,-4.2017,-4.1478,-4.0689,-4.0646,-4.0646,-4.0475,-3.9519,-3.921,-3.9033,-3.8194,-3.79,-3.79,-3.79,-3.79,-3.79,-3.79,-3.79,-3.79,-3.79,-3.79,-3.79,-3.79,-3.79,-3.79,-3.79,-3.79,-3.79,-3.79,-3.79,-3.79,-3.79,-3.79,-3.79,-3.79,-3.79,-3.79,-3.79,-3.79,-3.79,-3.79,-3.79,-3.79,-3.79,-3.79,-3.79,-3.7874,-3.7874,-3.7586,-3.6985,-3.6985,-3.6671,-3.6096,-3.607,-3.5783,0.0,0.0,-4.2959,-3.9454,0.0,0.0,0.0,0.0,0.0,0.0,0.0,0.0,0.0,0.0,0.0,0.0,0.0,0.0,0.0,0.0,0.0,0.0,0.0,0.0,0.0,0.0,0.0,0.0,-3.1213,0.0,0.0,-3.7738,-3.9336,-4.0443,-4.2078,-4.3125,-4.3593,-4.4271,-4.461,-4.461,-4.461,-4.4534,-4.4381,-4.422,-4.3988,-4.3793,-4.3557,-4.3369,-4.329,-4.329,-4.329,-4.329,-4.329,-4.297,-4.2456,-4.2456,-4.2252,-4.1893,-4.1281,-4.0859,-4.0518,-3.9913,-3.9694,-3.9519,-3.8594,-3.8349,-3.8258,-3.7992,-3.79,-3.79,-3.79,-3.79,-3.79,-3.79,-3.79,-3.79,-3.79,-3.79,-3.79,-3.79,-3.79,-3.79,-3.79,-3.79,-3.79,-3.79,-3.79,-3.79,-3.79,-3.79,-3.79,-3.79,-3.79,-3.79,-3.79,-3.79,-3.79,-3.79,-3.79,-3.79,-3.79,-3.79,-3.79,-3.79,-3.79,-3.7795,-3.7612,-3.7612,-3.7508,-3.7299,-3.7299,-3.6776,-4.2524,-4.3261,0.0,-4.0782,-3.9948,0.0,-3.5711,0.0,0.0,0.0,0.0,0.0,0.0,0.0,0.0,0.0,0.0,0.0,0.0,0.0,0.0,0.0,0.0,0.0,0.0,0.0,-2.8473,-3.0597,0.0,0.0,0.0,0.0,-3.8662,-3.9736,-4.1617,-4.2817,-4.3217,-4.4178,-4.4572,-4.4496,-4.4572,-4.4458,-4.4181,-4.4065,-4.3871,-4.3675,-4.3438,-4.329,-4.329,-4.329,-4.329,-4.325,-4.297,-4.2496,-4.2005,-4.2005,-4.1603,-4.0859,-3.9984,-3.9634,-3.9546,-3.8926,-3.8747,-3.8639,-3.8057,-3.79,-3.79,-3.79,-3.79,-3.79,-3.79,-3.79,-3.79,-3.79,-3.79,-3.79,-3.79,-3.79,-3.79,-3.79,-3.79,-3.79,-3.79,-3.79,-3.79,-3.79,-3.79,-3.79,-3.79,-3.79,-3.79,-3.79,-3.79,-3.79,-3.79,-3.79,-3.79,-3.79,-3.79,-3.79,-3.79,-3.79,-3.79,-3.79,-3.79,-3.79,-3.79,-3.79,-3.79,-3.79,-3.79,-3.7482]},{"header":{"parameterUnit":"m.s-1","parameterCategory":1,"la1":30.6,"la2":29.2853,"lo1":-89.7004,"lo2":-87.6739,"dy":0.0162,"dx":0.0183,"nx":112,"ny":82,"refTime":"2024-06-13T06:00:00:Z","depth":0,"parameterNumber":3,"parameterNumberName":"V-component_of_WINDS"},"data":[0.0,0.0,0.0,0.0,0.0,0.0,0.0,0.0,0.0,0.0,0.0,0.0,0.0,0.0,0.0,0.0,0.0,0.0,0.0,0.0,0.0,0.0,0.0,0.0,0.0,0.0,0.0,0.0,0.0,0.0,0.0,0.0,0.0,0.0,0.0,0.0,0.0,0.0,0.0,0.0,0.0,0.0,0.0,0.0,0.0,0.0,0.0,0.0,0.0,0.0,0.0,0.0,0.0,0.0,0.0,0.0,0.0,0.0,0.0,0.0,0.0,0.0,0.0,0.0,0.0,0.0,0.0,0.0,0.0,0.0,0.0,0.0,0.0,0.0,0.0,0.0,0.0,0.0,0.0,0.0,0.0,0.0,0.0,0.0,0.0,0.0,0.0,0.0,0.0,0.0,0.0,1.5872,1.7759,1.8763,1.8698,1.7853,1.6475,1.4527,0.0,0.0,0.0,0.0,0.0,0.0,0.0,0.0,0.0,0.0,0.0,0.0,0.0,0.0,0.0,0.0,0.0,0.0,0.0,0.0,0.0,0.0,0.0,0.0,0.0,0.0,0.0,0.0,0.0,0.0,0.0,0.0,0.0,0.0,0.0,0.0,0.0,0.0,0.0,0.0,0.0,0.0,0.0,0.0,0.0,0.0,0.0,0.0,0.0,0.0,0.0,0.0,0.0,0.0,0.0,0.0,0.0,0.0,0.0,0.0,0.0,0.0,0.0,0.0,0.0,0.0,0.0,0.0,0.0,0.0,0.0,0.0,0.0,0.0,0.0,0.0,0.0,0.0,0.0,0.0,0.0,0.0,0.0,0.0,0.0,0.0,0.0,0.0,0.0,0.0,0.0,0.0,0.0,0.0,0.0,0.0,0.0,0.0,0.0,0.0,0.0,0.0,0.0,0.0,1.3651,1.7272,1.8624,1.9135,1.872,1.7853,1.6475,1.4527,0.0,0.0,0.0,0.0,0.0,0.0,0.0,0.0,0.0,0.0,0.0,0.0,0.0,0.0,0.0,0.0,0.0,0.0,0.0,0.0,0.0,0.0,0.0,0.0,0.0,0.0,0.0,0.0,0.0,0.0,0.0,0.0,0.0,0.0,0.0,0.0,0.0,0.0,0.0,0.0,0.0,0.0,0.0,0.0,0.0,0.0,0.0,0.0,0.0,0.0,0.0,0.0,0.0,0.0,0.0,0.0,0.0,0.0,0.0,0.0,0.0,0.0,0.0,0.0,0.0,0.0,0.0,0.0,0.0,0.0,0.0,0.0,0.0,0.0,0.0,0.0,0.0,0.0,0.0,0.0,0.0,0.0,0.0,0.0,0.0,0.0,0.0,0.0,0.0,0.0,0.0,0.0,0.0,0.0,0.0,0.0,0.0,0.0,0.0,0.0,0.0,0.0,0.0,1.3585,1.5531,1.8108,1.9213,1.9475,1.8763,1.7853,1.6475,1.4527,1.2778,0.0,0.0,0.0,0.0,0.0,0.0,0.0,0.0,0.0,0.0,0.0,0.0,0.0,0.0,0.0,0.0,0.0,0.0,0.0,0.0,0.0,0.0,0.0,0.0,0.0,0.0,0.0,0.0,0.0,0.0,0.0,0.0,0.0,0.0,0.0,0.0,0.0,0.0,0.0,0.0,0.0,0.0,0.0,0.0,0.0,0.0,0.0,0.0,0.0,0.0,0.0,0.0,0.0,0.0,0.0,0.0,0.0,0.0,0.0,0.0,0.0,0.0,0.0,0.0,0.0,0.0,0.0,0.0,0.0,0.0,0.0,0.0,0.0,0.0,0.0,0.0,0.0,0.0,0.0,0.0,0.0,0.0,0.0,0.0,0.0,0.0,0.0,0.0,0.0,0.0,0.0,0.0,0.0,0.0,0.0,0.0,0.0,0.0,0.0,0.0,0.0,0.0,1.5902,1.7213,1.8545,1.954,1.9715,1.8763,1.7715,1.6343,1.4506,1.2363,0.0,0.0,0.0,0.0,0.0,0.0,0.0,0.0,0.0,0.0,0.0,0.0,0.0,0.0,0.0,0.0,0.0,0.0,0.0,0.0,0.0,0.0,0.0,0.0,0.0,0.0,0.0,0.0,0.0,0.0,0.0,0.0,0.0,0.0,0.0,0.0,0.0,0.0,0.0,0.0,0.0,0.0,0.0,0.0,0.0,0.0,0.0,0.0,0.0,0.0,0.0,0.0,0.0,0.0,0.0,0.0,0.0,0.0,0.0,0.0,0.0,0.0,0.0,0.0,0.0,0.0,0.0,0.0,0.0,0.0,0.0,0.0,0.0,0.0,0.0,0.0,0.0,0.0,0.0,0.0,0.0,0.0,0.0,0.0,0.0,0.0,0.0,0.0,0.0,0.0,0.0,0.0,0.0,0.0,0.0,0.0,0.0,0.0,0.0,0.0,0.0,0.0,1.5793,1.7634,1.8619,1.954,1.9715,1.8763,1.7387,1.5946,1.4484,1.1768,0.0,0.0,0.0,0.0,0.0,0.0,0.0,0.0,0.0,0.0,0.0,0.0,0.0,0.0,0.0,0.0,0.0,0.0,0.0,0.0,0.0,0.0,0.0,0.0,0.0,0.0,0.0,0.0,0.0,0.0,0.0,0.0,0.0,0.0,0.0,0.0,0.0,0.0,0.0,0.0,0.0,0.0,0.0,0.0,0.0,0.0,0.0,0.0,0.0,0.0,0.0,0.0,0.0,0.0,0.0,0.0,0.0,0.0,0.0,0.0,0.0,0.0,0.0,0.0,0.0,0.0,0.0,0.0,0.0,0.0,0.0,0.0,0.0,0.0,0.0,0.0,0.0,0.0,0.0,0.0,0.0,0.0,0.0,0.0,0.0,0.0,0.0,0.0,0.0,0.0,0.0,0.0,0.0,0.0,0.0,0.0,0.0,0.0,0.0,0.0,0.0,0.0,1.5557,1.7278,0.0,1.9288,1.9387,1.8742,1.7344,1.5902,1.4484,0.0,0.0,0.0,0.0,0.0,0.0,0.0,0.0,0.0,0.0,0.0,0.0,0.0,0.0,0.0,0.0,0.0,0.0,0.0,0.0,0.0,0.0,0.0,0.0,0.0,0.0,0.0,0.0,0.0,0.0,0.0,0.0,0.0,0.0,0.0,0.0,0.0,0.0,0.0,0.0,0.0,0.0,0.0,0.0,0.0,0.0,0.0,0.0,0.0,0.0,0.0,0.0,0.0,0.0,0.0,0.0,0.0,0.0,0.0,0.0,0.0,0.0,0.0,0.0,0.0,0.0,0.0,0.0,0.0,0.0,0.0,0.0,0.0,0.0,0.0,0.0,0.0,0.0,0.0,0.0,0.0,0.0,0.0,0.0,0.0,0.0,0.0,0.0,0.0,0.0,0.0,0.0,0.0,0.0,0.0,0.0,0.0,0.0,0.0,0.0,0.0,0.0,1.377,1.5643,1.7256,0.0,1.9135,1.9222,1.872,1.7213,1.5684,1.4287,0.0,0.0,0.0,0.0,0.0,0.0,0.0,0.0,0.0,0.0,0.0,0.0,0.0,0.0,0.0,0.0,0.0,0.0,0.0,0.0,0.0,0.0,0.0,0.0,0.0,0.0,0.0,0.0,0.0,0.0,0.0,0.0,0.0,0.0,0.0,0.0,0.0,0.0,0.0,0.0,0.0,0.0,0.0,0.0,0.0,0.0,0.0,0.0,0.0,0.0,0.0,0.0,0.0,0.0,0.0,0.0,0.0,0.0,0.0,0.0,0.0,0.0,0.0,0.0,0.0,0.0,0.0,0.0,0.0,0.0,0.0,0.0,0.0,0.0,0.0,0.0,0.0,0.0,0.0,0.0,0.0,0.0,0.0,0.0,0.0,0.0,0.0,0.0,0.0,0.0,0.0,0.0,0.0,0.0,0.0,0.0,0.0,0.0,0.0,0.0,0.0,0.0,1.4067,1.6103,1.7678,1.8589,1.9113,1.9222,1.872,1.6901,1.52,0.0,0.0,0.0,0.0,0.0,0.0,0.0,0.0,0.0,0.0,0.0,0.0,0.0,0.0,0.0,0.0,0.0,0.0,0.0,0.0,0.0,0.0,0.0,0.0,0.0,0.0,0.0,0.0,0.0,0.0,0.0,0.0,0.0,0.0,0.0,0.0,0.0,0.0,0.0,0.0,0.0,0.0,0.0,0.0,0.0,0.0,0.0,0.0,0.0,0.0,0.0,0.0,0.0,0.0,0.0,0.0,0.0,0.0,0.0,0.0,0.0,0.0,0.0,0.0,0.0,0.0,0.0,0.0,0.0,0.0,0.0,0.0,0.0,0.0,0.0,0.0,0.0,0.0,0.0,0.0,0.0,0.0,0.0,0.0,0.0,0.0,0.0,0.0,0.0,0.0,0.0,0.0,0.0,0.0,0.0,0.0,0.0,0.0,0.0,0.0,0.0,0.0,0.0,1.3493,1.5842,1.7678,1.8589,1.8807,1.8851,1.8698,1.6901,1.5331,1.4265,0.0,0.0,0.0,0.0,0.0,0.0,0.0,0.0,0.0,0.0,0.0,0.0,0.0,0.0,0.0,0.0,0.0,0.0,0.0,0.0,0.0,0.0,0.0,0.0,0.0,0.0,0.0,0.0,0.0,0.0,0.0,0.0,0.0,0.0,0.0,0.0,0.0,0.0,0.0,0.0,0.0,0.0,0.0,0.0,0.0,0.0,0.0,0.0,0.0,0.0,0.0,0.0,0.0,0.0,0.0,0.0,0.0,0.0,0.0,0.0,0.0,0.0,0.0,0.0,0.0,0.0,0.0,0.0,0.0,0.0,0.0,0.0,0.0,0.0,0.0,0.0,0.0,0.0,0.0,0.0,0.0,0.0,0.0,0.0,0.0,0.0,0.0,0.0,0.0,0.0,0.0,0.0,0.0,0.0,0.0,0.0,0.0,0.0,0.0,0.0,0.0,0.0,1.386,1.6148,1.7933,1.8873,1.8807,1.8698,1.8698,1.6901,1.5397,1.4462,0.0,0.0,0.0,0.0,0.0,0.0,0.0,0.0,0.0,0.0,0.0,0.0,0.0,0.0,0.0,0.0,0.0,0.0,0.0,0.0,0.0,0.0,0.0,0.0,0.0,0.0,0.0,0.0,0.0,0.0,0.0,0.0,0.0,0.0,0.0,0.0,0.0,0.0,0.0,0.0,0.0,0.0,0.0,0.0,0.0,0.0,0.0,0.0,0.0,0.0,0.0,0.0,0.0,0.0,0.0,0.0,0.0,0.0,0.0,0.0,0.0,0.0,0.0,0.0,0.0,0.0,0.0,0.0,0.0,0.0,0.0,0.0,0.0,0.0,0.0,0.0,0.0,0.0,0.0,0.0,0.0,0.0,0.0,0.0,0.0,0.0,0.0,0.0,0.0,0.0,0.0,0.0,0.0,0.0,0.0,0.0,0.0,0.0,0.0,0.0,0.0,0.0,1.4805,1.6814,1.837,1.9278,1.9026,1.8742,1.8698,1.6988,1.5506,1.4527,0.0,0.0,0.0,0.0,0.0,0.0,0.0,0.0,0.0,0.0,0.0,0.0,0.0,0.0,0.0,0.0,0.0,0.0,0.0,0.0,0.0,0.0,0.0,0.0,0.0,0.0,0.0,0.0,0.0,0.0,0.0,0.0,0.0,0.0,0.0,0.0,0.0,0.0,0.0,0.0,0.0,0.0,0.0,0.0,0.0,0.0,0.0,0.0,0.0,0.0,0.0,0.0,0.0,0.0,0.0,0.0,0.0,0.0,0.0,0.0,1.1662,0.0,0.0,0.0,0.0,0.0,0.0,0.0,0.0,0.0,0.0,0.0,0.0,0.0,0.0,0.0,0.0,0.0,0.0,0.0,0.0,0.0,0.0,0.0,0.0,0.0,0.0,0.0,0.0,0.0,0.0,0.0,0.0,0.0,0.0,0.0,0.0,0.0,0.0,0.0,0.0,0.0,1.4967,1.69,1.837,1.9278,1.9331,1.9113,1.872,1.7628,1.6383,1.5028,1.3041,0.0,0.0,0.0,0.0,0.0,0.0,0.0,0.0,0.0,0.0,0.0,0.0,0.0,0.0,0.0,0.0,0.0,0.0,0.0,0.0,0.0,0.0,0.0,0.0,0.0,0.0,0.0,0.0,0.0,0.0,0.0,0.0,0.0,0.0,0.0,0.0,0.0,0.0,0.0,0.0,0.0,0.0,0.0,0.0,0.0,0.0,0.0,0.0,0.0,0.0,0.0,0.0,0.0,0.0,0.0,0.0,0.0,0.0,0.0,0.0,1.2846,0.0,0.0,0.0,0.0,0.0,0.0,0.0,0.0,0.0,0.0,0.0,0.0,0.0,0.0,0.0,0.0,0.0,0.0,0.0,0.0,0.0,0.0,0.0,0.0,0.0,0.0,0.0,0.0,0.0,0.0,0.0,0.0,0.0,0.0,0.0,0.0,0.0,0.0,0.0,0.0,1.5631,1.7346,1.8698,1.9627,1.9518,1.9222,1.872,1.7853,1.6754,1.5506,1.3848,0.0,0.0,0.0,0.0,0.0,0.0,0.0,0.0,0.0,0.0,0.0,0.0,0.0,0.0,0.0,0.0,0.0,0.0,0.0,0.0,0.0,0.0,0.0,0.0,0.0,0.0,0.0,0.0,0.0,0.0,0.0,0.0,0.0,0.0,0.0,0.0,0.0,0.0,0.0,0.0,0.0,0.0,0.0,0.0,0.0,0.0,0.0,0.0,0.0,0.0,0.0,0.0,0.0,1.7339,1.7675,1.8175,1.8249,1.8396,1.843,1.6581,1.5365,1.461,1.4006,0.0,0.0,0.0,0.0,0.0,0.0,0.0,0.0,0.0,0.0,0.0,0.0,0.0,0.0,0.0,0.0,0.0,0.0,0.0,0.0,0.0,0.0,0.0,0.0,1.6491,1.6683,0.0,0.0,0.0,0.0,0.0,0.0,0.0,0.0,0.0,0.0,0.0,0.0,1.64,1.7912,1.9157,2.002,1.9758,1.931,1.8742,1.8006,1.7082,1.5985,1.4679,1.3521,0.0,0.0,0.0,0.0,0.0,0.0,0.0,0.0,0.0,0.0,0.0,0.0,0.0,0.0,0.0,0.0,0.0,0.0,0.0,0.0,0.0,0.0,0.0,0.0,0.0,0.0,0.0,0.0,0.0,0.0,0.0,0.0,1.1636,1.204,0.0,0.0,0.0,0.0,0.0,0.0,0.0,0.0,0.0,0.0,0.0,0.0,0.0,1.7642,1.8001,1.9403,1.9752,1.9158,2.0421,2.0704,2.0136,2.0466,2.0466,2.0191,1.9861,0.0,1.7172,1.6373,0.0,0.0,0.0,0.0,0.0,0.0,0.0,0.0,0.0,0.0,0.0,0.0,0.0,0.0,0.0,0.0,0.0,0.0,0.0,0.0,0.0,0.0,1.7719,1.7522,1.7943,1.8014,0.0,1.5519,1.4321,1.3528,1.2531,0.0,0.0,0.0,0.0,0.0,0.0,0.0,1.6972,1.8436,1.9496,2.0063,2.0063,1.9649,1.8763,1.8567,1.7912,1.6487,1.5487,1.4679,1.4134,1.2505,0.0,0.0,0.0,0.0,0.0,0.0,0.0,0.0,0.0,0.0,0.0,0.0,0.0,0.0,0.0,0.0,0.0,0.0,0.0,0.0,0.0,0.0,0.0,0.0,0.0,0.0,0.0,0.0,0.0,1.2095,1.3444,1.3616,1.4103,1.4122,0.0,0.0,0.0,0.0,0.0,0.0,0.0,0.0,0.0,1.8975,1.9552,2.0015,2.0301,2.0739,2.0881,2.0752,2.1145,2.1328,2.1156,2.1339,2.1321,2.1174,2.1394,2.0992,2.0052,1.8658,1.7301,1.6103,0.0,0.0,0.0,0.0,1.5527,1.542,1.6317,1.6356,0.0,1.5654,0.0,0.0,0.0,0.0,0.0,0.0,0.0,0.0,0.0,0.0,1.8494,1.852,1.8984,1.9271,1.8535,1.7768,1.6645,0.0,1.4103,1.3441,1.1804,0.0,0.0,0.0,0.0,1.5919,1.7512,1.8698,1.9562,2.0063,2.0107,1.9715,1.8763,1.8698,1.8065,1.6574,1.6094,1.5574,1.481,1.3873,1.3107,0.0,0.0,0.0,0.0,0.0,0.0,0.0,0.0,0.0,0.0,0.0,0.0,0.0,0.0,0.0,0.0,0.0,0.0,0.0,0.0,0.0,0.0,0.0,0.0,0.0,0.0,0.0,0.0,1.3559,1.4954,1.5108,1.5906,1.6091,0.0,0.0,0.0,0.0,0.0,0.0,1.8583,1.9331,2.0149,2.1133,2.1558,2.1976,2.2355,2.2153,2.2263,2.2667,2.2355,2.23,2.252,2.241,2.2199,2.2016,2.2199,2.2189,2.1887,2.057,1.9354,1.8271,1.8186,1.7837,1.7408,1.7871,1.7832,1.7662,1.8734,1.8848,1.8437,1.7974,1.7623,1.7168,1.5977,0.0,0.0,0.0,0.0,1.6848,1.7891,1.8539,1.8971,1.9118,1.971,2.0057,1.9445,1.9185,1.8418,0.0,1.5756,1.515,1.3111,0.0,0.0,0.0,0.0,1.6928,1.8057,1.9004,1.9715,2.0063,2.0107,1.9715,1.8763,1.8698,1.813,1.6798,1.6443,1.6007,1.5312,1.4843,1.4317,1.3739,0.0,0.0,0.0,0.0,0.0,0.0,0.0,0.0,0.0,0.0,0.0,0.0,0.0,0.0,0.0,0.0,0.0,0.0,0.0,0.0,0.0,0.0,0.0,0.0,0.0,0.0,0.0,0.0,0.0,1.6468,1.7485,0.0,0.0,0.0,0.0,1.8282,1.8822,1.9574,2.0588,2.0887,2.1365,2.2208,2.2602,2.3235,2.4073,2.4409,2.4794,2.5179,2.5161,2.4977,2.4611,2.4257,2.362,2.2821,2.2455,2.2098,2.1731,2.1887,2.1466,2.0678,2.0313,1.9752,1.9219,1.9629,1.9766,1.9824,2.0331,2.0176,1.9941,2.0703,2.0176,1.9004,1.8125,1.7272,0.0,0.0,1.7578,1.8027,1.8442,1.9182,1.9788,1.9619,1.9928,2.0157,1.9708,1.9409,1.9181,0.0,1.7764,1.6766,1.6254,0.0,1.6172,1.5798,1.7357,1.8559,1.8654,1.9475,2.0085,2.0107,2.0107,1.9715,1.8763,1.8698,1.8313,1.7328,1.6356,1.5811,1.5767,1.4899,1.436,1.4263,1.2673,0.0,0.0,0.0,0.0,0.0,0.0,0.0,0.0,0.0,0.0,0.0,0.0,0.0,0.0,0.0,0.0,0.0,0.0,0.0,0.0,0.0,0.0,0.0,0.0,0.0,0.0,0.0,0.0,1.9052,1.9972,0.0,1.9548,1.9845,2.0101,2.019,2.082,2.1603,2.2474,2.2897,2.3437,2.4262,2.4427,2.4647,2.4992,2.4882,2.4849,2.4996,2.4771,2.4569,2.4422,2.4275,2.4036,2.3712,2.3565,2.3367,2.3121,2.2954,2.2206,2.1236,2.1252,2.1058,2.0738,2.0873,2.1052,2.1211,2.1367,2.1309,2.1191,2.119,2.0878,2.043,1.9844,1.9844,2.0019,1.9902,2.0176,2.0547,2.0684,2.0957,2.1073,2.0544,2.0543,2.0463,1.9781,1.9534,1.9445,1.9241,1.8501,1.765,1.6865,1.7287,1.7499,1.6859,1.8114,1.9158,1.9169,1.9715,2.0107,2.0107,2.0107,1.9715,1.8763,1.8698,1.8152,1.6863,1.6443,1.5985,1.5375,1.5198,1.5012,1.4833,1.3743,1.2676,0.0,0.0,0.0,0.0,0.0,0.0,0.0,0.0,0.0,0.0,0.0,0.0,0.0,0.0,0.0,0.0,0.0,0.0,0.0,0.0,0.0,0.0,0.0,0.0,0.0,0.0,2.0305,2.0761,2.1614,2.1938,2.1355,2.1799,2.2197,2.2337,2.285,2.3455,2.4134,2.4409,2.4808,2.5212,2.5231,2.5231,2.5231,2.4904,2.4849,2.4977,2.4753,2.4606,2.4606,2.4477,2.4404,2.4404,2.4356,2.4159,2.3866,2.3748,2.3101,2.2157,2.2138,2.2045,2.1967,2.2009,2.2136,2.2305,2.2305,2.2305,2.2246,2.1756,2.1619,2.1541,2.1152,2.1426,2.1836,2.1543,2.166,2.1894,2.1894,2.1894,2.1756,2.124,2.1082,2.0902,2.0192,1.9944,1.9771,1.9552,1.8968,1.8286,1.7605,1.8092,1.8379,1.7862,1.8758,1.9523,1.9554,1.9856,2.0051,2.0096,2.0107,1.9715,1.8763,1.8698,1.8152,1.6863,1.6443,1.5985,1.5353,1.527,1.5196,1.5085,1.4395,1.3431,1.2162,0.0,0.0,0.0,0.0,0.0,0.0,0.0,0.0,0.0,0.0,0.0,0.0,0.0,0.0,0.0,0.0,0.0,0.0,0.0,0.0,0.0,0.0,0.0,1.9025,2.0265,2.1269,2.1485,2.2373,2.2803,2.2419,2.3096,2.3883,2.4739,2.4794,2.4959,2.5396,2.5414,2.5249,2.4831,2.4831,2.4849,2.4849,2.4849,2.5032,2.547,2.5399,2.5451,2.5399,2.5047,2.4882,2.4863,2.469,2.438,2.3988,2.4287,2.4117,2.3662,2.3051,2.2813,2.2813,2.3013,2.3101,2.3101,2.3101,2.3101,2.3023,2.2676,2.2539,2.2461,2.2051,2.1934,2.1934,2.1934,2.1934,2.1934,2.1934,2.1934,2.1873,2.1607,2.1524,2.1441,2.1024,2.06,2.0279,1.9993,1.9292,1.8742,1.8742,1.8845,1.895,1.8968,1.9386,0.0,1.9934,1.992,1.9991,2.0107,2.0129,1.9715,1.8785,1.8698,1.8283,1.735,1.6334,1.5811,1.5789,1.5089,1.4857,1.5131,1.4607,1.3795,1.2758,0.0,0.0,0.0,0.0,0.0,0.0,0.0,0.0,0.0,0.0,0.0,0.0,0.0,0.0,0.0,0.0,0.0,0.0,0.0,0.0,0.0,0.0,2.0872,2.0792,2.2208,2.3301,2.3616,2.4152,2.4516,2.4569,2.4739,2.4959,2.5197,2.4941,2.4959,2.5396,2.5414,2.5506,2.5672,2.5931,2.6096,2.6096,2.6096,2.6151,2.6243,2.5949,2.6002,2.6243,2.6033,2.612,2.6361,2.6057,2.5666,2.5237,2.4523,2.4089,2.3767,2.3218,2.3121,2.3217,2.2953,2.2969,2.3101,2.3101,2.3101,2.3081,2.2964,2.2925,2.2906,2.2789,2.275,2.275,2.275,2.275,2.275,2.275,2.275,2.2672,2.2318,2.224,2.2058,2.1457,2.1244,2.1062,2.0689,2.0198,1.9712,1.924,1.9541,1.9869,1.9972,2.0504,0.0,2.1137,2.084,2.0626,2.0686,2.0325,1.9867,1.9266,1.8895,1.813,1.6819,1.6138,1.5658,1.5312,1.5293,1.547,1.5893,1.5174,1.4502,0.0,0.0,0.0,0.0,0.0,0.0,0.0,0.0,0.0,0.0,0.0,0.0,0.0,0.0,0.0,0.0,0.0,0.0,0.0,0.0,0.0,0.0,2.2081,2.3119,2.3487,2.4036,2.4497,2.4765,2.5163,2.5521,2.5792,2.5577,2.5561,2.5858,2.5561,2.5454,2.5858,2.5876,2.5913,2.6021,2.6241,2.6243,2.6078,2.6078,2.6078,2.6078,2.5874,2.5984,2.637,2.6291,2.6456,2.6826,2.6693,2.6464,2.6158,2.567,2.5277,0.0,0.0,0.0,0.0,0.0,2.3013,2.3101,2.3101,2.3101,2.3101,2.3101,2.3101,2.3101,2.3101,2.3101,2.3101,2.3101,2.3101,2.3101,2.3101,2.3101,2.3042,2.2789,2.273,2.2609,2.2144,2.1909,2.1709,2.133,2.0949,0.0,1.9842,1.9778,1.9925,2.0253,2.0631,2.1032,2.1468,2.1274,2.1142,2.1188,2.0729,2.0216,1.9736,1.9266,0.0,0.0,0.0,1.6225,1.5744,1.5869,0.0,0.0,0.0,0.0,0.0,0.0,0.0,0.0,1.4141,1.4189,0.0,0.0,0.0,0.0,0.0,0.0,0.0,0.0,0.0,0.0,0.0,0.0,0.0,0.0,0.0,0.0,2.4375,2.5508,2.6298,2.5706,2.5232,2.5408,2.568,2.5968,2.6411,2.5922,2.5803,2.6536,2.626,2.6186,2.6499,0.0,0.0,0.0,0.0,2.5964,2.5614,2.5614,2.5614,2.5614,2.5558,2.5761,2.6129,2.6092,2.6349,2.6755,2.6935,2.6945,2.6926,2.7027,2.6769,2.6151,2.4507,2.3733,2.3493,2.3285,2.3218,2.3159,2.3159,0.0,0.0,2.3101,2.3101,2.3101,2.3101,2.3101,2.3101,2.3101,2.3101,2.3101,2.3101,2.3101,2.3101,2.3101,2.3101,2.3057,2.2882,2.2549,2.2212,2.1954,2.1594,2.1176,2.0712,1.9959,1.9625,2.0216,2.0313,2.0603,2.146,2.1539,2.1551,2.1677,0.0,0.0,2.0238,1.9736,1.9091,1.8152,1.7685,1.7201,1.6729,1.6853,1.7082,1.7434,1.7531,1.7531,1.7508,1.7628,1.7676,1.7652,1.609,1.5852,0.0,0.0,0.0,0.0,0.0,0.0,0.0,0.0,0.0,0.0,0.0,0.0,0.0,0.0,0.0,2.3939,2.5082,2.601,2.6512,2.6699,2.6839,2.6793,2.6312,2.6217,2.684,2.6552,2.6426,2.6573,2.6421,2.6271,2.6131,2.6291,2.6414,2.634,2.6656,2.6894,2.7034,2.7034,2.7034,2.7015,0.0,0.0,2.7128,2.6808,2.699,2.7638,2.7206,2.7276,2.7592,2.663,2.5993,2.5603,2.5073,2.4575,2.4185,2.4153,2.3945,2.3672,2.3672,2.3437,2.3101,2.3101,2.3101,2.3101,2.3101,2.3101,0.0,2.3101,2.3101,2.3101,2.3101,2.3101,2.3101,2.3101,2.3101,2.3101,2.3057,2.2999,2.2853,2.2635,2.2289,2.2152,2.2581,2.1233,2.0299,2.0916,2.1011,2.1392,2.2536,2.236,2.2136,2.2157,2.1734,2.1288,2.0807,2.0293,1.9562,1.8611,1.8371,1.8036,1.7508,1.8363,1.8498,1.7731,1.8366,1.847,1.8061,1.8903,1.9338,1.9314,1.8133,1.7676,0.0,0.0,0.0,0.0,0.0,0.0,0.0,0.0,0.0,0.0,0.0,2.0859,0.0,0.0,2.4738,2.5859,2.6481,2.7014,2.7389,2.7516,2.7521,2.7309,2.7093,2.7088,2.7403,2.6983,2.6784,2.6989,2.6723,2.6592,2.6511,2.6745,2.6798,2.6495,2.6842,2.6989,2.7008,2.7008,2.7008,2.7008,2.6945,2.7018,2.7206,2.7106,2.7286,2.7638,2.7314,2.7476,2.7868,2.7146,2.6779,2.6557,2.5956,2.5332,2.4727,2.4492,2.4277,2.4102,2.4102,2.3828,2.3457,2.3457,2.3276,2.3101,2.3101,2.3101,2.3101,2.3101,2.3101,2.3101,2.3101,2.3101,2.3101,2.3101,2.3101,2.3101,2.3101,2.3101,2.3057,2.2969,2.2795,2.2668,2.2709,2.1897,2.1477,2.2211,2.1768,2.1759,2.2852,2.2805,2.2725,2.2907,2.2537,2.2119,2.1834,2.0674,1.9802,1.9315,1.8858,1.8599,1.8669,1.9183,1.9404,1.9214,1.959,1.9672,1.9411,1.9937,2.0177,2.0181,1.9913,1.9672,0.0,0.0,0.0,0.0,0.0,0.0,0.0,0.0,1.8881,2.0445,2.21,2.3574,2.4609,2.5527,2.6445,2.75,2.7787,2.791,2.8242,2.8121,2.7844,2.7549,2.7714,2.7853,2.7906,2.7245,2.6974,2.7349,2.7195,2.7069,2.7079,2.7465,2.7486,2.6975,2.712,2.712,2.6975,2.6901,2.6845,2.6845,2.7043,2.7152,2.7206,2.7314,2.7422,2.7476,2.753,2.7638,2.778,2.7824,2.7734,2.7545,2.6894,2.6094,2.5321,2.4844,2.4609,2.4551,2.4551,2.4258,2.3906,2.3828,2.3555,2.3198,2.312,2.3101,2.3101,2.3101,2.3101,2.3101,2.3101,2.3101,2.3101,2.3101,2.3101,2.3101,2.3101,2.3101,2.3101,2.3101,2.3101,2.2984,2.2695,2.245,2.2458,2.3037,2.2303,2.2015,2.2777,2.3001,2.3224,2.3556,2.327,2.2941,2.2731,2.1219,2.0268,2.0177,1.961,1.9463,1.9828,1.9917,2.0159,2.0581,2.0677,2.0754,2.0759,2.0851,2.0899,2.0928,2.1356,2.1284,1.187,1.2643,1.4013,1.5673,1.6846,1.8471,0.0,0.0,2.2711,2.4606,2.5499,2.5996,2.6133,2.6875,2.7552,2.7689,2.7988,2.8242,2.8281,2.8281,2.8228,2.8169,2.778,2.7584,2.7853,2.733,2.7114,2.7368,2.7725,2.7782,2.7387,2.8363,2.8703,2.8284,2.81,2.81,2.8284,2.7937,2.7745,2.7745,2.7799,2.7799,2.7799,2.753,2.7584,2.7853,2.8067,2.7906,2.7476,2.8028,2.7829,2.727,2.7506,2.6992,2.6191,2.5742,2.5332,2.5047,2.5047,2.4707,2.4277,2.3906,2.375,2.3633,2.3218,2.3101,2.3101,2.3101,2.3101,2.3101,2.3101,2.3101,2.3101,2.3101,2.3101,2.3101,2.3101,2.3101,2.3101,2.3101,2.3101,2.3343,2.4084,2.3268,2.2291,2.179,2.2201,2.252,2.2483,2.3075,2.3556,2.3593,2.3548,2.3325,2.2754,2.2088,2.1504,2.1069,2.126,2.1183,2.0775,2.1045,2.1003,2.0605,2.1067,2.1308,2.1308,2.1789,2.2005,2.2005,2.2077,2.1813,1.3745,1.52,0.0,0.0,1.8947,2.0761,2.2662,2.3323,2.3955,2.5555,2.6559,2.718,2.718,2.7637,2.8027,0.0,2.8184,2.8301,2.8301,2.8301,2.8301,2.8301,2.8067,2.7979,2.8121,2.7906,2.7799,2.7906,2.8311,2.841,2.8074,2.8906,2.9157,2.8649,2.8649,2.8649,2.8649,2.8458,2.8248,2.8019,2.8183,2.8157,2.7906,2.7906,2.8014,2.8121,2.8228,2.8194,2.7906,2.8194,2.813,2.7829,2.7754,2.7285,2.6699,2.6269,2.584,2.5449,2.5449,2.5176,2.4727,2.4297,2.3984,2.3711,2.3218,2.3101,2.3101,2.3101,2.3101,2.3101,2.3101,2.3101,2.3101,2.3101,2.3101,2.3101,2.3101,2.3101,2.3101,2.3101,2.3101,2.3387,2.4317,2.4045,2.3655,2.3654,2.3227,2.2921,2.3096,2.3586,2.4055,2.4273,2.4188,2.4015,2.3765,2.3078,2.2465,2.1975,2.1873,2.1672,2.1376,2.15,2.1558,2.1548,2.174,2.1861,2.1861,2.2077,2.2342,2.2686,2.2686,2.2702,1.508,0.0,0.0,1.9145,2.095,2.2677,2.3008,2.3867,2.4942,2.581,2.682,2.7643,2.7812,2.7988,2.8164,2.8281,2.8301,2.8301,2.8301,2.8301,2.8301,2.8301,2.8301,2.8301,2.8301,2.8228,2.8228,2.8281,2.868,2.8843,2.8616,2.9458,2.9694,2.9126,2.9239,2.9182,2.9012,2.8898,2.8633,2.8403,2.8569,2.8449,2.808,2.8125,2.8228,2.8301,2.8301,2.8301,2.8301,2.8301,2.8301,2.8262,2.7949,2.7578,2.7148,2.6719,2.6211,2.5693,2.5693,2.5527,2.5176,2.4746,2.4316,2.3887,2.3457,2.3198,2.3101,2.3101,2.3101,2.3101,2.3101,2.3101,2.3101,2.3101,2.3101,2.3101,2.3101,2.3299,2.3474,2.3474,2.3691,2.4059,2.4744,2.4872,2.4956,2.5319,2.4538,2.3928,2.3821,2.4129,2.449,2.4765,2.4742,2.464,2.4496,2.3933,2.337,2.2873,2.2573,2.2306,2.2068,2.2076,2.2099,2.2197,2.2342,2.2414,2.2414,2.2558,2.2855,2.324,2.324,2.3433,0.0,0.0,1.8938,2.0692,2.2625,2.4117,2.4,2.518,2.6271,2.6136,2.6705,2.7439,2.815,2.7949,2.7865,2.8223,2.8301,2.8301,2.8301,2.8301,2.8301,2.8301,2.8301,2.8301,0.0,2.8067,2.8014,2.8301,2.8807,2.9041,2.8891,3.0156,3.0644,3.0195,2.991,2.9757,2.9757,2.9334,2.9066,2.9047,2.9047,2.8891,2.8487,2.8099,2.8067,2.8301,2.8301,2.8301,2.8301,2.8301,2.8301,2.8301,2.8281,2.8008,2.7598,2.7148,2.6465,2.5693,2.5693,2.5674,2.5644,2.5195,2.4746,2.4316,2.3906,2.3477,2.3101,2.3101,2.3101,2.3101,2.3101,2.3101,2.3101,2.3101,2.3101,2.3101,2.3101,2.382,2.4466,2.4466,2.5147,2.5735,2.5735,2.5735,2.5777,2.5755,2.6098,2.5841,2.452,2.4609,2.4801,2.4801,2.5111,2.5083,2.452,2.4472,2.4256,2.3785,2.3737,2.352,2.2967,2.2967,2.2727,2.2197,2.2702,2.2999,2.2999,2.3505,2.377,2.377,2.377,2.3794,0.0,0.0,1.8935,2.0008,2.1655,2.3325,2.4518,2.5342,2.6063,2.6686,2.6436,2.6116,2.6036,2.6182,2.6366,2.6517,2.754,2.8301,2.8301,2.8535,2.8613,2.832,2.8535,0.0,0.0,0.0,0.0,2.8281,2.8719,2.9089,2.9336,3.0332,3.082,3.0664,3.0606,3.0548,3.0548,3.0354,3.0121,2.981,2.9538,2.9169,2.8762,2.8606,2.8447,2.8301,2.8301,2.8301,2.8301,2.8301,2.8301,2.8301,2.8301,2.8027,2.7669,2.7168,2.666,2.6133,2.5791,2.5693,2.5615,2.5215,2.4961,2.4707,2.4004,2.3691,2.3516,2.3179,2.3101,2.3101,2.3101,2.3101,2.3101,2.3101,2.3101,2.3256,2.3907,2.4274,2.4659,2.5253,2.561,2.5986,2.6629,2.6712,2.6917,2.751,2.6909,2.6177,2.561,2.5622,2.5529,2.5159,2.5253,2.5228,2.5059,2.5035,2.4819,2.4314,2.4266,2.4025,2.3553,2.3529,2.3457,2.3288,2.3457,2.3529,2.3529,2.3722,2.3986,2.4266,2.4266,2.4458,1.6429,1.8003,1.9398,2.0475,2.1705,2.2823,2.3458,2.4043,2.4548,2.4721,2.4362,2.4071,2.3996,2.4254,2.4583,2.4887,2.6442,2.7707,2.7879,2.8342,2.8652,2.8535,2.875,2.8809,0.0,0.0,0.0,2.8262,2.8965,2.9434,2.957,3.041,3.0898,3.0898,3.0898,3.0898,3.0898,3.0898,3.0742,3.0449,3.0,2.9648,2.9355,2.9062,2.8769,2.8516,2.8359,2.8301,2.8301,2.8301,2.8301,2.8301,2.8301,2.8125,2.7812,2.7226,2.6836,2.6523,2.5888,2.5693,2.5635,2.541,2.5195,2.5008,2.4414,2.4043,2.373,2.3457,2.3218,2.3101,2.3101,2.3101,2.3101,2.3101,2.3101,2.3256,2.3864,2.4231,2.4744,2.561,2.6069,2.6588,2.751,2.7672,2.7857,2.8419,2.7735,2.7035,2.6716,2.6334,2.5973,2.5612,2.542,2.53,2.53,2.53,2.5155,2.4819,2.4795,2.4578,2.4049,2.4049,2.3986,2.3794,2.3953,2.4049,2.4049,2.4218,2.4482,2.4795,2.4795,2.4987,1.8239,1.9272,2.0169,2.1853,2.2537,2.2414,2.1029,2.1576,2.1946,2.0635,2.0766,2.1362,0.0,0.0,2.2706,2.3548,2.5233,2.6673,2.7197,2.7924,2.8496,0.0,0.0,0.0,0.0,0.0,0.0,2.8359,0.0,2.998,2.9685,3.043,3.0898,3.0898,3.0898,3.0898,3.0898,3.0898,3.0898,3.0879,3.0449,3.0215,3.0176,2.9336,2.8945,2.8906,2.8476,2.8301,2.8301,2.8301,2.8301,2.8301,2.8301,2.8301,2.8203,2.7363,2.7031,2.6894,2.6005,2.5713,2.5693,2.5693,2.5449,2.5145,2.5125,2.4492,2.3848,2.3828,2.3516,2.314,2.314,2.312,2.3101,2.3101,2.3101,2.3101,2.3188,2.3907,2.4829,2.5694,2.6629,2.751,2.8339,2.8522,2.8522,2.8522,2.8522,2.833,2.7762,2.6815,2.6166,2.6117,2.5636,2.5348,2.53,2.53,2.53,2.53,2.53,2.5083,2.4544,2.452,2.4338,2.389,2.4314,2.452,2.452,2.5059,2.53,2.53,2.53,2.53,1.7871,1.8659,1.9276,1.9989,2.0032,2.0076,2.0594,2.0608,2.056,2.0956,2.02,1.9392,0.0,0.0,0.0,2.2324,2.5176,0.0,2.8388,2.8936,0.0,2.9394,0.0,2.9746,2.9434,2.959,0.0,0.0,2.9238,2.9473,3.0,3.0586,3.0898,3.0898,3.0898,3.0898,3.0898,3.0898,3.0898,3.0898,3.0762,3.0527,3.0176,2.9648,2.9219,2.8906,2.8476,2.8301,2.8301,2.8301,2.8301,2.8301,2.8301,2.8301,2.8223,2.7695,2.7285,2.6934,2.6406,2.6016,2.5693,2.5693,2.5615,2.5508,2.5176,2.4969,2.4715,2.4355,2.3945,2.3633,2.3633,2.3379,2.3101,2.3101,2.3101,2.3299,2.3993,2.4829,2.5735,2.667,2.7551,2.8219,2.8459,2.8522,2.8522,2.8522,2.8522,2.833,2.7762,2.745,2.7007,2.619,2.5973,2.5733,2.5348,2.53,2.53,2.53,2.53,2.5252,2.5107,2.5107,2.5035,2.4915,2.5035,2.5107,2.5107,2.5252,2.53,2.53,2.53,2.53,1.821,1.8758,1.9158,1.9332,1.9145,1.898,1.929,1.9045,1.876,1.8651,1.7934,0.0,0.0,0.0,0.0,0.0,0.0,0.0,2.8212,2.8906,2.9434,0.0,3.0059,0.0,2.9863,3.0059,3.0176,0.0,2.9922,2.9902,3.0176,3.0644,3.0898,3.0898,3.0898,3.0898,3.0898,3.0898,3.0898,3.0898,3.0898,3.0762,3.0488,3.0039,2.9609,2.918,0.0,2.8457,2.8301,2.8301,2.8301,2.8301,2.8301,2.8301,2.8242,2.7865,2.7519,2.7207,2.6602,2.623,2.5996,2.5752,2.5693,2.5635,2.543,2.5215,2.5067,2.4766,2.4394,2.4023,2.3828,2.3613,2.3467,2.3644,2.3691,2.395,2.4872,2.5442,2.6069,2.7021,2.7874,2.8522,2.8522,2.8522,2.8522,2.8522,2.8522,2.8402,2.8114,2.7873,2.745,2.6887,2.6598,2.6238,2.5709,2.5661,2.5564,2.5324,2.53,2.53,2.53,2.53,2.53,2.53,2.53,2.53,2.53,2.53,2.53,2.53,2.53,2.53,1.8824,1.9172,1.943,1.943,1.9078,1.8597,1.7769,1.7387,1.6777,1.5427,0.0,1.5162,1.4848,1.6684,1.8709,1.9983,0.0,2.5825,2.7791,2.8609,2.9336,3.0176,3.0293,3.0293,3.0293,3.0293,3.0449,3.0859,3.0898,3.0723,3.0312,3.0664,3.0898,3.0898,3.0898,3.0898,3.0898,3.0898,3.0898,3.0898,3.0898,3.0898,3.0879,3.041,3.0,2.9629,2.9141,0.0,2.8379,2.832,2.8301,2.8301,2.8301,2.8301,2.8242,2.7943,2.7767,2.7611,2.6738,2.6426,2.6309,2.583,2.5693,2.5693,2.5693,2.5469,2.5156,2.5156,2.4844,2.4414,2.4062,2.3957,2.4093,2.4459,2.4615,2.4872,2.5652,2.5902,2.6235,2.7185,2.7978,2.8522,2.8522,2.8522,2.8522,2.8522,2.8522,2.8522,2.8522,2.8114,2.7762,2.769,2.7282,2.6777,2.6262,2.6214,2.5973,2.5444,2.542,2.5372,2.53,2.53,2.53,2.53,2.53,2.53,2.53,2.53,2.53,2.53,2.53,2.53,1.9132,1.939,1.943,1.943,1.8784,1.8035,1.7675,1.6378,0.0,0.0,0.0,1.3887,1.3774,1.6474,0.0,2.0539,0.0,0.0,0.0,0.0,2.9785,0.0,0.0,0.0,0.0,0.0,0.0,0.0,0.0,3.0859,3.0781,3.084,3.0898,3.0898,3.0898,3.0898,3.0898,3.0898,3.0898,3.0898,3.0898,3.0898,3.0879,3.041,3.0156,3.0039,2.9258,0.0,2.8789,2.8437,2.8301,2.8301,2.8301,2.8301,2.8281,2.8203,2.7969,2.7598,2.709,2.668,2.6309,2.583,2.5693,2.5693,2.5693,2.5635,2.5625,2.5625,2.5293,2.4941,2.491,2.4891,2.4886,2.498,2.5316,2.561,2.5777,2.6423,2.7226,2.8099,2.8379,2.8522,2.8522,2.8522,2.8522,2.8522,2.8522,2.8522,2.8522,2.8426,2.821,2.7738,2.7594,2.733,2.6801,2.6753,2.6513,2.5997,2.5973,2.5757,2.5324,2.53,2.53,2.53,2.53,2.53,2.53,2.53,2.53,2.53,2.53,2.53,1.9252,1.943,1.939,1.9172,1.8584,1.7796,1.6874,0.0,0.0,0.0,0.0,1.3027,1.2988,0.0,0.0,0.0,0.0,0.0,0.0,0.0,0.0,0.0,0.0,0.0,0.0,0.0,0.0,0.0,0.0,3.0898,3.0898,3.0898,3.0898,3.0898,3.0898,3.0898,3.0898,3.0898,3.0898,3.0898,3.0898,3.0898,3.0879,3.0664,3.043,3.0156,2.9531,0.0,2.8887,2.8457,2.8301,2.8301,2.8301,2.8301,2.8301,2.8301,2.8164,2.793,2.75,2.707,2.6641,2.6211,2.5918,2.5693,2.5693,2.5693,2.5693,2.5693,2.5586,2.5371,2.5137,2.5119,2.5229,2.5714,2.6506,2.7203,2.7203,2.7551,2.8018,2.8419,2.8522,2.8522,2.8522,2.8522,2.8522,2.8522,2.8522,2.8522,2.8522,2.8522,2.8426,2.8162,2.8138,2.7921,2.7354,2.7306,2.7066,2.6574,2.6526,2.6393,2.6129,2.6105,2.6105,2.6105,2.6105,2.6105,2.6105,2.6105,2.5997,2.5733,2.6021,2.5997,1.9172,1.9377,1.9292,1.8998,1.837,1.7475,1.6091,1.4987,0.0,0.0,1.2355,1.2398,1.2699,0.0,0.0,0.0,0.0,0.0,0.0,0.0,0.0,0.0,0.0,0.0,0.0,0.0,0.0,0.0,0.0,0.0,3.0898,3.0898,3.0898,3.0898,3.0898,3.0898,3.0898,3.0898,3.0898,3.0898,3.0898,3.0898,3.0898,3.0898,3.0703,3.0312,2.9805,0.0,0.0,2.8496,2.8301,2.8301,2.8301,2.8301,2.8301,2.8301,2.8301,2.8223,2.7812,2.7441,2.7121,2.6793,2.6291,2.5742,2.5965,2.6014,2.6062,2.6284,2.6332,2.6252,2.5939,2.5966,2.6218,2.7085,2.8004,2.8667,2.8667,2.8595,2.8522,2.8522,2.8522,2.8522,2.8522,2.8522,2.8522,2.8522,2.8522,2.8522,2.8522,2.8522,2.8522,2.8522,2.8522,2.8354,2.7921,2.7897,2.7618,2.709,2.7066,2.7018,2.6898,2.6898,2.6898,2.6898,2.6898,2.6898,2.6898,2.6898,2.6657,2.6286,2.6681,2.6657,1.8811,1.9158,1.9292,1.8998,1.8063,1.7032,1.6046,0.0,0.0,1.2493,1.2011,1.2078,1.3341,1.4898,0.0,0.0,0.0,0.0,0.0,0.0,0.0,0.0,0.0,0.0,0.0,0.0,0.0,0.0,0.0,0.0,3.0898,3.0898,3.0898,3.0898,3.0898,3.0898,3.0898,3.0898,3.0898,3.0898,3.0898,3.0898,3.0898,3.0898,3.0859,3.0781,2.9941,0.0,0.0,2.8633,2.8301,2.8301,2.8301,2.8301,2.8301,2.8301,2.8301,2.8223,2.7812,2.7689,2.7668,2.772,2.6858,2.5868,2.6771,2.7057,2.7226,2.8168,2.8402,2.8448,2.8383,2.8698,2.9142,2.9669,2.948,2.922,2.922,2.8859,2.8522,2.8522,2.8522,2.8522,2.8522,2.8522,2.8522,2.8522,2.8522,2.8522,2.8522,2.8522,2.8522,2.8522,2.8522,2.8498,2.845,2.845,2.821,2.7642,2.7618,2.7402,2.6922,2.6898,2.6898,2.6898,2.6898,2.6898,2.6898,2.6898,2.6873,2.6825,2.6873,2.6873,1.841,1.8878,1.9025,1.8731,1.801,1.7022,1.5731,0.0,1.2839,1.2367,1.2282,1.257,1.3539,1.5052,1.679,0.0,1.9621,2.1112,0.0,0.0,0.0,0.0,0.0,0.0,0.0,0.0,0.0,0.0,0.0,0.0,3.0898,3.0898,3.0898,3.0898,3.0898,3.0898,3.0898,3.0898,3.0898,3.0898,3.0898,3.0898,3.0898,3.0898,3.0898,3.084,2.9961,0.0,0.0,2.8652,2.8301,2.8301,2.8301,2.8301,2.8301,2.8301,2.8301,2.8262,2.8105,2.7871,2.7663,2.7461,2.6814,2.6369,2.771,2.8121,2.8215,2.8588,2.868,2.868,2.868,2.906,2.9454,2.9619,2.9711,2.9677,2.9364,2.9124,2.8883,2.857,2.8522,2.8522,2.8522,2.8522,2.8522,2.8522,2.8522,2.8522,2.8522,2.8522,2.8522,2.8522,2.8522,2.8522,2.8522,2.8522,2.8426,2.821,2.8186,2.8114,2.7897,2.7834,2.7834,2.7834,2.7834,2.7834,2.7834,2.7834,2.769,2.7378,2.769,2.7743,1.7849,1.837,1.8597,1.8303,1.7713,1.6873,0.0,0.0,1.2842,1.2449,1.256,1.3009,1.3999,1.5368,1.6819,1.8096,1.8682,1.9883,2.2363,0.0,0.0,0.0,0.0,0.0,0.0,0.0,0.0,0.0,0.0,0.0,3.0898,3.0898,3.0898,3.0898,3.0898,3.0898,3.0898,3.0898,3.0898,3.0898,3.0898,3.0898,3.0898,3.0898,3.0898,3.084,2.9961,0.0,0.0,2.8652,2.8301,2.8301,2.8301,2.8301,2.8301,2.8301,2.8495,2.8741,2.8741,2.8805,2.8848,2.8635,2.8284,2.8174,2.9427,2.9322,2.8819,2.9418,2.9601,2.9601,2.9601,2.9804,3.0085,3.0085,3.0213,3.023,2.9845,2.9508,2.9196,2.8811,2.8619,2.8522,2.8522,2.8522,2.8522,2.8522,2.8522,2.8522,2.8522,2.8522,2.8522,2.8522,2.8522,2.8522,2.8522,2.8522,2.8522,2.8522,2.8522,2.8522,2.8522,2.8522,2.8522,2.8522,2.8522,2.8522,2.8522,2.8522,2.833,2.7969,2.837,2.8479,1.7029,1.7595,1.7929,1.7662,1.7079,1.6313,0.0,1.3696,1.2692,1.2713,1.2712,1.323,1.495,1.5898,1.6861,1.8356,1.9319,2.0664,2.2895,0.0,0.0,0.0,0.0,0.0,0.0,0.0,0.0,0.0,0.0,0.0,3.0898,3.0898,3.0898,3.0898,3.0898,3.0898,3.0898,3.0898,3.0898,3.0898,3.0898,3.0898,3.0898,3.0898,3.0898,0.0,0.0,0.0,0.0,2.8652,2.8301,2.8301,2.8301,2.8301,2.8301,2.8301,2.8953,2.9859,2.9859,3.0639,3.1651,3.2162,3.2002,3.1641,3.2269,3.0675,2.9096,3.1092,3.1673,3.1673,3.1673,3.1649,3.1693,3.1693,3.124,3.0898,3.0898,3.0037,2.9292,2.9292,2.8859,2.8522,2.8522,2.8522,2.8522,2.8522,2.8522,2.8522,2.8522,2.8522,2.8522,2.8522,2.8522,2.8522,2.8522,2.8522,2.8522,2.8522,2.8522,2.8522,2.8522,2.8522,2.8522,2.8522,2.8522,2.8522,2.8522,2.8522,2.8522,2.8498,2.8673,2.887,1.5819,1.6519,1.6917,1.6601,1.6289,1.5833,1.4853,1.3906,1.3273,1.3273,1.3705,1.4441,1.5411,1.6654,1.8054,1.9689,2.0176,0.0,0.0,0.0,0.0,0.0,0.0,0.0,0.0,0.0,0.0,0.0,0.0,0.0,3.0898,3.0898,3.0898,3.0898,3.0898,3.0898,3.0898,3.0898,3.0898,3.0898,3.0898,3.0898,3.0898,3.0898,3.0898,0.0,0.0,0.0,0.0,2.9721,2.9828,3.0557,3.0557,3.0557,3.0557,3.0557,3.0764,3.1051,3.1051,3.133,3.16,3.1418,3.1251,3.1158,3.1413,3.1155,3.0869,3.1516,3.1717,3.1717,3.1717,3.1717,3.1717,3.1717,3.1573,3.1356,3.0995,3.0615,3.0158,2.9436,2.9172,2.8931,2.857,2.8522,2.8522,2.8522,2.8522,2.8522,2.8522,2.8522,2.8522,2.8522,2.8522,2.8522,2.8522,2.8522,2.8522,2.8522,2.8522,2.8522,2.8522,2.8522,2.8522,2.8522,2.8522,2.8522,2.8522,2.8522,2.8578,2.8736,2.9067,2.9223,0.0,1.5475,1.5906,1.5711,1.5597,1.5319,1.4379,1.3901,1.365,1.353,1.4378,1.5307,1.5789,1.7055,1.8418,1.9629,1.998,0.0,0.0,0.0,0.0,0.0,0.0,0.0,0.0,0.0,0.0,0.0,0.0,0.0,3.0898,3.0898,3.0898,3.0898,3.0898,3.0898,3.0898,3.0898,3.0898,3.0898,3.0898,3.0898,3.0898,3.0898,3.0898,0.0,0.0,0.0,0.0,3.0252,3.0535,3.1586,3.1586,3.1586,3.1586,3.1586,3.1891,3.2174,3.2174,3.2499,3.2733,3.2487,3.2237,3.2017,3.1646,3.1632,3.1717,3.1717,3.1717,3.1717,3.1717,3.1717,3.1717,3.1717,3.1717,3.1621,3.1284,3.1067,3.073,3.0013,2.9581,2.9196,2.8859,2.8643,2.8522,2.8522,2.8522,2.8522,2.8522,2.8522,2.8522,2.8522,2.8522,2.8522,2.8522,2.8522,2.8522,2.8522,2.8522,2.8522,2.8522,2.8522,2.8522,2.8522,2.8522,2.8538,2.8618,2.8697,2.8816,2.9028,2.9263,2.9457,0.0,0.0,0.0,0.0,1.4838,1.4591,1.3663,1.369,0.0,1.3467,1.4638,1.5836,1.6181,1.7214,1.8242,1.8734,0.0,0.0,0.0,0.0,0.0,0.0,0.0,0.0,0.0,0.0,0.0,0.0,0.0,0.0,3.0898,3.0898,3.0898,3.0898,3.0898,3.0898,3.0898,3.0898,3.0898,3.0898,3.0898,3.0898,3.0898,3.0898,3.0898,0.0,0.0,0.0,0.0,3.041,3.0742,3.1841,3.1841,3.1841,3.1841,3.1841,3.2448,3.33,3.33,3.3967,3.4775,3.4775,3.4414,3.3814,3.2899,3.2202,3.1765,3.1717,3.1717,3.1717,3.1717,3.1717,3.1717,3.1717,3.1717,3.1717,3.1717,3.1332,3.097,3.0922,3.0086,2.9388,2.9364,2.8907,2.857,2.857,2.8522,2.8522,2.8522,2.8522,2.8522,2.8522,2.8522,2.8522,2.8522,2.8522,2.8522,2.8522,2.8522,2.8522,2.8522,2.8522,2.8522,2.8522,2.8522,2.8618,2.8791,2.9013,2.9209,2.9419,2.9419,2.956,1.3981,0.0,1.3042,1.2798,1.2891,1.2903,0.0,1.2616,1.3022,1.2455,0.0,0.0,1.6351,1.7593,0.0,0.0,0.0,0.0,0.0,0.0,0.0,0.0,0.0,0.0,0.0,0.0,0.0,0.0,0.0,3.0898,3.0898,3.0898,3.0898,3.0898,3.0898,3.0898,3.0898,3.0898,3.0898,3.0898,3.0898,3.0898,3.0898,3.0898,3.0898,0.0,0.0,0.0,3.2437,3.1564,3.2325,3.4066,3.4066,3.4066,3.4066,3.4066,3.4213,3.4433,3.4433,3.458,3.4775,3.4775,3.4414,3.3958,3.3718,3.3044,3.2226,3.1837,3.1717,3.1717,3.1717,3.1717,3.1717,3.1717,3.1717,3.1717,3.1717,3.1621,3.1404,3.0995,3.073,3.0374,2.9965,2.946,2.91,2.91,2.8763,2.8522,2.8522,2.8522,2.8522,2.8522,2.8522,2.8522,2.8522,2.8522,2.8522,2.8522,2.8522,2.8522,2.8522,2.8522,2.8522,2.8522,2.8522,2.8618,2.8791,2.9013,2.9209,2.9419,2.9599,2.974,1.3788,1.359,1.3358,1.3176,1.3041,1.2902,1.2719,0.0,0.0,0.0,0.0,0.0,0.0,0.0,0.0,0.0,0.0,0.0,0.0,0.0,0.0,0.0,0.0,0.0,0.0,0.0,0.0,0.0,0.0,3.0898,3.0898,3.0898,3.0898,3.0898,3.0898,3.0898,3.0898,3.0898,3.0898,3.0898,3.0898,3.0898,3.0898,3.0898,3.0898,0.0,0.0,0.0,3.2833,3.1979,3.2851,3.4775,3.4775,3.4775,3.4775,3.4775,3.4775,3.4775,3.4775,3.4775,3.4775,3.4775,3.4583,3.4318,3.4054,3.3598,3.3044,3.2274,3.191,3.1717,3.1717,3.1717,3.1717,3.1717,3.1717,3.1717,3.1717,3.1717,3.1621,3.1332,3.1091,3.0826,3.0494,3.0013,2.9653,2.9653,2.922,2.8883,2.8883,2.8667,2.8522,2.8522,2.8522,2.8522,2.8522,2.8522,2.8522,2.8522,2.8522,2.8522,2.8522,2.8522,2.8522,2.8522,2.8657,2.8816,2.8934,2.9248,2.9482,2.9599,2.974,2.9804,1.4022,1.4513,1.4848,1.4468,1.4108,1.3874,1.4029,0.0,0.0,0.0,0.0,0.0,0.0,0.0,0.0,0.0,0.0,0.0,0.0,0.0,0.0,0.0,0.0,0.0,0.0,0.0,0.0,0.0,0.0,3.0898,3.0898,3.0898,3.0898,3.0898,3.0898,3.0898,3.0898,3.0898,3.0898,3.0898,3.0898,3.0898,3.0898,3.0898,3.0898,3.084,0.0,0.0,3.2833,3.2134,3.3001,3.4775,3.4775,3.4775,3.4775,3.4775,3.4775,3.4775,3.4775,3.4775,3.4775,3.4775,3.4775,3.4703,3.4246,3.4054,3.3814,3.2996,3.2274,3.1813,3.1741,3.1717,3.1717,3.1717,3.1717,3.1717,3.1717,3.1717,3.1717,3.1717,3.1356,3.1043,3.1043,3.0567,3.0206,3.0206,2.9749,2.9412,2.9412,2.8955,2.8619,2.8619,2.857,2.8522,2.8522,2.8522,2.8522,2.8522,2.8522,2.8522,2.8522,2.8522,2.8522,2.8522,2.8855,2.9052,2.9091,2.9546,2.974,2.9804,2.9804,2.9804,1.6491,1.6893,1.6439,1.4343,1.4555,1.512,1.4545,0.0,0.0,0.0,0.0,0.0,0.0,0.0,0.0,0.0,0.0,0.0,0.0,0.0,0.0,0.0,0.0,0.0,0.0,0.0,0.0,0.0,0.0,3.0898,3.0898,3.0898,3.0898,3.0898,3.0898,3.0898,3.0898,3.0898,3.0898,3.0898,3.0898,3.0898,3.0898,3.0898,3.0898,3.0898,0.0,3.1713,3.2887,3.2954,3.3671,3.4775,3.4775,3.4775,3.4775,3.4775,3.4775,3.4775,3.4775,3.4775,3.4775,3.4775,3.4775,3.4751,3.4679,3.4342,3.3958,3.379,3.3116,3.2274,3.1837,3.1717,3.1717,3.1717,3.1717,3.1717,3.1717,3.1717,3.1717,3.1717,3.1645,3.1597,3.1597,3.1139,3.0802,3.0802,3.0302,2.9965,2.9965,2.9508,2.9172,2.9172,2.8787,2.8522,2.8522,2.8522,2.8522,2.8522,2.8522,2.8522,2.8522,2.8522,2.8522,2.8522,2.8736,2.8934,2.9091,2.9365,2.956,2.9804,2.9804,2.9804,1.6152,1.685,1.7181,1.6248,1.6558,1.7002,1.6758,0.0,0.0,0.0,0.0,0.0,0.0,0.0,0.0,0.0,0.0,0.0,0.0,0.0,0.0,0.0,0.0,0.0,0.0,0.0,0.0,0.0,0.0,0.0,3.0898,3.0898,3.0898,3.0898,3.0898,3.0898,3.0898,3.0898,3.0898,3.0898,3.0898,3.1228,3.1845,3.117,3.1614,3.2737,0.0,3.2179,3.3765,3.3361,3.3819,3.4775,3.4775,3.4775,3.4775,3.4775,3.4775,3.4775,3.4775,3.4775,3.4775,3.4775,3.4775,3.4775,3.4775,3.4607,3.4366,3.4078,3.3308,3.2442,3.2178,3.1934,3.1717,3.1717,3.1717,3.1717,3.1717,3.1717,3.1717,3.1717,3.1717,3.1717,3.1717,3.15,3.1356,3.1356,3.0898,3.0518,3.0518,3.0062,2.9725,2.9725,2.9244,2.8931,2.8931,2.8667,2.8522,2.8522,2.8522,2.8522,2.8522,2.8522,2.8538,2.8657,2.8855,2.9052,2.9263,2.9482,2.9702,2.9804,2.9804,2.9804,1.5762,1.6621,1.7539,1.8144,0.0,1.8722,1.9376,1.9331,0.0,0.0,0.0,0.0,0.0,0.0,0.0,0.0,0.0,0.0,0.0,0.0,0.0,0.0,0.0,0.0,0.0,0.0,0.0,0.0,0.0,0.0,3.0898,3.0898,3.0898,3.0898,3.0898,3.0898,3.0898,3.0898,3.0898,3.0898,3.117,3.1787,3.2685,3.1998,3.2602,3.4118,3.265,3.2918,3.4389,3.3819,3.4066,3.4775,3.4775,3.4775,3.4775,3.4775,3.4775,3.4775,3.4775,3.4775,3.4775,3.4775,3.4775,3.4775,3.4775,3.4775,3.4703,3.4294,3.3526,3.2803,3.2563,3.2178,3.1862,3.1741,3.1717,3.1717,3.1717,3.1717,3.1717,3.1717,3.1717,3.1717,3.1717,3.1717,3.1717,3.1717,3.1356,3.1091,3.1091,3.0591,3.0278,3.0278,2.9797,2.9484,2.9484,2.9003,2.8691,2.8691,2.857,2.8498,2.8578,2.8578,2.8657,2.8895,2.9091,2.9223,2.9419,2.9663,2.9804,2.9804,2.9804,2.9804,1.6829,1.7305,1.7676,1.8887,1.9204,0.0,2.1751,2.1909,0.0,2.373,0.0,0.0,0.0,0.0,0.0,0.0,0.0,0.0,0.0,0.0,0.0,0.0,0.0,0.0,0.0,0.0,0.0,0.0,0.0,0.0,3.0898,3.0898,3.0898,3.0898,3.0898,3.0898,3.0898,3.0898,3.0898,3.0898,3.2018,3.2628,3.2742,3.3741,3.3963,3.365,3.4162,3.4159,3.3907,3.445,3.4726,3.4775,3.4775,3.4775,3.4775,3.4775,3.4775,3.4775,3.4775,3.4775,3.4775,3.4775,3.4775,3.4775,3.4775,3.4775,3.4775,3.4727,3.4318,3.367,3.2755,3.2466,3.2322,3.1837,3.1717,3.1717,3.1717,3.1717,3.1717,3.1717,3.1717,3.1717,3.1717,3.1717,3.1717,3.1717,3.1669,3.1645,3.1645,3.1187,3.0807,3.0807,3.035,3.0037,3.0037,2.9532,2.9244,2.9244,2.8787,2.8578,2.8752,2.8791,2.8895,2.9052,2.9263,2.938,2.9419,2.9663,2.9804,2.9804,2.9804,2.9804,1.5898,1.6758,1.7617,1.8633,1.9492,0.0,0.0,2.3008,2.3789,2.5,2.5117,0.0,0.0,0.0,0.0,0.0,0.0,0.0,0.0,0.0,0.0,0.0,0.0,0.0,0.0,0.0,0.0,0.0,0.0,0.0,3.0898,3.0898,3.0898,3.0898,3.0898,3.0898,3.0898,3.0898,3.1286,3.2018,3.2457,3.3459,3.4858,3.4558,3.4955,3.5799,3.4952,3.4727,3.4896,3.4844,3.4775,3.4775,3.4775,3.4775,3.4775,3.4775,3.4775,3.4775,3.4775,3.4775,3.4775,3.4775,3.4775,3.4775,3.4775,3.4775,3.4775,3.4775,3.4631,3.4318,3.3645,3.3236,3.2851,3.2322,3.2178,3.2082,3.1789,3.1717,3.1717,3.1717,3.1717,3.1717,3.1717,3.1717,3.1717,3.1717,3.1717,3.1717,3.1717,3.1524,3.1404,3.1404,3.0946,3.0446,3.011,2.9893,2.9797,2.9797,2.8979,2.8538,2.8618,2.8736,2.887,2.9091,2.9302,2.9457,2.9663,2.974,2.9804,2.9804,2.9804,2.9804,1.5547,1.6582,1.7793,0.0,0.0,0.0,2.2793,2.3789,2.4785,2.6074,2.6133,0.0,0.0,0.0,0.0,0.0,0.0,0.0,0.0,0.0,0.0,0.0,0.0,0.0,0.0,0.0,0.0,0.0,0.0,0.0,0.0,3.0898,3.0898,3.0898,3.0898,3.0898,3.0898,3.0898,3.1592,3.3001,3.3001,3.4072,3.6177,3.5559,3.5917,3.6864,3.5521,3.5055,3.5352,3.4919,3.4775,3.4775,3.4775,3.4775,3.4775,3.4775,3.4775,3.4775,3.4775,3.4775,3.4775,3.4775,3.4775,3.4775,3.4775,3.4775,3.4775,3.4775,3.4775,3.4703,3.4342,3.3909,3.3404,3.2875,3.2611,3.2394,3.201,3.1837,3.1717,3.1717,3.1717,3.1717,3.1717,3.1717,3.1717,3.1717,3.1717,3.1717,3.1717,3.1717,3.1717,3.1717,3.138,3.1019,3.0657,3.0422,3.0326,3.0326,2.9508,2.8972,2.8843,2.8889,2.8988,2.9209,2.9404,2.9599,2.9804,2.9804,2.9804,2.9804,2.9804,2.9804,1.6085,1.7012,0.0,0.0,0.0,0.0,2.4043,2.4434,2.5039,2.7226,0.0,0.0,0.0,0.0,0.0,0.0,0.0,0.0,0.0,0.0,0.0,0.0,0.0,0.0,0.0,0.0,0.0,0.0,0.0,0.0,0.0,3.0879,3.0879,3.0879,3.0879,3.0879,3.0879,3.0879,3.1812,3.3574,3.3628,3.4492,3.6208,3.6896,3.6892,3.6362,3.5833,3.5328,3.4775,3.4775,3.4775,3.4775,3.4775,3.4775,3.4775,3.4775,3.4775,3.4775,3.4775,3.4775,3.4775,3.4775,3.4775,3.4775,3.4775,3.4775,3.4775,3.4775,3.4775,3.4775,3.4775,3.439,3.3862,3.3428,3.2899,3.2515,3.2491,3.2058,3.1717,3.1717,3.1717,3.1717,3.1717,3.1717,3.1717,3.1717,3.1717,3.1717,3.1717,3.1717,3.1717,3.1717,3.1717,3.1717,3.1717,3.1235,3.0922,3.0922,3.0374,2.997,2.9618,2.9307,2.9209,2.938,2.9663,2.9804,2.9804,2.9804,2.9804,2.9804,2.9804,2.9804,1.6085,0.0,0.0,0.0,0.0,0.0,0.0,2.5352,0.0,0.0,0.0,0.0,0.0,0.0,0.0,0.0,0.0,0.0,0.0,0.0,0.0,0.0,0.0,0.0,0.0,0.0,0.0,0.0,0.0,0.0,0.0,3.0586,3.041,3.041,3.0117,2.9961,2.9961,3.071,3.1774,3.3202,3.395,3.4992,3.6327,3.6545,3.6338,3.5833,3.5689,3.5328,3.4775,3.4775,3.4775,3.4775,3.4775,3.4775,3.4775,3.4775,3.4775,3.4775,3.4775,3.4775,3.4775,3.4775,3.4775,3.4775,3.4775,3.4775,3.4775,3.4775,3.4775,3.4775,3.4775,3.4655,3.4414,3.3933,3.3646,3.3334,3.2659,3.237,3.213,3.1789,3.1717,3.1717,3.1717,3.1717,3.1717,3.1717,3.1717,3.1717,3.1717,3.1717,3.1717,3.1717,3.1717,3.1717,3.1717,3.1573,3.1476,3.1476,3.097,3.0441,2.9994,2.999,2.9927,2.9736,2.9975,2.9999,2.9804,2.9804,2.9804,2.9804,2.9804,2.9804,1.7239,0.0,0.0,0.0,0.0,0.0,0.0,0.0,0.0,0.0,0.0,0.0,0.0,0.0,0.0,0.0,0.0,0.0,0.0,0.0,0.0,0.0,0.0,0.0,0.0,0.0,0.0,0.0,0.0,0.0,0.0,3.0098,2.9941,2.9941,3.0135,3.0052,2.9626,3.1114,3.2148,3.27,3.3749,3.4816,3.5785,3.6002,3.593,3.5617,3.54,3.5112,3.4775,3.4775,3.4775,3.4775,3.4775,3.4775,3.4775,3.4775,3.4775,3.4775,3.4775,3.4775,3.4775,3.4775,3.4775,3.4775,3.4775,3.4775,3.4775,3.4775,3.4775,3.4775,3.4775,3.4775,3.4703,3.4366,3.415,3.3814,3.326,3.2803,3.2394,3.2058,3.1862,3.1717,3.1717,3.1717,3.1717,3.1717,3.1717,3.1717,3.1717,3.1717,3.1717,3.1717,3.1717,3.1717,3.1717,3.1717,3.1717,3.1717,3.1404,3.1091,3.0863,3.0579,3.0382,3.0245,3.0465,3.0493,3.0432,3.0206,3.0131,3.0105,2.9905,2.9804,1.8848,0.0,0.0,0.0,0.0,0.0,0.0,0.0,0.0,0.0,0.0,0.0,0.0,0.0,0.0,0.0,0.0,0.0,0.0,0.0,0.0,0.0,0.0,0.0,0.0,0.0,0.0,0.0,0.0,0.0,0.0,2.9531,2.9567,2.9567,3.0539,3.0628,2.962,3.1803,3.2709,3.2323,3.3407,3.4213,3.4799,3.5328,3.5545,3.5521,3.504,3.4775,3.4775,3.4775,3.4775,3.4775,3.4775,3.4775,3.4775,3.4775,3.4775,3.4775,3.4775,3.4775,3.4775,3.4775,3.4775,3.4775,3.4775,3.4775,3.4775,3.4775,3.4775,3.4775,3.4775,3.4775,3.4775,3.4775,3.4414,3.4054,3.4006,3.3308,3.2611,3.2515,3.2082,3.1765,3.1717,3.1717,3.1717,3.1717,3.1717,3.1717,3.1717,3.1717,3.1717,3.1717,3.1717,3.1717,3.1717,3.1717,3.1717,3.1717,3.1717,3.1805,3.1981,3.1059,3.065,3.0893,3.1075,3.1256,3.1386,3.0909,3.0683,3.0683,3.0181,2.993,0.0,1.9805,0.0,0.0,0.0,0.0,0.0,0.0,0.0,0.0,0.0,0.0,0.0,0.0,0.0,0.0,0.0,0.0,0.0,0.0,0.0,0.0,0.0,0.0,0.0,0.0,0.0,0.0,0.0,0.0,2.9626,2.9238,2.9062,2.9062,2.9769,3.0063,2.9852,3.2024,3.305,0.0,3.4082,3.4675,3.4775,3.4895,3.4943,3.4943,3.4823,3.4775,3.4775,3.4775,3.4775,3.4775,3.4775,3.4775,3.4775,3.4775,3.4775,3.4775,3.4775,3.4775,3.4775,3.4775,3.4775,3.4775,3.4775,3.4775,3.4775,3.4775,3.4775,3.4775,3.4775,3.4775,3.4775,3.4775,3.4703,3.4486,3.4078,3.3814,3.343,3.2659,3.2394,3.2178,3.1789,3.1717,3.1717,3.1717,3.1717,3.1717,3.1717,3.1717,3.1717,3.1717,3.1717,3.1717,3.1717,3.1717,3.1717,3.1717,3.1849,3.1937,3.1981,3.1763,3.1663,3.1645,3.1729,3.1631,3.1386,3.1286,3.1235,3.121,3.111,3.106,0.0,0.0,0.0,0.0,0.0,0.0,0.0,0.0,0.0,0.0,0.0,0.0,0.0,0.0,0.0,0.0,0.0,0.0,0.0,0.0,0.0,0.0,0.0,0.0,0.0,0.0,0.0,0.0,0.0,2.8965,2.8965,2.875,2.8613,2.8613,3.0004,3.0432,2.9932,3.2577,3.372,3.3201,3.4262,3.4775,3.4775,3.4775,3.4775,3.4775,3.4775,3.4775,3.4775,3.4775,3.4775,3.4775,3.4775,3.4775,3.4775,3.4775,3.4775,3.4775,3.4775,3.4775,3.4775,3.4775,3.4775,3.4775,3.4775,3.4775,3.4775,3.4775,3.4775,3.4775,3.4775,3.4775,3.4775,3.4775,3.4775,3.4703,3.4414,3.4174,3.3838,3.3332,3.2851,3.2418,3.2106,3.1886,3.1717,3.1717,3.1717,3.1717,3.1717,3.1717,3.1717,3.1717,3.1717,3.1717,3.1717,3.1717,3.1717,3.1717,3.1893,3.205,3.2181,3.2288,3.2339,3.2301,3.2301,3.2279,3.219,3.1913,3.1788,3.1788,3.1512,3.163,0.0,0.0,0.0,0.0,0.0,0.0,0.0,0.0,0.0,0.0,0.0,0.0,0.0,0.0,0.0,0.0,0.0,0.0,0.0,0.0,0.0,0.0,0.0,0.0,0.0,0.0,0.0,0.0,0.0,2.8301,2.8301,2.8301,2.8388,2.8548,3.0557,3.1257,3.0484,3.335,3.436,3.3499,3.436,3.4775,3.4775,3.4775,3.4775,3.4775,3.4775,3.4775,3.4775,3.4775,3.4775,3.4775,3.4775,3.4775,3.4775,3.4775,3.4775,3.4775,3.4775,3.4775,3.4775,3.4775,3.4775,3.4775,3.4775,3.4775,3.4775,3.4775,3.4775,3.4775,3.4775,3.4775,3.4775,3.4775,3.4775,3.4775,3.4775,3.4438,3.4102,3.4006,3.3284,3.2611,3.2515,3.2106,3.1813,3.1717,3.1717,3.1717,3.1717,3.1717,3.1717,3.1717,3.1717,3.1717,3.1717,3.1717,3.1717,3.1717,3.1937,3.2157,3.24,3.2636,3.2766,3.2766,3.2766,3.2896,3.3111,3.276,3.2575,3.255,3.2275,3.2492,0.0,0.0,0.0,0.0,0.0,0.0,0.0,0.0,0.0,0.0,0.0,0.0,0.0,0.0,0.0,0.0,0.0,0.0,0.0,0.0,0.0,0.0,0.0,0.0,0.0,0.0,0.0,0.0,2.8301,2.8301,2.8301,2.8301,2.8761,2.967,3.0918,3.1971,3.275,3.4115,3.4726,3.458,3.4726,3.4775,3.4775,3.4775,3.4775,3.4775,3.4775,3.4775,3.4775,3.4775,3.4775,3.4775,3.4775,3.4775,3.4775,3.4775,3.4775,3.4775,3.4775,3.4775,3.4775,3.4775,3.4775,3.4775,3.4775,3.4775,3.4775,3.4775,3.4775,3.4775,3.4775,3.4775,3.4775,3.4775,3.4775,3.4775,3.4775,3.4727,3.4534,3.4078,3.3573,3.3044,3.2587,3.2442,3.2226,3.1789,3.1717,3.1717,3.1717,3.1717,3.1717,3.1717,3.1717,3.1717,3.1717,3.1717,3.1717,3.1717,3.2113,3.2356,3.24,3.281,3.3025,3.3025,3.3025,3.3068,3.3111,3.3775,3.4126,3.41,3.4752,3.5103,0.0,0.0,0.0,0.0,0.0,0.0,0.0,0.0,0.0,0.0,0.0,0.0,0.0,0.0,0.0,0.0,0.0,0.0,0.0,0.0,0.0,0.0,0.0,0.0,0.0,0.0,0.0,0.0,2.8301,2.8548,2.9164,2.9217,2.9723,3.0794,3.192,3.275,3.3201,3.4262,3.4775,3.4775,3.4775,3.4775,3.4775,3.4775,3.4775,3.4775,3.4775,3.4775,3.4775,3.4775,3.4775,3.4775,3.4775,3.4775,3.4775,3.4775,3.4775,3.4775,3.4775,3.4775,3.4775,3.4775,3.4775,3.4775,3.4775,3.4775,3.4775,3.4775,3.4775,3.4775,3.4775,3.4775,3.4775,3.4775,3.4775,3.4775,3.4775,3.4775,3.4631,3.4102,3.3814,3.3549,3.3044,3.2947,3.2851,3.2611,3.2587,3.2466,3.2178,3.213,3.201,3.1741,3.1717,3.1717,3.1717,3.1717,3.1717,3.1717,3.1981,3.2269,3.24,3.2723,3.2939,3.3111,3.3111,3.3111,3.3111,3.3979,3.4397,3.4439,3.5251,3.5869,0.0,0.0,0.0,0.0,0.0,0.0,0.0,0.0,0.0,0.0,0.0,0.0,0.0,0.0,0.0,0.0,0.0,0.0,0.0,0.0,0.0,0.0,0.0,0.0,0.0,0.0,0.0,0.0,2.8708,2.9164,3.0276,3.0328,3.0845,3.1971,3.2801,3.335,3.3598,3.4409,3.4775,3.4775,3.4775,3.4775,3.4775,3.4775,3.4775,3.4775,3.4775,3.4775,3.4775,3.4775,3.4775,3.4775,3.4775,3.4775,3.4775,3.4775,3.4775,3.4775,3.4775,3.4775,3.4775,3.4775,3.4775,3.4775,3.4775,3.4775,3.4775,3.4775,3.4775,3.4775,3.4775,3.4775,3.4775,3.4775,3.4775,3.4775,3.4775,3.4775,3.4655,3.427,3.4198,3.403,3.3573,3.3477,3.3428,3.3308,3.3284,3.314,3.2755,3.2707,3.2491,3.1982,3.191,3.1862,3.1717,3.1717,3.1717,3.1717,3.1937,3.2181,3.24,3.2636,3.2896,3.3111,3.3326,3.3411,3.3454,3.4288,3.4827,3.5073,3.5869,3.6582,0.0,0.0,0.0,0.0,0.0,0.0,0.0,0.0,0.0,0.0,0.0,0.0,0.0,0.0,0.0,0.0,0.0,0.0,0.0,0.0,0.0,0.0,0.0,0.0,0.0,0.0,0.0,0.0,2.9828,3.0276,3.1483,3.1534,3.1971,3.3101,3.3151,3.3697,3.4726,3.4775,3.4775,3.4775,3.4775,3.4775,3.4775,3.4775,3.4775,3.4775,3.4775,3.4775,3.4775,3.4775,3.4775,3.4775,3.4775,3.4775,3.4775,3.4775,3.4775,3.4775,3.4775,3.4775,3.4775,3.4775,3.4775,3.4775,3.4775,3.4775,3.4775,3.4775,3.4775,3.4775,3.4775,3.4775,3.4775,3.4775,3.4775,3.4775,3.4775,3.4775,3.4775,3.4751,3.4751,3.4583,3.4054,3.3958,3.379,3.3356,3.3284,3.3284,3.326,3.326,3.3044,3.2515,3.2466,3.225,3.1741,3.1717,3.1717,3.1717,3.2113,3.24,3.24,3.281,3.3068,3.3111,3.3894,3.4314,3.4314,3.5169,3.5949,3.6766,3.7644,3.8089,0.0,0.0,0.0,0.0,0.0,0.0,0.0,0.0,0.0,0.0,0.0,0.0,0.0,0.0,0.0,0.0,0.0,0.0,0.0,0.0,0.0,0.0,0.0,0.0,0.0,0.0,0.0,0.0,0.0,3.1462,3.26,3.265,3.3101,3.4164,3.4213,3.4433,3.4775,3.4775,3.4775,3.4775,3.4775,3.4775,3.4775,3.4775,3.4775,3.4775,3.4775,3.4775,3.4775,3.4775,3.4775,3.4775,3.4775,3.4775,3.4775,3.4775,3.4775,3.4775,3.4775,3.4775,3.4775,3.4775,3.4775,3.4775,3.4775,3.4775,3.4775,3.4775,3.4775,3.4775,3.4775,3.4775,3.4775,3.4775,3.4775,3.4775,3.4775,3.4775,3.4775,3.4775,3.4775,3.4727,3.4534,3.4486,3.4438,3.4294,3.427,3.415,3.3766,3.3765,3.376,3.3707,3.3703,3.3682,3.3552,3.3806,3.3568,3.2593,3.3505,3.3615,3.2636,3.3275,3.3742,3.3937,3.423,3.4397,3.4397,3.5776,3.661,3.6922,3.7796,3.8202,1.4375,0.0,0.0,0.0,0.0,0.0,0.0,0.0,0.0,0.0,0.0,0.0,0.0,0.0,0.0,0.0,0.0,0.0,0.0,0.0,0.0,0.0,0.0,0.0,0.0,0.0,0.0,0.0,0.0,0.0,3.3671,3.377,3.4066,3.4775,3.4775,3.4775,3.4775,3.4775,3.4775,3.4775,3.4775,3.4775,3.4775,3.4775,3.4775,3.4775,3.4775,3.4775,3.4775,3.4775,3.4775,3.4775,3.4775,3.4775,3.4775,3.4775,3.4775,3.4775,3.4775,3.4775,3.4775,3.4775,3.4775,3.4775,3.4775,3.4775,3.4775,3.4775,3.4775,3.4775,3.4775,3.4775,3.4775,3.4775,3.4775,3.4775,3.4775,3.4775,3.4775,3.4775,3.5017,3.5211,3.5211,3.5211,3.5307,3.5523,3.5211,3.4945,3.5032,3.4889,3.4928,3.5229,3.5269,3.5309,3.5375,3.5414,3.5025,3.4067,3.4673,3.465,3.3615,3.4194,3.4609,3.4827,3.5114,3.5237,3.5237,3.6373,3.7039,3.7376,3.7938,3.8202,0.0,0.0,0.0,0.0,0.0,0.0,0.0,0.0,0.0,0.0,0.0,0.0,0.0,0.0,0.0,0.0,0.0,0.0,0.0,0.0,0.0,0.0,0.0,0.0,0.0,0.0,0.0,0.0,3.325,3.372,3.4726,3.4775,3.4775,3.4775,3.4775,3.4775,3.4775,3.4775,3.4775,3.4775,3.4775,3.4775,3.4775,3.4775,3.4775,3.4775,3.4775,3.4775,3.4775,3.4775,3.4775,3.4775,3.4775,3.4775,3.4775,3.4775,3.4823,3.4823,3.4775,3.4823,3.4823,3.4775,3.4775,3.4775,3.4823,3.4823,3.4775,3.4823,3.4823,3.4775,3.4775,3.4823,3.4823,3.4823,3.4823,3.4872,3.4872,3.4872,3.4872,3.4823,3.55,3.6001,3.6001,3.6001,3.6285,3.6964,3.6048,3.5715,3.6964,3.6684,3.6574,3.703,3.7067,3.7052,3.7005,3.6416,3.5999,3.5957,3.5628,3.5413,3.5332,3.5548,3.5669,3.5669,3.6492,3.6883,3.6922,3.6922,3.7376,3.8202,3.8202,3.8202,1.3613,0.0,0.0,0.0,0.0,0.0,0.0,0.0,0.0,0.0,0.0,0.0,0.0,0.0,0.0,0.0,0.0,0.0,0.0,0.0,0.0,0.0,0.0,0.0,0.0,0.0,0.0,0.0,3.436,3.4482,3.4775,3.4775,3.4775,3.4775,3.4775,3.4775,3.4775,3.4775,3.4775,3.4775,3.4775,3.4775,3.4775,3.4775,3.4775,3.4775,3.4775,3.4775,3.4775,3.4775,3.4775,3.4775,3.4775,3.4775,3.4775,3.4775,3.492,3.5066,3.4872,3.492,3.5066,3.4872,3.4775,3.4823,3.5017,3.4969,3.4823,3.5017,3.492,3.4775,3.4775,3.5259,3.5692,3.5692,3.6096,3.6449,3.6449,3.6474,3.631,3.5763,3.6285,3.6803,3.6803,3.6803,3.6871,3.7057,3.7103,3.7217,3.754,3.7743,3.8073,3.8816,3.8905,3.8924,3.899,3.9075,3.8685,3.7634,3.7894,3.7557,3.628,3.6436,3.6531,3.6531,3.6766,3.7222,3.7834,3.7834,3.7976,3.8202,3.8202,3.8202,1.4883,0.0,0.0,0.0,0.0,0.0,0.0,1.8188,0.0,0.0,0.0,0.0,0.0,0.0,0.0,0.0,0.0,0.0,0.0,0.0,0.0,0.0,0.0,0.0,0.0,3.2715,3.3296,3.439,3.4655,3.4775,3.4775,3.4775,3.4775,3.4775,3.4775,3.4775,3.4775,3.4775,3.4775,3.4775,3.4775,3.4775,3.4775,3.4775,3.4775,3.4775,3.4775,3.4775,3.4775,3.4775,3.4775,3.4775,3.4775,3.4775,3.4823,3.492,3.5066,3.5187,3.5017,3.5066,3.5163,3.4872,3.4775,3.4823,3.5114,3.5066,3.4969,3.5163,3.5017,3.4969,3.5571,3.5858,3.6048,3.638,3.6777,3.7103,3.7103,3.7361,3.7341,3.6615,3.7057,3.7592,3.7592,3.7592,3.7684,3.7959,3.7795,3.7933,3.8657,3.8765,3.9166,4.0229,4.0358,4.0434,4.0756,4.0719,4.0335,3.9445,3.9521,3.8993,3.7718,3.7816,3.7737,3.7453,3.7453,3.7682,3.8202,3.8202,3.8202,3.8202,3.8202,3.8202,1.6613,1.6418,0.0,0.0,0.0,0.0,1.9049,1.8931,0.0,0.0,0.0,0.0,0.0,0.0,0.0,0.0,0.0,0.0,0.0,0.0,0.0,0.0,0.0,0.0,3.1711,3.2172,3.2906,3.3863,3.439,3.4703,3.4703,3.4751,3.4775,3.4775,3.4775,3.4775,3.4775,3.4775,3.4775,3.4775,3.4775,3.4775,3.4775,3.4775,3.4775,3.4775,3.4823,3.4823,3.4775,3.4823,3.4823,3.4775,3.4775,3.4775,3.4823,3.5114,3.5235,3.5235,3.5235,3.5259,3.5235,3.492,3.4872,3.492,3.5163,3.5235,3.5259,3.5356,3.5259,3.5379,3.6871,3.6777,3.6474,3.715,3.7335,3.7335,3.7335,3.7913,3.8187,3.7566,3.7913,3.8349,3.8349,3.8349,3.853,3.9203,3.8459,3.8413,3.9908,3.9777,4.0083,4.1354,4.148,4.1647,4.2051,4.1541,4.1221,4.1221,4.0583,3.9973,3.9421,3.9276,3.8928,3.8318,3.8231,3.8202,3.8202,3.8202,3.8202,3.8202,3.8202,3.8202,1.8344,1.8398,1.8477,1.7695,0.0,0.0,1.6502,1.6445,1.6903,0.0,0.0,0.0,0.0,0.0,0.0,0.0,0.0,0.0,0.0,0.0,0.0,0.0,0.0,0.0,3.2315,3.2791,3.3195,3.3428,3.3862,3.415,3.415,3.4558,3.4775,3.4775,3.4775,3.4775,3.4775,3.4775,3.4775,3.4775,3.4775,3.4775,3.4775,3.4775,3.4775,3.4823,3.5017,3.4969,3.4823,3.5017,3.4969,3.4775,3.4775,3.4775,3.4823,3.5114,3.5332,3.5524,3.5524,3.5668,3.5764,3.5284,3.5284,3.5476,3.5524,3.5524,3.5692,3.6449,3.6611,3.682,3.7854,3.8243,3.8342,3.8522,3.8729,3.889,3.889,3.9292,3.9601,3.9441,3.9247,3.9069,3.9069,3.9069,3.9114,3.9292,3.9733,4.0213,4.0516,4.1142,4.1647,4.1926,4.1968,4.2009,4.2092,4.1976,4.1889,4.1889,4.1279,4.0844,4.0728,3.9741,3.9131,3.9015,3.8463,3.8202,3.8202,3.8202,3.8202,3.8202,3.8202,3.8202,2.0118,1.9922,1.9803,1.9177,0.0,0.0,0.0,1.7062,1.7205,1.9354,0.0,0.0,0.0,0.0,0.0,0.0,0.0,0.0,0.0,0.0,0.0,0.0,0.0,0.0,3.1673,3.1937,3.2322,3.2851,3.338,3.3669,3.3669,3.4102,3.439,3.439,3.4655,3.4775,3.4775,3.4775,3.4775,3.4775,3.4775,3.4775,3.4775,3.492,3.4969,3.5017,3.5284,3.5332,3.5211,3.5332,3.5332,3.5163,3.4872,3.4872,3.5017,3.5307,3.5476,3.562,3.5764,3.5908,3.5908,3.5524,3.5476,3.562,3.5764,3.6121,3.6684,3.7494,3.7743,3.799,3.9227,3.9414,3.9309,3.9397,3.9557,3.9645,3.9645,3.9821,4.0083,4.03,4.017,3.9996,3.9996,3.9996,3.9996,3.9996,4.0386,4.0773,4.1015,4.1438,4.1843,4.2051,4.2092,4.2092,4.2092,4.2092,4.2092,4.2092,4.1773,4.1453,4.1105,4.0495,3.9857,3.9218,3.887,3.8522,3.8202,3.8202,3.8202,3.8202,3.8202,3.8202,0.0,0.0,0.0,0.0,0.0,1.8931,0.0,0.0,0.0,2.0629,0.0,0.0,0.0,0.0,0.0,0.0,0.0,0.0,0.0,0.0,0.0,0.0,0.0,0.0,0.0,3.0326,3.0759,3.1937,3.2322,3.2659,3.2947,3.3645,3.3982,3.3982,3.451,3.4775,3.4775,3.4775,3.4775,3.4775,3.4775,3.4775,3.4823,3.5017,3.5138,3.5211,3.5476,3.562,3.562,3.5668,3.5668,3.562,3.5114,3.509,3.5332,3.5572,3.5668,3.5716,3.5955,3.6098,3.6003,3.5764,3.5668,3.5764,3.6193,3.6896,3.7678,3.863,3.8872,3.9156,4.0574,4.0473,4.0012,4.0213,4.0213,4.0126,4.0126,4.0213,4.0386,4.073,4.093,4.093,4.073,4.0688,4.0688,4.0688,4.0773,4.0972,4.1354,4.148,4.1647,4.2051,4.2092,4.2092,4.2092,4.2092,4.2092,4.2092,4.2092,4.186,4.1308,4.1163,4.0554,3.9392,3.9363,3.9044,3.8405,3.8405,3.8318,3.8202,3.8202,3.8202,0.0,0.0,0.0,0.0,2.1289,0.0,0.0,0.0,1.8714,1.7573,0.0,0.0,0.0,0.0,0.0,0.0,0.0,0.0,0.0,0.0,0.0,0.0,0.0,0.0,0.0,2.8354,2.8715,3.0254,2.9989,3.0374,3.1813,3.3236,3.3982,3.3982,3.451,3.4775,3.4775,3.4775,3.4775,3.4775,3.4775,3.4775,3.4775,3.4823,3.4969,3.5211,3.5476,3.562,3.562,3.586,3.5955,3.5908,3.562,3.5524,3.5572,3.586,3.5955,3.6003,3.6288,3.6358,3.631,3.6051,3.5955,3.6146,3.7268,3.7684,3.8115,3.9869,4.0361,4.0603,4.1647,4.1564,4.1227,4.1227,4.093,4.0602,4.0602,4.0972,4.1269,4.1311,4.1647,4.1647,4.0816,4.0688,4.0688,4.0688,4.1057,4.1354,4.1396,4.176,4.2051,4.2092,4.2092,4.2092,4.2092,4.2092,4.2092,4.2092,4.2092,4.2063,4.1976,4.1424,4.0757,4.0002,4.0002,3.9683,3.9102,3.9102,3.8783,3.8202,3.8202,3.8202,0.0,0.0,0.0,0.0,0.0,0.0,1.9043,0.0,1.8184,0.0,0.0,0.0,0.0,0.0,0.0,0.0,0.0,0.0,0.0,0.0,0.0,0.0,0.0,0.0,0.0,0.0,0.0,0.0,2.8522,2.9076,3.0706,3.1961,3.2947,3.3573,3.4054,3.4462,3.4775,3.4775,3.4775,3.4775,3.4775,3.4775,3.4823,3.5114,3.5332,3.5476,3.5883,3.6073,3.6073,3.6193,3.6241,3.6241,3.6121,3.5955,3.586,3.5955,3.6003,3.6051,3.631,3.6405,3.6452,3.6896,3.7036,3.7222,3.8296,3.8988,3.9607,4.0389,4.1015,4.1577,4.2009,4.1968,4.176,4.1438,4.1269,4.11,4.11,4.1269,4.148,4.176,4.1968,4.1968,4.1564,4.1522,4.1522,4.1522,4.1647,4.1801,4.1801,4.1968,4.2092,4.2092,4.2092,4.2092,4.2092,4.2092,4.2092,4.2092,4.2092,4.2092,4.2092,4.1831,4.1366,4.0699,4.067,4.035,3.9712,3.9712,3.9567,3.9276,3.8551,3.8202,2.4003,0.0,0.0,0.0,0.0,0.0,0.0,0.0,0.0,0.0,0.0,0.0,0.0,0.0,0.0,0.0,0.0,0.0,0.0,0.0,0.0,0.0,0.0,0.0,0.0,0.0,0.0,0.0,0.0,2.7512,2.9532,3.085,3.1934,3.2803,3.3621,3.4174,3.4558,3.4703,3.4775,3.4775,3.4775,3.4775,3.4823,3.5284,3.5524,3.562,3.6098,3.631,3.6405,3.6405,3.6405,3.6405,3.6405,3.6288,3.6098,3.6098,3.6288,3.6499,3.6734,3.6943,3.7289,3.7978,3.8206,3.8387,3.9299,4.0087,4.0646,4.093,4.1535,4.2092,4.2092,4.2092,4.2009,4.1647,4.1564,4.1564,4.1564,4.1564,4.1689,4.2009,4.2092,4.2092,4.2092,4.2092,4.2092,4.2092,4.2092,4.2092,4.2092,4.2092,4.2092,4.2092,4.2092,4.2092,4.2092,4.2092,4.2092,4.2092,4.2092,4.2092,4.2092,4.2092,4.186,4.1366,4.1366,4.1047,4.0379,4.0379,4.0263,4.0089,3.916,3.8638,0.0,0.0,0.0,2.165,0.0,0.0,0.0,0.0,2.0605,0.0,0.0,0.0,0.0,0.0,0.0,0.0,0.0,0.0,0.0,0.0,0.0,0.0,0.0,0.0,0.0,0.0,0.0,0.0,0.0,0.0,2.8402,3.0037,3.1187,3.1741,3.3236,3.4006,3.4006,3.4534,3.4775,3.4775,3.4775,3.4775,3.4823,3.509,3.5356,3.562,3.5908,3.6146,3.6405,3.6405,3.6405,3.6405,3.6405,3.6405,3.6405,3.6405,3.6943,3.775,3.775,3.8342,3.9121,3.9166,3.9166,3.9343,4.0303,4.0603,4.0774,4.1773,4.2092,4.2092,4.2092,4.2092,4.2092,4.2092,4.2092,4.2092,4.2092,4.2092,4.2092,4.2092,4.2092,4.2092,4.2092,4.2092,4.2092,4.2092,4.2092,4.2092,4.2092,4.2092,4.2092,4.2092,4.2092,4.2092,4.2092,4.2092,4.2092,4.2092,4.2092,4.2092,4.2092,4.2092,4.2092,4.2063,4.2063,4.1744,4.1076,4.1076,4.0728,4.0089,4.006,3.9741,0.0,0.0,2.8233,2.4654,0.0,0.0,0.0,0.0,0.0,0.0,0.0,0.0,0.0,0.0,0.0,0.0,0.0,0.0,0.0,0.0,0.0,0.0,0.0,0.0,0.0,0.0,0.0,0.0,2.4386,0.0,0.0,2.9484,3.0802,3.1669,3.2875,3.3693,3.3982,3.451,3.4775,3.4775,3.4775,3.4872,3.5066,3.5332,3.562,3.586,3.6146,3.631,3.6405,3.6405,3.6405,3.6405,3.6405,3.6781,3.7315,3.7315,3.7546,3.7887,3.8496,3.8944,3.9299,3.9913,4.013,4.0303,4.1296,4.1577,4.166,4.2009,4.2092,4.2092,4.2092,4.2092,4.2092,4.2092,4.2092,4.2092,4.2092,4.2092,4.2092,4.2092,4.2092,4.2092,4.2092,4.2092,4.2092,4.2092,4.2092,4.2092,4.2092,4.2092,4.2092,4.2092,4.2092,4.2092,4.2092,4.2092,4.2092,4.2092,4.2092,4.2092,4.2092,4.2092,4.2092,4.2092,4.2092,4.1976,4.1773,4.1773,4.1657,4.1424,4.1424,4.0844,2.9983,3.0292,0.0,2.6993,2.6129,0.0,2.2315,0.0,0.0,0.0,0.0,0.0,0.0,0.0,0.0,0.0,0.0,0.0,0.0,0.0,0.0,0.0,0.0,0.0,0.0,0.0,2.2246,2.3905,0.0,0.0,0.0,0.0,3.0206,3.1115,3.2515,3.3452,3.3765,3.4438,3.4823,3.492,3.4823,3.4969,3.538,3.5524,3.5764,3.6003,3.6288,3.6405,3.6405,3.6405,3.6405,3.6452,3.6781,3.7268,3.7821,3.7821,3.8206,3.8944,3.9897,4.0244,4.0331,4.093,4.1099,4.1254,4.1897,4.2092,4.2092,4.2092,4.2092,4.2092,4.2092,4.2092,4.2092,4.2092,4.2092,4.2092,4.2092,4.2092,4.2092,4.2092,4.2092,4.2092,4.2092,4.2092,4.2092,4.2092,4.2092,4.2092,4.2092,4.2092,4.2092,4.2092,4.2092,4.2092,4.2092,4.2092,4.2092,4.2092,4.2092,4.2092,4.2092,4.2092,4.2092,4.2092,4.2092,4.2092,4.2092,4.2092,4.2092,4.2092,4.2092,4.1628]}]]